[[{"header":{"parameterUnit":"m.s-1","parameterCategory":1,"la1":30.6,"la2":29.2853,"lo1":-89.7004,"lo2":-87.6739,"dy":0.0162,"dx":0.0183,"nx":112,"ny":82,"refTime":"2024-05-26T12:00:00:Z","depth":0,"parameterNumber":2,"parameterNumberName":"U-component_of_WINDS"},"data":[0.0,0.0,0.0,0.0,0.0,0.0,0.0,0.0,0.0,0.0,0.0,0.0,0.0,0.0,0.0,0.0,0.0,0.0,0.0,0.0,0.0,0.0,0.0,0.0,0.0,0.0,0.0,0.0,0.0,0.0,0.0,0.0,0.0,0.0,0.0,0.0,0.0,0.0,0.0,0.0,0.0,0.0,0.0,0.0,0.0,0.0,0.0,0.0,0.0,0.0,0.0,0.0,0.0,0.0,0.0,0.0,0.0,0.0,0.0,0.0,0.0,0.0,0.0,0.0,0.0,0.0,0.0,0.0,0.0,0.0,0.0,0.0,0.0,0.0,0.0,0.0,0.0,0.0,0.0,0.0,0.0,0.0,0.0,0.0,0.0,0.0,0.0,0.0,0.0,0.0,1.5711,1.5806,1.6233,1.65,1.65,1.65,1.6391,1.6109,0.0,0.0,0.0,0.0,0.0,0.0,0.0,0.0,0.0,0.0,0.0,0.0,0.0,0.0,0.0,0.0,0.0,0.0,0.0,0.0,0.0,0.0,0.0,0.0,0.0,0.0,0.0,0.0,0.0,0.0,0.0,0.0,0.0,0.0,0.0,0.0,0.0,0.0,0.0,0.0,0.0,0.0,0.0,0.0,0.0,0.0,0.0,0.0,0.0,0.0,0.0,0.0,0.0,0.0,0.0,0.0,0.0,0.0,0.0,0.0,0.0,0.0,0.0,0.0,0.0,0.0,0.0,0.0,0.0,0.0,0.0,0.0,0.0,0.0,0.0,0.0,0.0,0.0,0.0,0.0,0.0,0.0,0.0,0.0,0.0,0.0,0.0,0.0,0.0,0.0,0.0,0.0,0.0,0.0,0.0,0.0,0.0,0.0,0.0,0.0,0.0,0.0,0.0,0.0,1.5743,1.6317,1.645,1.65,1.65,1.65,1.6391,1.6109,0.0,0.0,0.0,0.0,0.0,0.0,0.0,0.0,0.0,0.0,0.0,0.0,0.0,0.0,0.0,0.0,0.0,0.0,0.0,0.0,0.0,0.0,0.0,0.0,0.0,0.0,0.0,0.0,0.0,0.0,0.0,0.0,0.0,0.0,0.0,0.0,0.0,0.0,0.0,0.0,0.0,0.0,0.0,0.0,0.0,0.0,0.0,0.0,0.0,0.0,0.0,0.0,0.0,0.0,0.0,0.0,0.0,0.0,0.0,0.0,0.0,0.0,0.0,0.0,0.0,0.0,0.0,0.0,0.0,0.0,0.0,0.0,0.0,0.0,0.0,0.0,0.0,0.0,0.0,0.0,0.0,0.0,0.0,0.0,0.0,0.0,0.0,0.0,0.0,0.0,0.0,0.0,0.0,0.0,0.0,0.0,0.0,0.0,0.0,0.0,0.0,0.0,0.0,1.5271,1.5827,1.6434,1.65,1.65,1.65,1.65,1.6391,1.6109,1.61,0.0,0.0,0.0,0.0,0.0,0.0,0.0,0.0,0.0,0.0,0.0,0.0,0.0,0.0,0.0,0.0,0.0,0.0,0.0,0.0,0.0,0.0,0.0,0.0,0.0,0.0,0.0,0.0,0.0,0.0,0.0,0.0,0.0,0.0,0.0,0.0,0.0,0.0,0.0,0.0,0.0,0.0,0.0,0.0,0.0,0.0,0.0,0.0,0.0,0.0,0.0,0.0,0.0,0.0,0.0,0.0,0.0,0.0,0.0,0.0,0.0,0.0,0.0,0.0,0.0,0.0,0.0,0.0,0.0,0.0,0.0,0.0,0.0,0.0,0.0,0.0,0.0,0.0,0.0,0.0,0.0,0.0,0.0,0.0,0.0,0.0,0.0,0.0,0.0,0.0,0.0,0.0,0.0,0.0,0.0,0.0,0.0,0.0,0.0,0.0,0.0,0.0,1.5969,1.6057,1.645,1.65,1.65,1.65,1.6375,1.625,1.6096,1.5841,0.0,0.0,0.0,0.0,0.0,0.0,0.0,0.0,0.0,0.0,0.0,0.0,0.0,0.0,0.0,0.0,0.0,0.0,0.0,0.0,0.0,0.0,0.0,0.0,0.0,0.0,0.0,0.0,0.0,0.0,0.0,0.0,0.0,0.0,0.0,0.0,0.0,0.0,0.0,0.0,0.0,0.0,0.0,0.0,0.0,0.0,0.0,0.0,0.0,0.0,0.0,0.0,0.0,0.0,0.0,0.0,0.0,0.0,0.0,0.0,0.0,0.0,0.0,0.0,0.0,0.0,0.0,0.0,0.0,0.0,0.0,0.0,0.0,0.0,0.0,0.0,0.0,0.0,0.0,0.0,0.0,0.0,0.0,0.0,0.0,0.0,0.0,0.0,0.0,0.0,0.0,0.0,0.0,0.0,0.0,0.0,0.0,0.0,0.0,0.0,0.0,0.0,1.6072,1.645,1.6488,1.65,1.65,1.65,1.6045,1.5859,1.61,1.5046,0.0,0.0,0.0,0.0,0.0,0.0,0.0,0.0,0.0,0.0,0.0,0.0,0.0,0.0,0.0,0.0,0.0,0.0,0.0,0.0,0.0,0.0,0.0,0.0,0.0,0.0,0.0,0.0,0.0,0.0,0.0,0.0,0.0,0.0,0.0,0.0,0.0,0.0,0.0,0.0,0.0,0.0,0.0,0.0,0.0,0.0,0.0,0.0,0.0,0.0,0.0,0.0,0.0,0.0,0.0,0.0,0.0,0.0,0.0,0.0,0.0,0.0,0.0,0.0,0.0,0.0,0.0,0.0,0.0,0.0,0.0,0.0,0.0,0.0,0.0,0.0,0.0,0.0,0.0,0.0,0.0,0.0,0.0,0.0,0.0,0.0,0.0,0.0,0.0,0.0,0.0,0.0,0.0,0.0,0.0,0.0,0.0,0.0,0.0,0.0,0.0,0.0,1.5798,1.6132,0.0,1.65,1.65,1.65,1.63,1.6173,1.6096,0.0,0.0,0.0,0.0,0.0,0.0,0.0,0.0,0.0,0.0,0.0,0.0,0.0,0.0,0.0,0.0,0.0,0.0,0.0,0.0,0.0,0.0,0.0,0.0,0.0,0.0,0.0,0.0,0.0,0.0,0.0,0.0,0.0,0.0,0.0,0.0,0.0,0.0,0.0,0.0,0.0,0.0,0.0,0.0,0.0,0.0,0.0,0.0,0.0,0.0,0.0,0.0,0.0,0.0,0.0,0.0,0.0,0.0,0.0,0.0,0.0,0.0,0.0,0.0,0.0,0.0,0.0,0.0,0.0,0.0,0.0,0.0,0.0,0.0,0.0,0.0,0.0,0.0,0.0,0.0,0.0,0.0,0.0,0.0,0.0,0.0,0.0,0.0,0.0,0.0,0.0,0.0,0.0,0.0,0.0,0.0,0.0,0.0,0.0,0.0,0.0,0.0,1.4885,1.5386,1.5809,0.0,1.6216,1.6281,1.6466,1.6337,1.6198,1.6114,0.0,0.0,0.0,0.0,0.0,0.0,0.0,0.0,0.0,0.0,0.0,0.0,0.0,0.0,0.0,0.0,0.0,0.0,0.0,0.0,0.0,0.0,0.0,0.0,0.0,0.0,0.0,0.0,0.0,0.0,0.0,0.0,0.0,0.0,0.0,0.0,0.0,0.0,0.0,0.0,0.0,0.0,0.0,0.0,0.0,0.0,0.0,0.0,0.0,0.0,0.0,0.0,0.0,0.0,0.0,0.0,0.0,0.0,0.0,0.0,0.0,0.0,0.0,0.0,0.0,0.0,0.0,0.0,0.0,0.0,0.0,0.0,0.0,0.0,0.0,0.0,0.0,0.0,0.0,0.0,0.0,0.0,0.0,0.0,0.0,0.0,0.0,0.0,0.0,0.0,0.0,0.0,0.0,0.0,0.0,0.0,0.0,0.0,0.0,0.0,0.0,0.0,1.4006,1.4936,1.5588,1.561,1.561,1.5842,1.6445,1.6019,1.582,0.0,0.0,0.0,0.0,0.0,0.0,0.0,0.0,0.0,0.0,0.0,0.0,0.0,0.0,0.0,0.0,0.0,0.0,0.0,0.0,0.0,0.0,0.0,0.0,0.0,0.0,0.0,0.0,0.0,0.0,0.0,0.0,0.0,0.0,0.0,0.0,0.0,0.0,0.0,0.0,0.0,0.0,0.0,0.0,0.0,0.0,0.0,0.0,0.0,0.0,0.0,0.0,0.0,0.0,0.0,0.0,0.0,0.0,0.0,0.0,0.0,0.0,0.0,0.0,0.0,0.0,0.0,0.0,0.0,0.0,0.0,0.0,0.0,0.0,0.0,0.0,0.0,0.0,0.0,0.0,0.0,0.0,0.0,0.0,0.0,0.0,0.0,0.0,0.0,0.0,0.0,0.0,0.0,0.0,0.0,0.0,0.0,0.0,0.0,0.0,0.0,0.0,0.0,1.3946,1.4583,1.513,1.5543,1.561,1.5842,1.6445,1.635,1.6102,1.5705,0.0,0.0,0.0,0.0,0.0,0.0,0.0,0.0,0.0,0.0,0.0,0.0,0.0,0.0,0.0,0.0,0.0,0.0,0.0,0.0,0.0,0.0,0.0,0.0,0.0,0.0,0.0,0.0,0.0,0.0,0.0,0.0,0.0,0.0,0.0,0.0,0.0,0.0,0.0,0.0,0.0,0.0,0.0,0.0,0.0,0.0,0.0,0.0,0.0,0.0,0.0,0.0,0.0,0.0,0.0,0.0,0.0,0.0,0.0,0.0,0.0,0.0,0.0,0.0,0.0,0.0,0.0,0.0,0.0,0.0,0.0,0.0,0.0,0.0,0.0,0.0,0.0,0.0,0.0,0.0,0.0,0.0,0.0,0.0,0.0,0.0,0.0,0.0,0.0,0.0,0.0,0.0,0.0,0.0,0.0,0.0,0.0,0.0,0.0,0.0,0.0,0.0,1.3527,1.4027,1.4583,1.5186,1.5231,1.5577,1.6423,1.65,1.6198,1.5532,0.0,0.0,0.0,0.0,0.0,0.0,0.0,0.0,0.0,0.0,0.0,0.0,0.0,0.0,0.0,0.0,0.0,0.0,0.0,0.0,0.0,0.0,0.0,0.0,0.0,0.0,0.0,0.0,0.0,0.0,0.0,0.0,0.0,0.0,0.0,0.0,0.0,0.0,0.0,0.0,0.0,0.0,0.0,0.0,0.0,0.0,0.0,0.0,0.0,0.0,0.0,0.0,0.0,0.0,0.0,0.0,0.0,0.0,0.0,0.0,0.0,0.0,0.0,0.0,0.0,0.0,0.0,0.0,0.0,0.0,0.0,0.0,0.0,0.0,0.0,0.0,0.0,0.0,0.0,0.0,0.0,0.0,0.0,0.0,0.0,0.0,0.0,0.0,0.0,0.0,0.0,0.0,0.0,0.0,0.0,0.0,0.0,0.0,0.0,0.0,0.0,0.0,1.288,1.3394,1.3944,1.4537,1.4617,1.5107,1.6315,1.6423,1.6136,1.5488,0.0,0.0,0.0,0.0,0.0,0.0,0.0,0.0,0.0,0.0,0.0,0.0,0.0,0.0,0.0,0.0,0.0,0.0,0.0,0.0,0.0,0.0,0.0,0.0,0.0,0.0,0.0,0.0,0.0,0.0,0.0,0.0,0.0,0.0,0.0,0.0,0.0,0.0,0.0,0.0,0.0,0.0,0.0,0.0,0.0,0.0,0.0,0.0,0.0,0.0,0.0,0.0,0.0,0.0,0.0,0.0,0.0,0.0,0.0,0.0,0.9285,0.9545,0.0,0.0,0.0,0.0,0.0,0.0,0.0,0.0,0.0,0.0,0.0,0.0,0.0,0.0,0.0,0.0,0.0,0.0,0.0,0.0,0.0,0.0,0.0,0.0,0.0,0.0,0.0,0.0,0.0,0.0,0.0,0.0,0.0,0.0,0.0,0.0,0.0,0.0,0.0,0.0,1.2436,1.2835,1.331,1.3944,1.398,1.448,1.5688,1.5798,1.5566,1.5063,1.4591,0.0,0.0,0.0,0.0,0.0,0.0,0.0,0.0,0.0,0.0,0.0,0.0,0.0,0.0,0.0,0.0,0.0,0.0,0.0,0.0,0.0,0.0,0.0,0.0,0.0,0.0,0.0,0.0,0.0,0.0,0.0,0.0,0.0,0.0,0.0,0.0,0.0,0.0,0.0,0.0,0.0,0.0,0.0,0.0,0.0,0.0,0.0,0.0,0.0,0.0,0.0,0.0,0.0,0.0,0.0,0.0,0.0,0.0,0.0,1.0083,1.0463,0.0,0.0,0.0,0.0,0.0,0.0,0.0,0.0,0.0,0.0,0.0,0.0,0.0,0.0,0.0,0.0,0.0,0.0,0.0,0.0,0.0,0.0,0.0,0.0,0.0,0.0,0.0,0.0,0.0,0.0,0.0,0.0,0.0,0.0,0.0,0.0,0.0,0.0,0.0,0.0,1.257,1.2802,1.3128,1.3732,1.3792,1.4167,1.5096,1.5163,1.4949,1.4449,1.4052,0.0,0.0,0.0,0.0,0.0,0.0,0.0,0.0,0.0,0.0,0.0,0.0,0.0,0.0,0.0,0.0,0.0,0.0,0.0,0.0,0.0,0.0,0.0,0.0,0.0,0.0,0.0,0.0,0.0,0.0,0.0,0.0,0.0,0.0,0.0,0.0,0.0,0.0,0.0,0.0,0.0,0.0,0.0,0.0,0.0,0.0,0.0,0.0,0.0,0.0,0.0,0.0,0.0,0.8658,0.887,0.8895,0.9398,0.9546,0.9485,1.0983,1.1393,1.0963,1.0841,0.0,0.0,0.0,0.0,0.0,0.0,0.0,0.0,0.0,0.0,0.0,0.0,0.0,0.0,0.0,0.0,0.0,0.0,0.0,0.0,0.0,0.0,1.1271,1.0288,0.9898,0.9777,0.983,0.0,0.0,0.0,0.0,0.0,0.0,0.0,0.0,0.0,0.0,0.0,1.2591,1.2697,1.2949,1.3576,1.3637,1.3897,1.4491,1.4537,1.436,1.3938,1.3483,1.2892,0.0,0.0,0.0,0.0,0.0,0.0,0.0,0.0,0.0,0.0,0.0,0.0,0.0,0.0,0.0,0.0,0.0,0.0,0.0,0.0,0.0,0.0,0.0,0.0,0.0,0.0,0.0,0.0,0.0,0.0,0.0,0.0,0.1125,0.1803,0.0,0.0,0.0,0.0,0.0,0.0,0.0,0.0,0.0,0.0,0.0,0.0,0.0,0.6995,0.8417,0.8586,0.8945,0.9452,0.9537,0.9559,0.958,1.0004,1.0188,1.0219,1.1309,0.0,1.0091,1.0241,0.0,0.0,0.0,0.0,0.0,0.0,0.0,0.0,0.0,0.0,0.0,0.0,0.0,0.0,0.0,0.0,0.0,0.0,0.0,0.0,0.0,0.0,0.9885,0.917,0.8508,0.8022,0.8032,0.872,0.9188,0.8676,0.8968,0.9412,0.0,0.0,0.0,0.0,0.0,0.0,1.1431,1.1725,1.2227,1.2934,1.3017,1.3262,1.3873,1.3909,1.3926,1.3916,1.3825,1.3312,1.2227,1.1966,0.0,0.0,0.0,0.0,0.0,0.0,0.0,0.0,0.0,0.0,0.0,0.0,0.0,0.0,0.0,0.0,0.0,0.0,0.0,0.0,0.0,0.0,0.0,0.0,0.0,0.0,0.0,0.0,0.0,-0.011,0.0614,0.1226,0.1587,0.2059,0.0,0.0,0.0,0.0,0.0,0.0,0.0,0.0,0.0,0.5251,0.6625,0.7555,0.7943,0.8867,0.9426,0.9715,0.9715,0.9715,0.9708,1.0349,1.0639,1.068,1.1587,1.1659,1.1143,1.1275,1.1845,1.2642,0.0,0.0,0.0,0.0,1.3065,1.2835,1.241,1.2142,1.1846,1.1137,0.0,0.0,0.0,0.0,0.0,0.0,0.0,1.111,1.0088,0.9822,0.964,0.8956,0.8235,0.7589,0.7182,0.7099,0.7212,0.7541,0.8121,0.8777,0.9499,0.9517,0.0,0.0,0.0,1.0751,1.0949,1.1138,1.1375,1.1692,1.1717,1.1832,1.2101,1.2468,1.2681,1.2722,1.3134,1.304,1.2229,1.2153,1.1686,0.0,0.0,0.0,0.0,0.0,0.0,0.0,0.0,0.0,0.0,0.0,0.0,0.0,0.0,0.0,0.0,0.0,0.0,0.0,0.0,0.0,0.0,0.0,0.0,0.0,0.0,0.0,0.0,-0.0833,-0.0322,0.0309,0.0615,0.1196,0.0,0.0,0.0,0.0,0.0,0.0,0.402,0.4873,0.5247,0.5034,0.6826,0.7766,0.767,0.8877,0.962,0.9936,0.9936,0.9936,0.9936,1.045,1.0689,1.074,1.1426,1.1724,1.1778,1.2236,1.2757,1.3208,1.2891,1.3074,1.3575,1.3852,1.3959,1.3863,1.3326,1.314,1.2968,1.2009,1.1541,1.1356,1.1182,0.0,0.0,0.0,0.0,1.0672,0.9974,0.9608,0.9314,0.8822,0.7952,0.7051,0.6504,0.5936,0.5712,0.6468,0.7055,0.7772,0.8822,0.8656,0.0,1.0334,0.0,1.0099,1.0494,1.0542,1.0618,1.0788,1.0788,1.0788,1.0788,1.1266,1.1616,1.1798,1.2358,1.2599,1.2393,1.2262,1.1815,1.1005,0.0,0.0,0.0,0.0,0.0,0.0,0.0,0.0,0.0,0.0,0.0,0.0,0.0,0.0,0.0,0.0,0.0,0.0,0.0,0.0,0.0,0.0,0.0,0.0,0.0,0.0,0.0,0.0,0.0,-0.108,-0.159,0.0,0.0,0.0,0.0,0.1986,0.2883,0.3452,0.3618,0.446,0.5227,0.592,0.6048,0.6943,0.8711,0.8803,0.9439,1.0546,1.0546,1.0546,1.0539,1.0282,1.0154,1.0164,1.0596,1.0764,1.0899,1.2413,1.3416,1.3962,1.3984,1.4415,1.4919,1.4314,1.4086,1.4086,1.4053,1.4036,1.3929,1.3221,1.2488,1.1729,1.0969,1.1185,0.0,0.0,1.0746,1.0556,0.9885,0.9092,0.8463,0.8434,0.7126,0.587,0.5841,0.5669,0.5511,0.5552,0.5607,0.6081,0.7459,0.0,0.8276,0.8768,0.908,0.9398,0.9795,0.9865,1.009,1.0737,1.0788,1.0788,1.0788,1.0838,1.1124,1.1751,1.183,1.215,1.2842,1.2426,1.1969,1.1469,1.0995,0.0,0.0,0.0,0.0,0.0,0.0,0.0,0.0,0.0,0.0,0.0,0.0,0.0,0.0,0.0,0.0,0.0,0.0,0.0,0.0,0.0,0.0,0.0,0.0,0.0,0.0,0.0,0.0,-0.2067,-0.2296,0.0,-0.0817,-0.0838,-0.029,0.1182,0.1692,0.24,0.3526,0.397,0.4575,0.5393,0.6169,0.69,0.7555,0.8701,0.9474,0.9896,1.0386,1.0593,1.0618,1.1019,1.1178,1.1232,1.1895,1.2176,1.2236,1.2789,1.284,1.2532,1.2558,1.2695,1.2878,1.2649,1.2877,1.334,1.334,1.3665,1.397,1.3223,1.2133,1.1146,1.1287,1.0906,1.0458,1.0658,0.9985,0.9169,0.892,0.8216,0.7561,0.7561,0.6737,0.5922,0.5922,0.549,0.51,0.51,0.5321,0.5806,0.6779,0.6669,0.6781,0.7832,0.8136,0.8293,0.8442,0.8863,0.9237,0.9491,0.951,0.951,0.951,0.9917,1.0269,1.0507,1.1316,1.1922,1.2187,1.2498,1.2433,1.1967,1.1532,1.0754,0.0,0.0,0.0,0.0,0.0,0.0,0.0,0.0,0.0,0.0,0.0,0.0,0.0,0.0,0.0,0.0,0.0,0.0,0.0,0.0,0.0,0.0,0.0,0.0,0.0,-0.3693,-0.3558,-0.2998,-0.3246,-0.307,-0.2052,-0.2087,-0.1511,0.0031,0.0498,0.1352,0.2759,0.3528,0.421,0.4788,0.5919,0.6653,0.6965,0.8128,0.8845,0.9146,0.9876,1.0245,1.0271,1.1048,1.1406,1.1406,1.1965,1.2182,1.2182,1.2182,1.1851,1.1377,1.1928,1.213,1.213,1.213,1.2483,1.2948,1.2948,1.3457,1.397,1.2882,1.1871,1.1092,1.129,1.0511,0.9667,1.0096,0.9276,0.8279,0.8279,0.7609,0.6969,0.6969,0.6309,0.5686,0.5686,0.5285,0.4887,0.4887,0.513,0.545,0.5944,0.5785,0.599,0.7177,0.7349,0.7429,0.767,0.8129,0.8348,0.8076,0.8507,0.8699,0.8454,0.9276,0.9788,0.9788,1.0838,1.1466,1.1466,1.2009,1.2125,1.166,1.1113,1.0332,0.9358,0.0,0.0,0.0,0.0,0.0,0.0,0.0,0.0,0.0,0.0,0.0,0.0,0.0,0.0,0.0,0.0,0.0,0.0,0.0,0.0,0.0,0.0,0.0,-0.4498,-0.4634,-0.449,-0.3925,-0.4467,-0.4348,-0.2934,-0.3395,-0.3157,-0.1515,-0.0547,0.0329,0.122,0.3074,0.4137,0.4207,0.5228,0.6162,0.7051,0.7086,0.7544,0.8373,0.9117,0.9477,0.9504,1.0219,1.0556,1.0588,1.0588,1.0588,1.062,1.0613,1.0606,1.0758,1.2313,1.2917,1.2917,1.2917,1.2948,1.2978,1.2978,1.3485,1.3876,1.232,1.1764,1.1586,1.0832,0.9977,0.9274,0.9306,0.8646,0.7962,0.7962,0.7307,0.6654,0.6654,0.5879,0.5106,0.5106,0.4999,0.4904,0.4904,0.4904,0.4897,0.4891,0.538,0.6006,0.672,0.6678,0.0,0.7547,0.7649,0.7396,0.6696,0.791,0.848,0.7803,0.8981,0.9762,0.9762,1.0389,1.0771,1.0771,1.1044,1.1005,1.0606,0.9754,0.9171,0.8925,0.0,0.0,0.0,0.0,0.0,0.0,0.0,0.0,0.0,0.0,0.0,0.0,0.0,0.0,0.0,0.0,0.0,0.0,0.0,0.0,0.0,-0.4668,-0.4655,-0.4655,-0.485,-0.493,-0.475,-0.5041,-0.515,-0.4822,-0.4356,-0.3958,-0.3642,-0.2106,-0.0742,0.0179,0.14,0.2738,0.4138,0.4614,0.5325,0.6294,0.6944,0.7374,0.762,0.8348,0.8696,0.8696,0.8909,0.9395,1.0085,1.0085,1.0497,1.1169,1.0962,1.0875,1.0913,1.1168,1.1264,1.1264,1.1264,1.1624,1.2205,1.2787,1.2757,1.2381,1.195,1.0993,1.0059,1.0491,0.955,0.8484,0.9107,0.8221,0.7046,0.7046,0.64,0.5752,0.5752,0.5522,0.533,0.533,0.53,0.5272,0.5272,0.5272,0.5172,0.4955,0.5031,0.521,0.5419,0.576,0.6093,0.6285,0.6656,0.702,0.7369,0.775,0.8129,0.848,0.885,0.9087,0.9087,0.9718,1.0064,1.0064,1.0597,1.0871,1.0745,0.9883,0.9403,0.0,0.0,0.0,0.0,0.0,0.0,0.0,0.0,0.0,0.0,0.0,0.0,0.0,0.0,0.0,0.0,0.0,0.0,0.0,0.0,0.0,0.0,-0.5802,-0.5823,-0.5472,-0.5237,-0.5123,-0.522,-0.5362,-0.5525,-0.5583,-0.5148,-0.4779,-0.4521,-0.3443,-0.2404,-0.1472,-0.0037,0.1259,0.239,0.3411,0.4396,0.5433,0.595,0.6441,0.69,0.7597,0.7928,0.7964,0.8266,0.8719,0.9278,0.9278,0.9597,1.0146,0.9963,1.0175,1.0547,0.0,0.0,0.0,0.0,1.1108,1.1834,1.1934,1.1903,1.1679,1.0993,1.0085,0.9338,0.9454,0.8538,0.7567,0.8059,0.7214,0.6141,0.6141,0.5782,0.5395,0.5395,0.5395,0.5395,0.5395,0.5395,0.5395,0.5395,0.5395,0.0,0.5135,0.505,0.5099,0.5404,0.5445,0.5514,0.5756,0.6075,0.6303,0.6349,0.688,0.7289,0.7412,0.7972,0.0,0.0,0.0,0.8814,0.8641,0.9003,0.0,0.0,0.0,0.0,0.0,0.0,0.0,0.0,0.8592,0.8792,0.0,0.0,0.0,0.0,0.0,0.0,0.0,0.0,0.0,0.0,0.0,0.0,0.0,0.0,0.0,0.0,-0.7455,-0.7451,-0.6723,-0.597,-0.5456,-0.5439,-0.5542,-0.5603,-0.5637,-0.5752,-0.5505,-0.4751,-0.4605,-0.4174,-0.333,-0.1399,0.0,0.0,0.0,0.3278,0.4331,0.445,0.504,0.6138,0.6704,0.7072,0.7216,0.7848,0.8229,0.8335,0.8335,0.8406,0.8508,0.8453,0.895,0.9794,1.0288,1.0493,1.0466,1.0466,1.0982,1.1555,1.0737,0.0,0.0,0.9676,0.9121,0.8895,0.8261,0.7377,0.6614,0.6692,0.6102,0.5416,0.5399,0.5395,0.5395,0.5395,0.5329,0.5226,0.5226,0.516,0.509,0.509,0.509,0.509,0.509,0.5117,0.5311,0.5871,0.5368,0.5069,0.5502,0.5562,0.5311,0.4723,0.5586,0.0,0.5651,0.6704,0.7138,0.6637,0.7149,0.7329,0.6965,0.6954,0.6954,0.6954,0.6954,0.6837,0.6588,0.6669,0.7074,0.7706,0.8431,0.8897,0.0,0.0,0.0,0.0,0.0,0.0,0.0,0.0,0.0,0.0,0.0,0.0,0.0,0.0,0.0,-0.7547,-0.7655,-0.7776,-0.7976,-0.786,-0.721,-0.5744,-0.5572,-0.5684,-0.5885,-0.5932,-0.5962,-0.5968,-0.5163,-0.4591,-0.4383,-0.3179,-0.2133,-0.1322,-0.0078,0.1129,0.2177,0.3002,0.3943,0.5002,0.5126,0.0,0.6517,0.6638,0.7147,0.7932,0.7932,0.8384,0.9112,0.8848,0.8699,0.8763,0.9556,0.975,0.9562,0.9562,1.0104,1.0706,0.9849,0.9652,0.965,0.8711,0.7928,0.7484,0.8127,0.7207,0.0,0.6686,0.6249,0.5552,0.5426,0.5395,0.5395,0.5395,0.4821,0.4284,0.4284,0.3713,0.3211,0.3211,0.3211,0.3211,0.3211,0.4397,0.5147,0.4509,0.4794,0.4854,0.4253,0.4102,0.4404,0.5437,0.4588,0.4614,0.6253,0.609,0.6108,0.6561,0.6718,0.6746,0.6679,0.6679,0.6679,0.6679,0.6679,0.6645,0.6588,0.7208,0.7563,0.7691,0.7852,0.8281,0.0,0.0,0.0,0.0,0.0,0.0,0.0,0.0,0.0,0.0,0.0,-0.6829,0.0,0.0,-0.8216,-0.9029,-0.9263,-0.932,-0.9264,-0.9252,-0.8732,-0.7355,-0.7306,-0.7404,-0.7552,-0.7139,-0.6927,-0.7053,-0.6093,-0.5512,-0.5512,-0.4491,-0.3667,-0.3154,-0.2103,-0.1051,0.0,0.1012,0.2103,0.3154,0.3667,0.4178,0.4688,0.4688,0.4955,0.5449,0.5449,0.5752,0.6238,0.6568,0.6593,0.6527,0.7469,0.823,0.8766,0.8766,0.8984,0.9224,0.8807,0.8695,0.8618,0.7822,0.731,0.7028,0.708,0.6504,0.5893,0.6233,0.5985,0.5469,0.4941,0.4739,0.4586,0.4151,0.3682,0.3347,0.3347,0.3011,0.2711,0.2711,0.2711,0.2711,0.2711,0.3447,0.3882,0.3413,0.3668,0.3716,0.3215,0.3097,0.3294,0.3922,0.324,0.3187,0.4298,0.4418,0.4765,0.5496,0.5555,0.5555,0.5555,0.5555,0.5555,0.5555,0.5555,0.5555,0.5555,0.5932,0.6281,0.6605,0.6988,0.7815,0.0,0.0,0.0,0.0,0.0,0.0,0.0,0.0,-0.7525,-0.6345,-0.6418,-0.7012,-0.8066,-0.8484,-0.9115,-1.0461,-1.0889,-1.0941,-1.0524,-1.0463,-1.0224,-0.9556,-0.9268,-0.9124,-0.9133,-0.8515,-0.8084,-0.8084,-0.7176,-0.6606,-0.6606,-0.5586,-0.5002,-0.5002,-0.3984,-0.3041,-0.2216,-0.1129,-0.0078,0.0971,0.1791,0.2299,0.2493,0.2493,0.2493,0.2493,0.2493,0.2493,0.2571,0.3608,0.3874,0.3741,0.4975,0.6038,0.6932,0.7671,0.7954,0.7967,0.7849,0.7845,0.7802,0.6991,0.68,0.6745,0.6096,0.5742,0.5586,0.5557,0.5309,0.4882,0.4122,0.3827,0.358,0.2878,0.2577,0.2444,0.2444,0.231,0.2178,0.2178,0.2178,0.2178,0.2178,0.2178,0.2243,0.241,0.2577,0.2591,0.2308,0.2259,0.2262,0.2268,0.1973,0.182,0.1968,0.2858,0.3649,0.4239,0.4432,0.4491,0.4491,0.4491,0.4491,0.4491,0.4491,0.4505,0.4535,0.4639,0.501,0.5624,0.6334,0.7494,-0.8214,-0.8004,-0.7158,-0.6019,-0.642,-0.6705,0.0,0.0,-0.6045,-0.5224,-0.5102,-0.5677,-0.745,-0.8043,-0.8861,-1.066,-1.1189,-1.1449,-1.1671,-1.1711,-1.1768,-1.1872,-1.0239,-0.9149,-0.9278,-0.9205,-0.9145,-0.9145,-0.8199,-0.7629,-0.7629,-0.6676,-0.6103,-0.6103,-0.5079,-0.4453,-0.437,-0.3278,-0.226,-0.1243,-0.1127,-0.0582,0.0349,0.0349,0.0349,0.0349,0.0349,0.0349,0.0426,0.1513,0.1355,0.0694,0.2674,0.2859,0.2469,0.5811,0.745,0.7894,0.7252,0.7022,0.6958,0.6324,0.6101,0.6142,0.6207,0.5582,0.4783,0.4675,0.3942,0.3164,0.2914,0.287,0.2811,0.2711,0.2076,0.1441,0.1441,0.084,0.0303,0.0303,0.0303,0.0303,0.0303,0.0303,0.0572,0.1341,0.2177,0.2407,0.1535,0.1437,0.1703,0.2401,0.1126,0.0518,0.1177,0.2568,0.3423,0.3519,0.4125,0.4491,0.4491,0.4491,0.4491,0.4491,0.4491,0.4556,0.4692,0.5159,0.5579,0.5956,0.6592,0.7397,-0.722,-0.7113,-0.669,0.0,-0.5965,-0.6114,-0.5591,-0.5805,-0.5898,-0.5165,-0.5114,-0.5603,-0.6994,-0.7819,-0.8836,0.0,-1.1248,-1.1784,-1.2084,-1.2124,-1.2164,-1.2285,-1.1519,-1.0979,-1.105,-1.0533,-1.0153,-1.0153,-0.9253,-0.8656,-0.8656,-0.8275,-0.8046,-0.8046,-0.7042,-0.6503,-0.6503,-0.4874,-0.3824,-0.3389,-0.2765,-0.2218,-0.1789,-0.1789,-0.1789,-0.1789,-0.1789,-0.1789,-0.175,-0.1323,-0.105,-0.0853,0.0039,0.0383,0.0782,0.355,0.472,0.4859,0.4569,0.4492,0.4533,0.4264,0.4258,0.4315,0.4399,0.4139,0.374,0.3701,0.3293,0.2753,0.2221,0.159,0.1002,0.0501,-0.0334,-0.1037,-0.1037,-0.1307,-0.1576,-0.1576,-0.1576,-0.1576,-0.1576,-0.1576,-0.1274,-0.0335,0.0537,0.0974,0.0605,0.0533,0.0661,0.1024,0.0419,0.0284,0.1025,0.1676,0.2247,0.2689,0.3422,0.3872,0.3872,0.4281,0.4491,0.4491,0.458,0.4655,0.4691,0.5002,0.5229,0.5366,0.6058,0.6643,-0.6713,0.0,0.0,-0.569,-0.5567,-0.5634,-0.5734,-0.586,-0.5826,-0.5289,-0.5284,-0.5703,-0.6703,-0.7792,-0.8917,-1.0188,-1.1308,-1.2094,-1.2271,-1.2305,-1.2305,-1.2305,-1.2305,-1.2305,-1.2305,-1.1657,-1.1229,-1.1346,-1.0409,-0.9877,-0.994,-0.9614,-0.9425,-0.9425,-0.8702,-0.8317,-0.8317,-0.6915,-0.6228,-0.6228,-0.5429,-0.5072,-0.5069,-0.4961,-0.4888,-0.482,-0.482,-0.482,-0.4781,-0.4203,-0.3693,-0.3221,-0.2371,-0.1768,-0.1209,0.0569,0.1489,0.1846,0.1896,0.1961,0.2032,0.2085,0.2151,0.2257,0.2257,0.2025,0.1792,0.1792,0.1543,0.1159,0.0508,-0.0174,-0.0902,-0.154,-0.221,-0.2711,-0.2711,-0.2711,-0.2711,-0.2711,-0.2711,-0.2711,-0.2711,-0.2477,-0.2075,-0.1407,-0.0572,0.0,0.0,0.0,0.0,0.0,0.0,0.0228,0.0741,0.0979,0.1335,0.1875,0.2645,0.3057,0.3057,0.3831,0.4241,0.4241,0.4581,0.4772,0.4813,0.4884,0.4962,0.504,0.5544,0.5883,0.0,0.0,-0.5665,-0.5081,-0.5016,-0.5118,-0.5121,-0.5276,-0.5418,-0.5388,-0.5392,-0.5703,-0.6703,-0.7944,-0.9138,-1.0217,-1.1467,-1.2291,-1.2305,-1.2305,-1.2305,-1.2305,-1.2305,-1.2305,0.0,-1.2268,-1.2388,-1.2712,-1.1761,-1.1294,-1.1626,-1.0408,-0.9693,-0.9693,-0.9654,-0.9654,-0.9654,-0.9907,-1.0014,-1.0014,-1.0014,-0.9974,-0.9963,-0.9632,-0.9339,-0.9102,-0.9102,-0.9102,-0.895,-0.6938,-0.672,-0.731,-0.4247,-0.3667,-0.4445,-0.3315,-0.1807,-0.0288,-0.0148,-0.0112,-0.0075,0.0038,0.0077,0.0077,0.0077,-0.062,-0.1437,-0.1437,-0.2069,-0.2723,-0.2759,-0.2687,-0.2609,-0.2644,-0.2678,-0.2711,-0.2711,-0.2711,-0.2711,-0.2711,-0.2711,-0.2711,-0.2711,-0.1941,-0.134,-0.1307,-0.0572,0.0,0.0,0.0,0.0,0.0,0.0,0.0,0.0032,0.0676,0.1112,0.1141,0.1811,0.2239,0.2239,0.3125,0.3615,0.3615,0.4448,0.4948,0.5083,0.4955,0.5067,0.5378,0.5192,0.5238,-0.6459,0.0,-0.5793,-0.5175,-0.5063,-0.5127,-0.526,-0.5358,-0.5395,-0.5395,-0.5848,-0.6386,-0.6835,-0.8403,-0.9828,-1.0324,-1.1479,-1.2305,-1.2305,-1.2305,-1.2305,-1.2305,-1.2305,0.0,0.0,0.0,-1.2425,-1.2764,-1.2471,-1.2408,-1.2665,-1.2266,-1.2012,-1.2012,-1.1373,-1.105,-1.105,-1.0487,-1.0201,-1.0201,-0.9966,-0.9855,-0.985,-0.9586,-0.9367,-0.9296,-0.9296,-0.9296,-0.9258,-0.8561,-0.8485,-0.8689,-0.7634,-0.7443,-0.7647,-0.6608,-0.5841,-0.4994,-0.287,-0.2115,-0.2117,-0.2057,-0.2062,-0.2062,-0.2062,-0.2297,-0.2611,-0.2611,-0.2751,-0.2904,-0.2904,-0.3244,-0.358,-0.358,-0.4048,-0.4486,-0.4486,-0.4486,-0.4486,-0.4486,-0.4486,-0.4284,-0.368,-0.3311,-0.2678,-0.1474,-0.0572,0.0,0.0,0.0,0.0,0.0,0.0,0.0,0.0,0.0233,0.0363,0.036,0.1059,0.1458,0.1458,0.2236,0.2979,0.3592,0.3973,0.4476,0.51,0.5186,0.5296,0.5392,0.5341,0.5344,-0.6162,-0.5816,-0.5612,-0.5272,-0.5213,-0.524,-0.5371,-0.5395,-0.5395,-0.5395,-0.6108,-0.6746,-0.6869,-0.8583,-1.0042,-1.0348,-1.1397,-1.2218,-1.2432,-1.2371,-1.2345,-1.2445,-1.2365,-1.2345,0.0,0.0,0.0,-1.2924,-1.2951,-1.3093,-1.35,-1.3427,-1.3327,-1.3327,-1.2705,-1.2376,-1.2376,-1.1852,-1.1606,-1.1606,-1.1358,-1.1192,-1.1101,-1.0903,-1.0727,-1.0557,-1.0557,-1.0468,-1.0351,-0.997,-0.982,-0.982,-0.9448,-0.9296,-0.9221,-0.858,-0.8351,-0.7927,-0.5181,-0.4256,-0.4256,-0.4256,-0.4256,-0.4256,-0.4256,-0.4256,-0.4256,-0.4256,-0.4138,-0.4008,-0.4008,-0.4282,-0.4588,-0.4588,-0.4992,-0.5395,-0.5395,-0.5395,-0.5292,-0.4957,-0.4891,-0.4619,-0.368,-0.3247,-0.2544,-0.104,-0.037,0.0,0.0,0.0,0.0,0.0,0.0,0.0,0.0,0.0,0.0,0.0,0.043,0.072,0.072,0.1475,0.2315,0.3265,0.3675,0.4296,0.5213,0.5347,0.5395,0.5395,0.5395,0.5395,-0.6096,-0.5635,-0.5147,-0.5358,-0.5395,-0.5395,-0.5395,-0.5395,-0.5395,-0.5395,-0.6141,-0.6803,0.0,0.0,-0.9928,-1.0361,-1.1274,-1.2127,-1.2703,-1.2543,-1.2438,0.0,0.0,0.0,0.0,0.0,0.0,-1.3213,-1.3233,-1.3487,-1.4055,-1.378,-1.3626,-1.3626,-1.3626,-1.3626,-1.3626,-1.3948,-1.4088,-1.4088,-1.4075,-1.3915,-1.36,-1.3586,-1.3307,-1.2804,-1.279,-1.2623,-1.2251,-1.1279,-1.0901,-1.0783,-0.982,-0.9448,-0.9448,-0.941,-0.9372,-0.9107,-0.7138,-0.6416,-0.6377,-0.6377,-0.6338,-0.63,-0.63,-0.63,-0.63,-0.63,-0.6149,-0.5993,-0.5993,-0.5817,-0.5599,-0.5593,-0.5518,-0.5412,-0.5399,-0.5405,-0.5143,-0.4184,-0.3915,-0.3613,-0.2778,-0.1842,-0.0939,-0.0135,0.0,0.0,0.0,0.0,0.0,0.0,0.0,0.0,0.0,0.0,0.0,0.0,0.0,0.0,0.0,0.0806,0.1675,0.2611,0.348,0.4384,0.5329,0.5362,0.5395,0.5395,0.5395,0.5395,-0.5514,-0.5342,-0.5344,-0.5385,-0.5395,-0.5395,-0.5395,-0.5395,-0.5395,-0.5395,-0.6597,-0.7603,0.0,0.0,0.0,-1.0845,-1.1622,0.0,-1.273,-1.2717,0.0,-1.3053,0.0,-1.3006,-1.3086,-1.3093,0.0,-1.3467,-1.3493,-1.3653,-1.4068,-1.4015,-1.3975,-1.3975,-1.3975,-1.3975,-1.3975,-1.4048,-1.4088,-1.4082,-1.3861,-1.3673,-1.3593,-1.338,-1.324,-1.308,-1.2884,-1.2737,-1.2612,-1.2125,-1.1922,-1.1885,-1.1626,-1.1552,-1.1434,-1.0677,-1.0415,-1.0228,-0.8993,-0.8046,-0.7403,-0.7403,-0.6911,-0.63,-0.63,-0.63,-0.63,-0.63,-0.6149,-0.5993,-0.5993,-0.5888,-0.5722,-0.5613,-0.564,-0.563,-0.5443,-0.5569,-0.5376,-0.4216,-0.2911,-0.1908,-0.1708,-0.0906,-0.0269,-0.0034,0.0,0.0,0.0,0.0,0.0,0.0,0.0,0.0,0.0,0.0,0.0,0.0,0.0,0.0,0.0,0.0202,0.0739,0.1641,0.2577,0.348,0.435,0.5057,0.5395,0.5395,0.5395,0.5395,-0.531,-0.5327,-0.5395,-0.5395,-0.5395,-0.5378,-0.5277,-0.5517,-0.5722,-0.5683,-0.7016,0.0,-0.7928,-0.9208,0.0,0.0,0.0,0.0,-1.2215,-1.2595,-1.2945,0.0,-1.3287,0.0,-1.3347,-1.336,-1.348,-1.3814,-1.3673,-1.3733,-1.4075,-1.4088,-1.4328,-1.4776,-1.4334,-1.4334,-1.4817,-1.5262,-1.5511,-1.5511,-1.5327,-1.5238,-1.519,-1.4569,-1.4492,-1.4769,-1.3496,-1.3174,-1.3433,-1.2641,-1.2305,-1.2305,-1.2305,-1.2305,-1.2224,-1.1657,-1.1465,-1.1391,-1.0795,-0.997,-0.9059,-0.8613,-0.8089,-0.7629,-0.7629,-0.7326,-0.6945,-0.6945,-0.6576,-0.6132,-0.6132,-0.6017,-0.5881,-0.58,-0.5793,-0.5755,-0.5624,-0.5684,-0.55,-0.4429,-0.3023,-0.1876,-0.1502,-0.0948,-0.0437,-0.0067,0.0,0.0,0.0,0.0,0.0,0.0,0.0,0.0,0.0,0.0,0.0,0.0,0.0,0.0,0.0,0.0,0.0404,0.1273,0.1809,0.2711,0.4015,0.4519,0.499,0.5395,0.5395,0.5395,-0.5358,-0.5395,-0.5395,-0.5395,-0.5395,-0.5387,-0.5258,-0.5754,-0.62,-0.6147,0.0,-0.8375,-0.834,-0.8722,-0.9119,-0.9377,0.0,-1.0653,-1.156,-1.2375,-1.3072,-1.3586,-1.348,-1.3427,-1.3633,-1.366,-1.3808,-1.4068,-1.3848,-1.3773,-1.4075,-1.425,-1.4817,-1.5861,-1.5019,-1.4977,-1.5902,-1.6846,-1.7302,-1.7302,-1.7302,-1.7302,-1.7253,-1.6355,-1.6305,-1.6822,-1.4626,-1.404,-1.4531,-1.3283,-1.2657,-1.2482,-1.2482,-1.2409,-1.2305,-1.2305,-1.2305,-1.2305,-1.2305,-1.1731,-1.0826,-0.982,-0.941,-0.9296,-0.9296,-0.8689,-0.8012,-0.8012,-0.7288,-0.6528,-0.6679,-0.6388,-0.6054,-0.6179,-0.6016,-0.585,-0.581,-0.5692,-0.5404,-0.4659,-0.3677,-0.2702,-0.1931,-0.1648,-0.1214,-0.0339,-0.0203,-0.0135,0.0,0.0,0.0,0.0,0.0,0.0,0.0,0.0,0.0,0.0,0.0,0.0,0.0,0.0,0.037,0.1106,0.124,0.2143,0.3813,0.3949,0.4486,0.5395,0.5395,0.5395,-0.5388,-0.5395,-0.5395,-0.5395,-0.5395,-0.5515,-0.5919,-0.6096,0.0,0.0,-0.7709,-0.8323,-0.8051,-0.9239,-1.0021,-0.9201,0.0,0.0,0.0,0.0,-1.3353,0.0,0.0,0.0,-1.4008,-1.4008,0.0,-1.4082,-1.4041,-1.4035,-1.4082,-1.4936,-1.591,-1.6968,-1.6854,-1.6813,-1.7009,-1.7212,-1.7302,-1.7302,-1.7302,-1.7302,-1.7293,-1.709,-1.7098,-1.7178,-1.6531,-1.6128,-1.584,-1.538,-1.4519,-1.3455,-1.3455,-1.2989,-1.2305,-1.2305,-1.2305,-1.2305,-1.2305,-1.2187,-1.1885,-1.0864,-0.9965,-0.9296,-0.9296,-0.9183,-0.9031,-0.9031,-0.8313,-0.7744,-0.858,-0.7532,-0.6416,-0.7092,-0.6701,-0.6149,-0.5857,-0.5219,-0.4703,-0.4657,-0.3814,-0.3031,-0.2849,-0.2717,-0.2322,-0.1458,-0.1192,-0.0806,-0.0101,0.0,0.0,0.0,0.0,0.0,0.0,0.0,0.0,0.0,0.0,0.0,0.0,0.0,0.0067,0.0236,0.094,0.1842,0.2911,0.3647,0.4486,0.5395,0.5395,0.5395,-0.5395,-0.5395,-0.5395,-0.5395,-0.5395,-0.5527,-0.5996,0.0,0.0,0.0,-0.8059,-0.8552,-0.8394,0.0,0.0,0.0,0.0,0.0,0.0,0.0,0.0,0.0,0.0,0.0,0.0,-1.4088,-1.4088,-1.4088,-1.4088,-1.4088,-1.4088,-1.5137,-1.5944,-1.6437,-1.7577,-1.8189,-1.8189,-1.8749,-1.9027,-1.9027,-1.9027,-1.9027,-1.8988,-1.843,-1.851,-1.8912,-1.674,-1.6008,-1.6178,-1.4602,-1.3587,-1.2989,-1.2989,-1.2703,-1.2305,-1.2305,-1.2305,-1.2305,-1.2305,-1.2305,-1.2224,-1.1731,-1.1242,-1.0875,-1.0875,-1.0496,-1.0078,-1.0078,-0.9367,-0.8689,-0.9183,-0.8199,-0.7191,-0.7555,-0.6962,-0.6259,-0.6108,-0.5738,-0.5451,-0.5518,-0.5044,-0.4478,-0.3997,-0.3837,-0.3258,-0.182,-0.152,-0.1092,-0.0135,0.0,0.0,0.0,0.0,0.0,0.0,0.0,0.0,0.0,0.0,0.0,0.0,0.0,0.0,0.0,0.0404,0.1308,0.2711,0.3111,0.4048,0.5395,0.5395,0.5395,-0.5719,-0.5686,-0.562,-0.5462,-0.5395,-0.5542,-0.6106,-0.6678,0.0,0.0,-0.8501,-0.8982,-0.8831,0.0,0.0,0.0,0.0,0.0,0.0,0.0,0.0,0.0,0.0,0.0,-1.4088,-1.4088,0.0,-1.4088,-1.4088,-1.4208,-1.4454,-1.5462,-1.615,-1.6388,-1.8301,-1.9362,-1.9362,-2.0167,-2.0605,-2.0605,-2.0605,-2.0605,-2.0566,-1.9726,-1.9678,-2.008,-1.726,-1.6261,-1.6527,-1.4372,-1.3286,-1.2908,-1.2696,-1.2482,-1.2305,-1.2305,-1.2305,-1.2305,-1.2305,-1.2305,-1.2305,-1.2305,-1.2305,-1.2305,-1.2305,-1.1583,-1.0783,-1.0783,-0.9927,-0.9031,-0.9258,-0.8389,-0.748,-0.748,-0.6872,-0.63,-0.63,-0.63,-0.63,-0.63,-0.6162,-0.5852,-0.5165,-0.4905,-0.4174,-0.2208,-0.1901,-0.1422,-0.017,0.0,0.0,0.0,0.0,0.0,0.0,0.0,0.0,0.0,0.0,0.0,0.0,0.0,0.0,0.0,0.0,0.0908,0.2711,0.2711,0.3613,0.5395,0.5395,0.5412,-0.6785,-0.6593,-0.6396,-0.5591,-0.5395,-0.5669,-0.674,0.0,0.0,-0.8489,-0.923,-0.951,-0.891,-0.951,0.0,0.0,0.0,-1.0567,0.0,0.0,0.0,0.0,0.0,0.0,-1.4088,-1.4088,-1.4088,-1.4088,-1.4088,-1.4531,-1.5496,-1.656,-1.7617,-1.8669,-1.9844,-2.044,-2.044,-2.0557,-2.0605,-2.0605,-2.0605,-2.0605,-2.0605,-2.0489,-1.9962,-1.9195,-1.9798,-1.9106,-1.758,-1.7434,-1.6426,-1.4843,-1.3918,-1.3062,-1.2305,-1.2305,-1.2305,-1.2305,-1.2305,-1.2305,-1.2305,-1.2305,-1.2305,-1.2305,-1.2305,-1.1583,-1.0783,-1.0783,-0.9399,-0.8161,-0.9069,-0.7859,-0.6451,-0.6451,-0.6377,-0.63,-0.63,-0.63,-0.63,-0.63,-0.6289,-0.6237,-0.616,-0.5995,-0.5216,-0.3261,-0.2844,-0.2094,-0.0245,0.0,0.0,0.0,0.0,0.0,0.0,0.0,0.0,0.0,0.0,0.0,0.0,0.0,0.0,0.0,0.0,0.0908,0.2711,0.2711,0.3613,0.5395,0.5395,0.547,-0.7626,-0.7111,-0.6752,-0.692,-0.6416,-0.6326,-0.8095,0.0,-0.8571,-0.9765,-0.9891,-0.984,-0.9987,-0.9671,-0.9507,-0.9807,-1.0394,-1.0881,-1.1137,0.0,0.0,0.0,0.0,0.0,0.0,0.0,-1.437,-1.5012,-1.567,-1.6198,-1.6642,-1.6478,-1.7172,-1.8957,-1.9402,-1.9962,-2.0605,-2.0605,-2.0605,-2.0605,-2.0605,-2.0605,-2.0605,-2.0605,-2.0362,-1.9952,-1.9532,-1.8887,-1.8053,-1.6442,-1.5388,-1.4603,-1.3353,-1.2629,-1.2305,-1.2305,-1.2305,-1.2305,-1.2305,-1.2305,-1.2305,-1.2305,-1.2305,-1.2305,-1.2305,-1.1583,-1.0783,-1.0783,-0.9777,-0.8803,-0.9183,-0.8275,-0.7061,-0.6451,-0.63,-0.63,-0.63,-0.63,-0.63,-0.63,-0.63,-0.63,-0.63,-0.6248,-0.5714,-0.4267,-0.3485,-0.2534,-0.1125,-0.0382,0.0,0.0,0.0,0.0,0.0,0.0,0.0,0.0,0.0,0.0,0.0,0.0,0.0,0.0,0.0,0.0908,0.2711,0.2711,0.3613,0.5395,0.5491,0.5532,-0.8717,-0.7997,-0.7567,-0.7897,-0.7431,-0.7327,0.0,-0.9357,-0.9573,-1.0598,-1.0593,-1.0491,-1.0745,-1.0185,-0.9948,-1.0748,-1.1056,-1.1388,-1.1918,-1.288,0.0,0.0,0.0,-1.4761,-1.5884,-1.5403,-1.5345,-1.6108,-1.6887,-1.7464,-1.7779,-1.709,-1.7407,-1.8957,-1.9323,-1.9844,-2.0605,-2.0605,-2.0605,-2.0605,-2.0605,-2.0605,-2.0605,-2.0605,-2.045,-2.006,-1.9276,-1.8745,-1.8269,-1.6271,-1.5362,-1.5057,-1.3541,-1.2852,-1.2666,-1.2409,-1.2305,-1.2305,-1.2305,-1.2305,-1.2305,-1.2305,-1.2305,-1.2305,-1.2305,-1.1397,-1.0378,-1.0378,-0.9399,-0.8428,-0.8428,-0.7897,-0.7176,-0.6454,-0.63,-0.63,-0.63,-0.63,-0.63,-0.63,-0.63,-0.63,-0.63,-0.63,-0.5947,-0.4849,-0.3787,-0.275,-0.1743,-0.0669,0.0,0.0,0.0,0.0,0.0,0.0,0.0,0.0,0.0,0.0,0.0,0.0,0.0,0.0,0.0,0.0908,0.2711,0.2733,0.3693,0.5467,0.5583,0.5677,-1.0197,-0.9519,-0.9075,-0.8221,-0.8238,-0.8648,0.0,-0.9708,-1.015,-1.0701,-1.1316,-1.1591,-1.0914,-1.1341,-1.1664,-1.1361,-1.1636,-1.2254,-1.3232,-1.4032,0.0,0.0,0.0,-1.6146,-1.6622,-1.7039,-1.7253,-1.7302,-1.7293,-1.7787,-1.8917,-1.8957,-1.8997,-1.8997,-2.004,-2.0605,-2.0605,-2.0605,-2.0605,-2.0605,-2.0605,-2.0605,-2.0605,-2.0605,-2.0001,-1.9058,-1.9631,-1.9288,-1.8296,-1.7975,-1.7578,-1.7,-1.5118,-1.4103,-1.3564,-1.2622,-1.2305,-1.2305,-1.2305,-1.2305,-1.2305,-1.2305,-1.2305,-1.2305,-1.2305,-1.0913,-0.9334,-0.9334,-0.7859,-0.6338,-0.6338,-0.6338,-0.63,-0.63,-0.63,-0.63,-0.63,-0.63,-0.63,-0.63,-0.63,-0.63,-0.63,-0.63,-0.5944,-0.4844,-0.3791,-0.273,-0.1714,-0.0677,0.0,0.0,0.0,0.0,0.0,0.0,0.0,0.0,0.0,0.0,0.0,0.0,0.0,0.0,0.0,0.0908,0.2711,0.2823,0.3837,0.5593,0.5732,0.5881,-1.1927,-1.0892,-1.0116,-1.044,-1.0014,-0.9841,-1.1106,-1.1313,-1.1421,-1.2101,-1.2005,-1.1898,-1.2172,-1.1609,-1.1516,-1.2673,-1.3067,0.0,0.0,0.0,0.0,-1.5718,-1.7111,-1.779,0.0,-1.8589,-1.9234,-1.8519,-1.9155,-1.9717,-2.0079,-2.0079,-2.0079,-2.0079,-2.0401,-2.0605,-2.0605,-2.0605,-2.0605,-2.0605,-2.0605,-2.0605,-2.0605,-2.0605,-2.0401,-2.0109,-2.0304,-2.0198,-1.9783,-1.8442,-1.7815,-1.7504,-1.568,-1.4444,-1.3673,-1.3382,-1.2842,-1.2305,-1.2305,-1.2305,-1.2305,-1.2305,-1.2305,-1.2305,-1.2305,-1.1397,-1.019,-0.9485,-0.8351,-0.7326,-0.7326,-0.6834,-0.63,-0.63,-0.63,-0.63,-0.63,-0.63,-0.63,-0.63,-0.63,-0.63,-0.63,-0.63,-0.618,-0.5828,-0.4269,-0.2969,-0.2666,-0.1084,0.0,0.0,0.0,0.0,0.0,0.0,0.0,0.0,0.0,0.0,0.0,0.0,0.0,0.0,0.0,0.0908,0.2711,0.2823,0.3909,0.5891,0.5899,0.604,0.0,-1.2538,-1.1693,-1.225,-1.1951,-1.18,-1.277,-1.2773,-1.2682,-1.3132,-1.2686,-1.2369,-1.2822,-1.2181,-1.1983,-1.3147,-1.3662,-1.4116,0.0,0.0,0.0,-1.6599,0.0,0.0,-1.8108,-1.9617,-2.0323,-1.9638,-2.0206,-2.0605,-2.0605,-2.0605,-2.0605,-2.0605,-2.0605,-2.0527,-2.0322,-2.0517,-2.0517,-2.0322,-2.0527,-2.0605,-2.0605,-2.0605,-2.0605,-2.0595,-2.0391,-2.0361,0.0,-1.8966,-1.8331,-1.8026,-1.6526,-1.5493,-1.4764,-1.4414,-1.3918,-1.3339,-1.2952,-1.2842,-1.2769,-1.2409,-1.2305,-1.2305,-1.2305,-1.1583,-1.0596,-0.9599,-0.8841,-0.8275,-0.7897,-0.7326,-0.6756,-0.6377,-0.63,-0.63,-0.63,-0.63,-0.63,-0.63,-0.63,-0.63,-0.63,-0.63,-0.63,-0.63,-0.4805,-0.3683,-0.3651,-0.1853,-0.0579,-0.0499,-0.018,0.0,0.0,0.0,0.0,0.0,0.0,0.0,0.0,0.0,0.0,0.0,0.0,0.0706,0.2177,0.3059,0.4398,0.6115,0.6115,0.6169,0.0,0.0,0.0,0.0,-1.3881,-1.4142,-1.4142,-1.3958,0.0,-1.3792,-1.3324,-1.2915,-1.2944,-1.2925,-1.2935,-1.3023,-1.3672,-1.4445,0.0,-1.621,0.0,0.0,-1.8779,0.0,-1.9326,-2.0067,-2.0566,-2.0634,-2.0604,-2.0623,-2.07,-2.0623,-2.0585,-2.0585,-2.0546,-2.0341,-1.9961,-2.0332,-2.0312,-1.9922,-2.0293,-2.0507,-2.0507,-2.0507,-2.0507,-2.0488,-2.0049,-1.9873,-1.9834,-1.9414,-1.9004,-1.8527,-1.7619,-1.6971,-1.6489,-1.5623,-1.5269,-1.5057,-1.4135,-1.3818,-1.3637,-1.2696,-1.2342,-1.2305,-1.2305,-1.1657,-1.0714,-0.9782,-0.9448,-0.9183,-0.8275,-0.7897,-0.7553,-0.6641,-0.6338,-0.63,-0.63,-0.63,-0.63,-0.63,-0.63,-0.63,-0.63,-0.63,-0.63,-0.63,-0.5392,-0.4645,-0.4533,-0.28,-0.153,-0.1345,-0.0547,0.0,0.0,0.0,0.0,0.0,0.0,0.0,0.0,0.0,0.0,0.0,0.0068,0.0539,0.1412,0.3499,0.5132,0.6282,0.6293,0.63,-1.8062,0.0,-1.5038,-1.5038,-1.4796,-1.4565,0.0,-1.4161,-1.3792,0.0,0.0,0.0,-1.3301,-1.3096,-1.3228,-1.4206,-1.4502,-1.4932,-1.5821,0.0,0.0,-1.8393,-1.8965,-1.9414,-1.9736,-1.9658,-2.0004,-2.0974,-2.0761,-2.0891,-2.1549,-2.0963,-2.0612,-2.0612,-1.9939,-1.9853,-2.0449,-2.0185,-2.0019,-1.9912,-1.9687,-1.9627,-1.9627,-1.9627,-1.9627,-1.958,-1.9482,-1.9434,-1.9404,-1.8965,-1.8695,-1.8568,-1.8029,-1.7301,-1.6558,-1.6349,-1.5825,-1.5163,-1.4914,-1.4843,-1.4665,-1.3702,-1.2879,-1.2305,-1.2305,-1.215,-1.1885,-1.1663,-1.1056,-1.0372,-1.0147,-0.8945,-0.7744,-0.7518,-0.6872,-0.63,-0.63,-0.63,-0.63,-0.63,-0.63,-0.63,-0.63,-0.63,-0.63,-0.63,-0.5392,-0.4676,-0.4646,-0.2877,-0.1598,-0.153,-0.063,0.0,0.0,0.0,0.0,0.0,0.0,0.0,0.0,0.0,0.0,0.0,0.0648,0.1491,0.2523,0.3852,0.5048,0.6088,0.6245,0.63,-1.9546,-1.8152,-1.6625,-1.6396,-1.612,-1.584,-1.5577,0.0,0.0,0.0,0.0,0.0,0.0,0.0,0.0,0.0,-1.5225,0.0,0.0,0.0,-1.8222,-1.8851,-1.9299,-1.9661,-1.9893,-2.0278,-2.0768,-2.1475,-2.1331,-2.139,-2.1875,-2.147,-2.1191,-2.1191,-2.0744,-2.0427,-2.0276,-2.0246,-2.0297,-2.0502,-2.0471,-2.0293,-1.9919,-1.9919,-1.9667,-1.9287,-1.9287,-1.918,-1.8965,-1.8695,-1.849,-1.8295,-1.8105,-1.7681,-1.7242,-1.7242,-1.6932,-1.6402,-1.6009,-1.5552,-1.5128,-1.4565,-1.3738,-1.2952,-1.2952,-1.2622,-1.2305,-1.2305,-1.1922,-1.1391,-1.0938,-0.9997,-0.9064,-0.8613,-0.7706,-0.6984,-0.6984,-0.6641,-0.63,-0.63,-0.63,-0.63,-0.63,-0.63,-0.63,-0.63,-0.5786,-0.5384,-0.5292,-0.3543,-0.2253,-0.2184,-0.0862,0.0,0.0,0.0,0.0,0.0,0.0,0.0,0.0,0.0,0.0,0.0,0.0454,0.1235,0.2317,0.3337,0.4375,0.5404,0.6024,0.63,-2.0297,-1.9335,-1.8224,-1.7686,-1.7435,-1.7167,0.0,0.0,0.0,0.0,0.0,0.0,0.0,0.0,0.0,0.0,0.0,0.0,-1.8114,-1.8303,-1.8583,-1.9387,-1.9802,-2.0033,-2.0096,-2.1079,-2.1788,-2.1969,-2.1936,-2.197,-2.2094,-2.197,-2.1902,-2.1902,-2.1766,-2.1226,-2.0204,-2.0535,-2.0879,-2.1208,-2.1531,-2.131,-2.0603,-2.0603,-2.0122,-1.9298,-1.9298,-1.9019,-1.851,-1.851,-1.8295,-1.8008,-1.8008,-1.8008,-1.8008,-1.8008,-1.8008,-1.7906,-1.7104,-1.6184,-1.5403,-1.5403,-1.4736,-1.389,-1.3745,-1.3135,-1.2482,-1.2335,-1.2305,-1.2114,-1.1242,-1.0938,-1.0596,-0.9744,-0.8765,-0.8012,-0.8012,-0.7249,-0.6528,-0.6528,-0.6412,-0.63,-0.63,-0.63,-0.63,-0.63,-0.63,-0.6252,-0.6081,-0.4473,-0.3224,-0.2958,-0.1329,-0.0192,0.0,0.0,0.0,0.0,0.0,0.0,0.0,0.0,0.0,0.0,0.0,0.0515,0.1539,0.26,0.3658,0.4699,0.5777,0.63,-2.0297,-1.9897,-1.9332,-1.8798,-1.7967,-1.7271,-1.7188,0.0,0.0,0.0,0.0,0.0,0.0,-1.5721,-1.5926,0.0,0.0,-1.8524,0.0,0.0,-1.9805,-2.0342,-2.0464,-2.0631,-2.0963,-2.0874,-2.1243,-2.2332,-2.2098,-2.2209,-2.2874,-2.2272,-2.1894,-2.1894,-2.117,-2.1039,-2.1576,-2.1272,-2.1141,-2.1197,-2.0939,-2.0717,-2.0587,-2.0587,-2.0128,-1.9285,-1.9285,-1.8849,-1.8105,-1.8105,-1.8066,-1.8008,-1.8008,-1.8008,-1.8008,-1.8008,-1.8008,-1.7974,-1.7828,-1.7182,-1.6393,-1.6393,-1.5755,-1.4807,-1.3954,-1.36,-1.331,-1.2519,-1.2305,-1.2261,-1.2114,-1.1428,-1.0746,-1.0596,-0.9814,-0.9069,-0.9069,-0.8275,-0.7553,-0.7553,-0.6868,-0.63,-0.63,-0.63,-0.63,-0.63,-0.63,-0.6289,-0.6269,-0.5209,-0.4117,-0.3184,-0.2024,-0.0976,-0.0078,0.0,0.0,0.0,0.0,0.0,0.0,0.0,0.0,0.0,0.0,0.0438,0.1353,0.2539,0.3588,0.4545,0.5733,0.63,-2.0991,-2.0516,-1.9967,-1.9722,-1.918,-1.8556,-1.7927,0.0,0.0,0.0,0.0,0.0,0.0,0.0,-1.8558,-1.912,0.0,-2.0058,-2.0547,-2.0429,-2.0522,-2.1204,-2.1302,-2.1394,-2.155,-2.219,-2.2647,-2.2805,-2.3056,-2.316,-2.3095,-2.2763,-2.2738,-2.3177,-2.2822,-2.2792,-2.3207,-2.2997,-2.2657,-2.221,-2.2035,-2.171,-2.1302,-2.1302,-2.0814,-2.0009,-2.0009,-1.9792,-1.9398,-1.9398,-1.9144,-1.8687,-1.8687,-1.8395,-1.8008,-1.8008,-1.8008,-1.8008,-1.8008,-1.7716,-1.7364,-1.7364,-1.6715,-1.586,-1.5403,-1.4906,-1.4307,-1.3346,-1.2696,-1.2305,-1.2305,-1.1959,-1.162,-1.162,-1.0826,-1.0115,-1.0115,-0.9329,-0.8466,-0.7897,-0.7442,-0.6945,-0.6377,-0.63,-0.63,-0.63,-0.63,-0.63,-0.63,-0.5354,-0.453,-0.4021,-0.2543,-0.1411,-0.0902,-0.0314,0.0,0.0,0.0,0.0,0.0,0.0,0.0,0.0,0.0,0.019,0.0607,0.2295,0.3304,0.3802,0.552,0.63,-2.1597,-2.0959,-2.0297,-2.0297,0.0,-1.9487,-1.8767,0.0,0.0,0.0,0.0,0.0,0.0,-1.992,0.0,-2.0874,-2.1389,-2.1816,-2.1918,-2.1813,-2.1961,-2.264,-2.2731,-2.2731,-2.2731,-2.3816,-2.4308,-2.3666,-2.4221,-2.4279,-2.3666,-2.3636,-2.3901,-2.4538,-2.4567,-2.4567,-2.4567,-2.4567,-2.4163,-2.3395,-2.3395,-2.316,-2.2701,-2.2531,-2.1997,-2.1161,-2.0962,-2.0782,-2.059,-2.059,-2.0204,-1.9595,-1.9595,-1.921,-1.8596,-1.8371,-1.8303,-1.8269,-1.8076,-1.8008,-1.8008,-1.8008,-1.7501,-1.6888,-1.6671,-1.6105,-1.5332,-1.4343,-1.3346,-1.2592,-1.2378,-1.2305,-1.2305,-1.2305,-1.1694,-1.1162,-1.1162,-1.034,-0.9442,-0.8647,-0.8122,-0.7557,-0.6795,-0.6451,-0.63,-0.63,-0.63,-0.63,-0.63,-0.5589,-0.496,-0.4727,-0.3285,-0.2115,-0.1646,-0.0628,0.0,0.0,0.0,0.0,0.0,0.0,0.0,0.0,0.0,0.0,0.0,0.1839,0.2735,0.2812,0.4688,0.567,-2.1597,-2.0959,-2.0297,-2.0297,-1.9627,0.0,-1.9663,-1.9429,0.0,-1.984,0.0,0.0,0.0,-2.0746,-2.1629,-2.216,-2.3278,-2.4082,-2.4082,-2.4627,-2.5064,-2.5134,-2.5161,-2.5161,-2.5161,-2.5259,-2.5287,-2.5231,-2.5287,-2.5287,-2.5231,-2.5231,-2.5259,-2.5315,-2.5315,-2.5315,-2.5315,-2.5315,-2.4951,-2.4205,-2.4205,-2.4525,-2.5106,-2.4439,-2.3657,-2.279,-2.2089,-2.1365,-2.059,-2.059,-2.0558,-2.0526,-2.0526,-2.0462,-2.0301,-1.9497,-1.9199,-1.9077,-1.8269,-1.8008,-1.8008,-1.8008,-1.794,-1.7759,-1.6853,-1.6558,-1.628,-1.5376,-1.4378,-1.3382,-1.2519,-1.2305,-1.2305,-1.2305,-1.2224,-1.2187,-1.2187,-1.1391,-1.0671,-1.0596,-0.9059,-0.7783,-0.7706,-0.6911,-0.63,-0.63,-0.63,-0.63,-0.63,-0.6219,-0.5786,-0.4805,-0.4569,-0.3713,-0.1762,-0.0628,0.0,0.0,0.0,0.0,0.0,0.0,0.0,0.0,0.0,0.0,0.0,0.1137,0.1724,0.1723,0.2813,0.3865,-2.2032,-2.14,-2.0747,-2.0747,-2.0072,0.0,0.0,-2.0569,-2.079,-2.1023,-2.123,0.0,0.0,0.0,-2.2412,-2.3474,-2.4019,-2.4452,-2.4922,-2.5231,-2.5398,-2.5398,-2.5398,-2.5398,-2.5398,-2.581,-2.5892,-2.5425,-2.581,-2.5864,-2.5425,-2.5398,-2.5618,-2.6068,-2.6095,-2.6095,-2.6095,-2.6095,-2.5933,-2.5646,-2.5203,-2.5119,-2.5398,-2.5119,-2.4782,-2.4471,-2.4197,-2.3644,-2.29,-2.29,-2.2304,-2.1365,-2.0814,-2.059,-2.0558,-2.0236,-2.0107,-1.9977,-1.911,-1.8821,-1.8721,-1.8178,-1.8008,-1.794,-1.7579,-1.7467,-1.7251,-1.6324,-1.579,-1.5155,-1.3593,-1.2732,-1.2305,-1.2305,-1.2305,-1.2305,-1.2305,-1.1996,-1.1545,-1.0938,-1.0185,-0.9286,-0.8008,-0.748,-0.7022,-0.6374,-0.63,-0.63,-0.63,-0.63,-0.6141,-0.5747,-0.5079,-0.41,-0.2657,-0.1606,-0.098,-0.098,-0.0353,0.0,0.0,0.0,0.0,0.0,0.0,0.0,0.0,0.1058,0.1607,0.1607,0.2618,0.3318,-2.179,-2.1266,-2.078,0.0,0.0,0.0,-2.0869,-2.1364,-2.1794,-2.223,-2.2506,0.0,-2.3444,0.0,0.0,0.0,-2.475,-2.5175,-2.5673,-2.5946,-2.6094,-2.6094,-2.6094,-2.6094,-2.6094,-2.6549,-2.6628,-2.6135,-2.6549,-2.6628,-2.6135,-2.6094,-2.6322,-2.6826,-2.6852,-2.6852,-2.6852,-2.6852,-2.6852,-2.6826,-2.6322,-2.6094,-2.6081,-2.5837,-2.5755,-2.5728,-2.5508,-2.5119,-2.4652,-2.4652,-2.3992,-2.29,-2.2096,-2.1756,-2.1705,-2.1195,-2.1005,-2.0878,-2.0009,-1.9726,-1.9562,-1.8687,-1.8395,-1.8361,-1.8076,-1.8008,-1.7872,-1.7207,-1.6819,-1.6253,-1.4768,-1.3584,-1.2732,-1.2732,-1.2519,-1.2305,-1.2305,-1.2305,-1.2114,-1.1391,-1.1013,-1.0372,-0.8983,-0.8499,-0.805,-0.7365,-0.6984,-0.6756,-0.6756,-0.649,-0.63,-0.63,-0.5354,-0.4414,-0.3669,-0.2657,-0.2074,-0.2074,-0.1097,-0.0353,0.0,0.0,0.0,0.0,0.0,0.0,0.0,0.0745,0.1097,0.1097,0.18,0.2306,-2.0708,-2.0399,-2.0314,0.0,0.0,0.0,-2.1545,-2.1695,-2.2069,-2.334,0.0,-2.2904,-2.36,-2.365,0.0,-2.4408,-2.5635,-2.651,-2.651,-2.7137,-2.76,-2.76,-2.76,-2.76,-2.76,-2.76,-2.76,-2.76,-2.76,-2.76,-2.76,-2.76,-2.76,-2.76,-2.76,-2.76,-2.76,-2.7625,-2.7625,-2.76,-2.761,-2.761,-2.7575,-2.6826,-2.651,-2.6484,-2.5728,-2.5425,-2.5398,-2.5398,-2.5398,-2.5315,-2.4595,-2.4321,-2.4105,-2.2512,-2.1908,-2.1815,-2.091,-2.0623,-2.0462,-1.9595,-1.9299,-1.9144,-1.8259,-1.8008,-1.7998,-1.7998,-1.731,-1.6493,-1.6028,-1.4805,-1.3702,-1.3702,-1.2989,-1.2298,-1.2298,-1.2305,-1.2305,-1.2305,-1.1502,-1.082,-1.0783,-0.997,-0.9296,-0.9296,-0.8466,-0.7821,-0.7783,-0.6945,-0.63,-0.63,-0.5354,-0.4727,-0.4727,-0.3748,-0.3124,-0.3124,-0.2151,-0.1137,-0.0079,0.0,0.0,0.0,0.0,0.0,0.0,0.0,0.0,0.0,0.0,0.0588,-2.1248,-2.0891,0.0,-2.0797,0.0,0.0,0.0,-2.2074,0.0,0.0,-2.3465,-2.3541,-2.4207,-2.4283,0.0,-2.5796,-2.6272,-2.6695,-2.7203,-2.7458,-2.76,-2.76,-2.76,-2.76,-2.76,-2.76,-2.76,-2.76,-2.76,-2.76,-2.76,-2.76,-2.76,-2.76,-2.76,-2.76,-2.76,-2.8018,-2.8018,-2.7625,-2.8472,-2.8424,-2.76,-2.7382,-2.728,-2.7255,-2.7034,-2.6654,-2.6122,-2.5618,-2.5398,-2.537,-2.5147,-2.5063,-2.4951,-2.3946,-2.3594,-2.3386,-2.2021,-2.1522,-2.1365,-2.0494,-2.0204,-1.9976,-1.8781,-1.8428,-1.8247,-1.735,-1.6873,-1.664,-1.6506,-1.5864,-1.5077,-1.4437,-1.3744,-1.3273,-1.3273,-1.2769,-1.2305,-1.2305,-1.207,-1.162,-1.0938,-1.0559,-1.0115,-0.941,-0.9031,-0.8618,-0.7897,-0.7557,-0.7099,-0.6377,-0.6025,-0.5825,-0.5825,-0.4844,-0.4217,-0.4217,-0.3242,-0.219,-0.1176,-0.0392,0.0,0.0,0.0,0.0,0.0,0.0,0.0,0.0,0.0,0.0157,-2.0872,-2.0587,0.0,-2.0807,-2.0999,-2.1335,-2.2248,0.0,0.0,0.0,-2.3789,-2.3894,-2.4814,-2.4758,0.0,-2.6389,-2.6568,-2.6806,-2.7504,-2.76,-2.76,-2.76,-2.76,-2.76,-2.76,-2.76,-2.76,-2.76,-2.76,-2.76,-2.76,-2.76,-2.76,-2.76,-2.7835,-2.7944,-2.7944,-2.8559,-2.8662,-2.8328,-2.9065,-2.9019,-2.8319,-2.8319,-2.8174,-2.7944,-2.771,-2.7469,-2.7236,-2.6561,-2.6269,-2.6242,-2.5946,-2.5837,-2.5755,-2.5007,-2.4738,-2.4582,-2.3627,-2.3289,-2.3157,-2.2262,-2.1628,-2.0997,-1.9843,-1.9147,-1.8509,-1.7428,-1.7149,-1.7046,-1.6566,-1.6344,-1.6023,-1.5222,-1.4681,-1.4314,-1.4314,-1.3846,-1.3339,-1.2915,-1.2842,-1.2542,-1.1576,-1.1391,-1.1205,-1.0571,-1.0158,-0.9518,-0.8537,-0.8389,-0.8008,-0.6984,-0.6911,-0.6718,-0.6338,-0.5709,-0.5354,-0.5354,-0.4334,-0.3476,-0.2856,-0.1801,-0.1058,-0.0628,-0.0628,-0.0432,0.0,0.0,0.0,0.0,0.0,0.0,-1.9961,0.0,0.0,-2.0509,-2.1195,0.0,-2.331,-2.3595,-2.3774,-2.438,0.0,-2.3984,-2.5262,-2.5008,-2.5038,-2.6378,-2.6587,-2.6811,-2.751,-2.76,-2.76,-2.76,-2.76,-2.76,-2.76,-2.76,-2.76,-2.76,-2.76,-2.76,-2.76,-2.76,-2.7625,-2.7685,-2.8198,-2.8535,-2.8583,-2.918,-2.9451,-2.9406,-2.9518,-2.954,-2.9473,-2.9429,-2.9088,-2.8559,-2.7993,-2.8091,-2.8535,-2.7993,-2.776,-2.7695,-2.6967,-2.668,-2.6575,-2.5783,-2.5508,-2.5481,-2.5425,-2.5398,-2.5259,-2.4395,-2.3303,-2.2137,-2.1155,-1.9999,-1.8863,-1.803,-1.7788,-1.7541,-1.6518,-1.6512,-1.6679,-1.62,-1.5669,-1.5298,-1.5332,-1.5269,-1.4914,-1.4027,-1.3745,-1.3419,-1.2556,-1.2378,-1.2305,-1.2305,-1.1502,-1.0565,-0.9556,-0.9448,-0.9069,-0.8046,-0.7931,-0.7518,-0.6528,-0.6451,-0.6412,-0.63,-0.5392,-0.4844,-0.4844,-0.3709,-0.2657,-0.1762,-0.1723,-0.1254,-0.0275,-0.0196,-0.0157,-0.0157,-0.0039,0.0,0.0,-1.983,0.0,0.0,-2.1064,-2.2024,-2.331,-2.3595,-2.364,-2.3789,-2.3699,-2.3849,-2.4664,-2.4709,-2.5038,-2.6378,-2.6587,-2.6811,-2.751,-2.76,-2.76,-2.76,-2.76,-2.76,-2.76,-2.76,-2.76,-2.76,-2.76,-2.76,-2.76,-2.76,-2.781,-2.8286,-2.8415,-2.8732,-2.9203,-2.9805,-2.987,-2.9406,-3.0356,-3.0559,-3.0102,-2.9607,-2.9339,-2.9203,-2.9065,-2.9088,-2.9203,-2.9065,-2.9019,-2.895,-2.8328,-2.8061,-2.7913,-2.6718,-2.6256,-2.6176,-2.5591,-2.5398,-2.5287,-2.4573,-2.415,-2.35,-2.1266,-2.0382,-1.9799,-1.812,-1.7638,-1.7588,-1.7337,-1.7413,-1.7544,-1.7407,-1.6557,-1.5839,-1.6218,-1.572,-1.5128,-1.4914,-1.4243,-1.3637,-1.3419,-1.2806,-1.2305,-1.2305,-1.2114,-1.162,-1.0602,-1.049,-1.0078,-0.9069,-0.896,-0.8575,-0.7553,-0.748,-0.7138,-0.6338,-0.6103,-0.5944,-0.5944,-0.41,-0.3007,-0.2773,-0.2773,-0.2656,-0.2422,-0.1644,-0.1254,-0.1254,-0.0392,0.0,0.0,0.0,0.0,-2.0862,0.0,-2.2433,-2.337,-2.3595,-2.3595,-2.3595,-2.3595,-2.3804,-2.4485,-2.4335,-2.4567,-2.5899,-2.6123,-2.6243,-2.6572,-2.6926,-2.7121,-2.7121,-2.7121,-2.7255,-2.757,-2.76,-2.76,-2.76,-2.76,-2.76,-2.76,-2.787,-2.8189,-2.8487,-2.9042,-2.9518,-2.9827,-3.0435,-3.0559,-3.0272,-3.0898,-3.1035,-3.0699,-3.0102,-2.9995,-3.023,-2.9651,-2.9563,-2.9805,-2.9518,-2.9406,-2.9361,-2.9042,-2.8943,-2.881,-2.7824,-2.7464,-2.7363,-2.6692,-2.6227,-2.5925,-2.5581,-2.4821,-2.382,-2.2462,-2.1579,-2.0795,-1.9426,-1.8828,-1.8507,-1.8163,-1.7896,-1.783,-1.8313,-1.7654,-1.6979,-1.7204,-1.6897,-1.6402,-1.5974,-1.5438,-1.4942,-1.4494,-1.36,-1.2989,-1.2989,-1.2592,-1.2114,-1.1583,-1.1502,-1.113,-1.0121,-1.0002,-0.9631,-0.8613,-0.8504,-0.8084,-0.7099,-0.7022,-0.6795,-0.6338,-0.5237,-0.4375,-0.3865,-0.3865,-0.3632,-0.3085,-0.2579,-0.2308,-0.2308,-0.1254,-0.0784,0.0,0.0,0.0,0.0,-2.2119,0.0,-2.343,-2.3595,-2.3595,-2.3595,-2.3595,-2.3774,-2.4321,-2.3962,-2.3999,-2.5241,-2.5435,-2.548,-2.5576,-2.6078,-2.6422,-2.6422,-2.6422,-2.6632,-2.721,-2.7255,-2.73,-2.742,-2.742,-2.748,-2.7585,-2.8067,-2.8391,-2.8487,-2.9473,-3.0102,-3.0293,-3.0797,-3.1112,-3.119,-3.119,-3.119,-3.119,-3.0679,-3.072,-3.1151,-3.0145,-2.9978,-3.0414,-2.9913,-2.9717,-2.9679,-2.9456,-2.945,-2.9457,-2.8732,-2.8474,-2.8431,-2.7919,-2.7264,-2.6572,-2.6452,-2.5254,-2.3818,-2.3585,-2.2757,-2.172,-2.0992,-2.0441,-1.9877,-1.9158,-1.8528,-1.8253,-1.8991,-1.8722,-1.8271,-1.8216,-1.8236,-1.7954,-1.7026,-1.6706,-1.628,-1.5376,-1.4522,-1.3954,-1.3954,-1.3164,-1.2556,-1.2556,-1.2409,-1.1959,-1.1162,-1.105,-1.064,-0.9636,-0.9556,-0.9145,-0.8122,-0.8046,-0.7668,-0.6872,-0.6834,-0.6325,-0.5267,-0.5076,-0.453,-0.3671,-0.3474,-0.3357,-0.3357,-0.2347,-0.1841,0.0,0.0,0.0,0.0,-2.1754,-2.2143,0.0,0.0,-2.3595,0.0,-2.3595,-2.3625,-2.3729,-2.3655,-2.3849,-2.4605,-2.4739,-2.4933,-2.5525,-2.5689,-2.5734,-2.5734,-2.5734,-2.5779,-2.5869,-2.5869,-2.6108,-2.6701,-2.6722,-2.7001,-2.757,-2.7675,-2.7944,-2.8487,-2.8677,-2.9248,-3.0293,-3.0393,-3.0679,-3.119,-3.119,-3.119,-3.119,-3.1131,-3.1131,-3.119,-3.1035,-3.1015,-3.1075,-3.0995,-3.0975,-3.0831,-2.9683,-2.9629,-3.002,-2.8768,-2.8385,-2.8487,-2.8415,-2.7616,-2.6497,-2.5929,-2.5156,-2.4282,-2.3157,-2.2721,-2.2415,-2.1744,-2.1493,-2.129,-2.0682,-2.0231,-1.9821,-1.9447,-1.9421,-1.9423,-1.9182,-1.9144,-1.8877,-1.7988,-1.7173,-1.628,-1.5376,-1.5092,-1.4985,-1.4985,-1.4135,-1.3528,-1.3528,-1.2806,-1.2261,-1.2114,-1.2114,-1.1694,-1.0677,-1.0602,-1.0153,-0.9145,-0.9107,-0.9031,-0.8922,-0.8884,-0.8423,-0.7395,-0.6521,-0.6025,-0.5867,-0.4924,-0.4491,-0.4453,-0.3398,-0.289,-1.9555,0.0,0.0,0.0,0.0,-2.1934,-2.2877,0.0,-2.3595,-2.3595,-2.3595,-2.3595,-2.3595,-2.3595,-2.3699,-2.3999,-2.435,-2.4575,-2.4492,-2.4799,-2.5038,-2.5038,-2.5038,-2.5187,-2.557,-2.5615,-2.5734,-2.6019,-2.6033,-2.6168,-2.6452,-2.6797,-2.7111,-2.7372,-2.7718,-2.8142,-2.8672,-2.9058,-2.9735,-3.0699,-3.1035,-3.119,-3.119,-3.119,-3.119,-3.119,-3.119,-3.097,-3.0581,-3.0581,-3.0345,-2.9937,-2.9774,-2.9895,-3.0136,-2.9615,-2.9245,-2.8903,-2.8186,-2.7108,-2.5929,-2.5247,-2.4575,-2.3933,-2.3378,-2.3187,-2.3143,-2.2846,-2.2515,-2.2207,-2.1941,-2.1454,-2.1039,-2.1075,-2.1117,-2.1091,-2.0796,-2.0365,-1.9781,-1.8888,-1.8003,-1.7251,-1.6837,-1.6332,-1.5965,-1.5965,-1.5163,-1.4522,-1.4522,-1.4163,-1.3702,-1.3135,-1.3091,-1.2689,-1.1731,-1.1657,-1.1205,-1.019,-1.0153,-0.9895,-0.9334,-0.9296,-0.9112,-0.8651,-0.7668,-0.6872,-0.63,-0.5825,-0.5589,-0.5589,-0.4491,-0.3982,0.0,0.0,0.0,0.0,0.0,-2.1792,0.0,0.0,-2.3415,0.0,-2.3595,-2.3595,-2.3595,-2.3595,-2.3595,-2.3595,-2.4007,-2.4156,-2.367,-2.4022,-2.435,-2.435,-2.435,-2.453,-2.5046,-2.5091,-2.5166,-2.5322,-2.5337,-2.5412,-2.56,-2.6032,-2.6272,-2.6272,-2.6704,-2.7026,-2.7158,-2.7959,-2.8921,-3.005,-3.065,-3.092,-3.092,-3.092,-3.0818,-3.0649,-3.1038,-3.0784,-3.0108,-3.0108,-2.9668,-2.9044,-2.96,-2.9939,-3.0118,-3.0212,-2.9781,-2.901,-2.8046,-2.6688,-2.5247,-2.4769,-2.4141,-2.3595,-2.3595,-2.3595,-2.3595,-2.3595,-2.3408,-2.3159,-2.2985,-2.256,-2.2185,-2.2406,-2.2386,-2.2243,-2.195,-2.1239,-2.0333,-1.9464,-1.8787,-1.8269,-1.8042,-1.7432,-1.6957,-1.6957,-1.6149,-1.5552,-1.5552,-1.534,-1.4914,-1.4171,-1.3854,-1.3419,-1.2732,-1.2445,-1.1959,-1.1242,-1.1162,-1.0826,-1.0083,-1.0045,-0.9933,-0.9669,-0.895,-0.7931,-0.6679,-0.6679,-0.6567,-0.63,-0.5473,-0.5135,0.0,0.0,0.0,0.0,0.0,0.0,0.0,0.0,-2.2912,-2.3475,-2.3595,-2.3595,-2.3595,-2.3595,-2.3595,-2.3595,-2.3625,-2.364,-2.3595,-2.3625,-2.3655,-2.3655,-2.3655,-2.367,-2.3699,-2.3699,-2.3984,-2.4605,-2.4649,-2.4933,-2.557,-2.5638,-2.5646,-2.5646,-2.567,-2.5963,-2.6545,-2.7656,-2.8586,-2.9369,-2.9895,-3.0176,-3.0176,-3.0176,-2.9786,-2.9196,-3.0581,-3.0784,-3.0108,-3.0108,-2.9668,-2.8993,-2.9044,-2.9482,-3.0089,-3.0104,-2.941,-2.8453,-2.8377,-2.6729,-2.4649,-2.4619,-2.4141,-2.3595,-2.3595,-2.3595,-2.3595,-2.3595,-2.4029,-2.4364,-2.3789,-2.3616,-2.3429,-2.2736,-2.2497,-2.2302,-2.1988,-2.1239,-2.0333,-1.9464,-1.9276,-1.8977,-1.8134,-1.7974,-1.794,-1.794,-1.7139,-1.6532,-1.6532,-1.5755,-1.5163,-1.5128,-1.4279,-1.3673,-1.3637,-1.2806,-1.2268,-1.2224,-1.2224,-1.2187,-1.215,-1.215,-1.17,-1.0746,-1.0671,-0.9664,-0.7706,-0.7706,-0.7249,-0.63,-0.6257,-0.6293,0.0,0.0,0.0,0.0,-2.1045,-2.1389,-2.1712,-2.1931,-2.2134,-2.2338,-2.2383,-2.2503,-2.2942,-2.3325,-2.3595,-2.3595,-2.3595,-2.3595,-2.3595,-2.3595,-2.3595,-2.3595,-2.3595,-2.3595,-2.3595,-2.3595,-2.3699,-2.3954,-2.3969,-2.4073,-2.4298,-2.4328,-2.4328,-2.4328,-2.4328,-2.4797,-2.5778,-2.6582,-2.7496,-2.853,-2.9122,-2.9381,-2.9381,-2.9381,-2.9264,-2.9027,-2.9568,-2.9347,-2.8618,-2.8618,-2.8197,-2.7622,-2.8604,-2.9162,-2.9448,-2.9939,-2.9596,-2.8776,-2.7882,-2.6486,-2.5053,-2.4615,-2.4076,-2.3595,-2.3595,-2.3595,-2.3684,-2.4111,-2.441,-2.4649,-2.4866,-2.4907,-2.4772,-2.4489,-2.4009,-2.3607,-2.3475,-2.2378,-2.1333,-2.1037,-2.0074,-1.921,-1.8888,-1.8361,-1.8008,-1.8008,-1.7716,-1.7501,-1.7501,-1.7226,-1.6759,-1.614,-1.579,-1.5048,-1.3818,-1.3382,-1.2952,-1.2335,-1.2305,-1.2305,-1.2305,-1.2305,-1.2114,-1.1768,-1.1768,-1.0453,-0.7783,-0.7783,-0.7288,-0.63,-0.63,-0.6327,-1.9499,0.0,0.0,0.0,0.0,-2.1374,-2.131,0.0,-2.159,-2.1689,-2.1695,-2.1829,-2.2283,-2.2882,-2.3355,-2.3565,-2.3595,-2.3595,-2.3595,-2.3595,-2.3595,-2.3595,-2.3595,-2.3595,-2.3595,-2.3595,-2.3595,-2.3595,-2.3595,-2.3595,-2.3595,-2.3595,-2.3595,-2.3595,-2.3595,-2.4085,-2.5045,-2.5627,-2.6552,-2.777,-2.8332,-2.8602,-2.8602,-2.8602,-2.8468,-2.8231,-2.8231,-2.8061,-2.7807,-2.7807,-2.7385,-2.6843,-2.8095,-2.8602,-2.8687,-2.9448,-2.9214,-2.8369,-2.7413,-2.6312,-2.5238,-2.4606,-2.4158,-2.3837,-2.3659,-2.3595,-2.3744,-2.441,-2.4769,-2.5083,-2.5764,-2.5878,-2.5776,-2.5499,-2.4857,-2.4292,-2.4292,-2.3237,-2.223,-2.1939,-2.0942,-2.0074,-1.9781,-1.9276,-1.8787,-1.8496,-1.8428,-1.8337,-1.8042,-1.8008,-1.7759,-1.7139,-1.6784,-1.5965,-1.435,-1.3882,-1.331,-1.2372,-1.2305,-1.2305,-1.2305,-1.2305,-1.2305,-1.2305,-1.2305,-1.113,-0.8799,-0.8461,-0.7629,-0.63,-0.63,-0.6354,0.0,0.0,0.0,0.0,0.0,0.0,-2.1346,0.0,-2.1362,-2.1603,-2.1655,-2.1655,-2.1665,-2.2224,-2.2868,-2.3475,-2.3595,-2.3595,-2.3595,-2.3595,-2.3595,-2.3595,-2.3595,-2.3595,-2.3595,-2.3595,-2.3595,-2.3595,-2.3595,-2.3595,-2.3595,-2.3595,-2.3595,-2.3595,-2.3595,-2.3858,-2.443,-2.4914,-2.5824,-2.7088,-2.7543,-2.7755,-2.7773,-2.7773,-2.7367,-2.6691,-2.6691,-2.7114,-2.7773,-2.7773,-2.7351,-2.6776,-2.7503,-2.7807,-2.7891,-2.867,-2.8178,-2.7121,-2.7104,-2.6257,-2.5144,-2.4612,-2.441,-2.4287,-2.3752,-2.3595,-2.3744,-2.444,-2.5098,-2.5764,-2.6437,-2.6564,-2.6364,-2.5704,-2.4929,-2.4321,-2.4292,-2.3649,-2.2884,-2.2106,-2.1908,-2.1628,-2.0782,-2.059,-2.0268,-1.9431,-1.9276,-1.8944,-1.811,-1.8008,-1.8008,-1.8008,-1.7173,-1.6245,-1.5305,-1.435,-1.3382,-1.2409,-1.2335,-1.2342,-1.2305,-1.2305,-1.2305,-1.2305,-1.2305,-1.1805,-1.0783,-0.9782,-0.8275,-0.6338,-0.63,-0.6457,-1.9745,0.0,0.0,0.0,0.0,0.0,0.0,0.0,-2.0996,-2.0734,-2.0691,-2.0752,-2.0944,-2.1515,-2.2173,-2.2838,-2.331,-2.3595,-2.3595,-2.3595,-2.3595,-2.3595,-2.3595,-2.3595,-2.3595,-2.3595,-2.3595,-2.3595,-2.3595,-2.3595,-2.3595,-2.3595,-2.3595,-2.3595,-2.3595,-2.4032,-2.4969,-2.4736,-2.5359,-2.6807,-2.6597,-2.6684,-2.6996,-2.6996,-2.6894,-2.6691,-2.6691,-2.681,-2.6996,-2.6996,-2.6877,-2.6776,-2.7503,-2.7807,-2.7824,-2.8043,-2.7905,-2.7528,-2.6991,-2.6358,-2.5689,-2.5147,-2.4732,-2.4287,-2.3752,-2.3595,-2.3849,-2.5016,-2.5457,-2.5869,-2.7031,-2.7299,-2.7119,-2.6385,-2.5656,-2.4951,-2.4436,-2.3649,-2.3035,-2.2823,-2.2292,-2.1815,-2.1585,-2.0494,-1.9595,-1.9332,-1.8754,-1.8269,-1.8042,-1.8008,-1.8008,-1.8008,-1.7759,-1.7217,-1.6289,-1.5965,-1.5084,-1.3419,-1.331,-1.3025,-1.2342,-1.2305,-1.2305,-1.2305,-1.2305,-1.1805,-1.0783,-0.9782,-0.8656,-0.7365,-0.6644,-0.6399,0.0,0.0,0.0,0.0,0.0,0.0,-2.143,-2.1166,-2.0813,0.0,-2.0052,-2.0086,-2.0254,-2.0842,-2.15,-2.2179,-2.2802,-2.3295,-2.3565,-2.3595,-2.3595,-2.3595,-2.3595,-2.3595,-2.3595,-2.3595,-2.3595,-2.3595,-2.3595,-2.3595,-2.3595,-2.3595,-2.3595,-2.3595,-2.3595,-2.4012,-2.4871,-2.4792,-2.53,-2.6401,-2.6332,-2.6453,-2.6691,-2.6691,-2.6691,-2.6691,-2.6691,-2.6691,-2.6691,-2.6691,-2.6691,-2.6742,-2.7182,-2.7334,-2.7334,-2.7334,-2.7334,-2.7266,-2.6843,-2.6505,-2.6175,-2.5449,-2.4989,-2.4592,-2.3837,-2.3804,-2.4253,-2.5315,-2.6004,-2.6602,-2.7405,-2.76,-2.7484,-2.706,-2.639,-2.5646,-2.4922,-2.4134,-2.3514,-2.3168,-2.272,-2.2414,-2.2414,-2.1542,-2.0771,-2.043,-1.965,-1.8944,-1.8596,-1.8236,-1.8008,-1.8008,-1.8008,-1.7613,-1.6671,-1.6602,-1.5965,-1.4414,-1.4314,-1.3882,-1.2915,-1.2879,-1.2703,-1.2305,-1.2305,-1.1805,-1.0783,-1.019,-0.9178,-0.7783,-0.6756,-0.6375,0.0,0.0,0.0,0.0,0.0,0.0,-2.1323,-2.115,-2.091,0.0,-1.9909,-1.9892,-1.9854,-2.0376,-2.1039,-2.1627,-2.231,-2.296,-2.3505,-2.3595,-2.3595,-2.3595,-2.3595,-2.3595,-2.3595,-2.3595,-2.3595,-2.3595,-2.3595,-2.3595,-2.3595,-2.3595,-2.3595,-2.3595,-2.3595,-2.39,-2.4491,-2.4894,-2.543,-2.6085,-2.6436,-2.6657,-2.6691,-2.6691,-2.6691,-2.6691,-2.6691,-2.6691,-2.6691,-2.6691,-2.6691,-2.6691,-2.6691,-2.6691,-2.6691,-2.6691,-2.6691,-2.6691,-2.6691,-2.6691,-2.6556,-2.5696,-2.5362,-2.5121,-2.4194,-2.4282,-2.4822,-2.551,-2.6617,-2.76,-2.76,-2.76,-2.7575,-2.7484,-2.6982,-2.6283,-2.5563,-2.4823,-2.4089,-2.3365,-2.3155,-2.3108,-2.3108,-2.3017,-2.272,-2.2002,-2.1164,-2.0301,-1.9398,-1.862,-1.811,-1.8008,-1.8008,-1.7647,-1.6819,-1.674,-1.6358,-1.5403,-1.5376,-1.4914,-1.3918,-1.3745,-1.331,-1.2482,-1.2342,-1.1848,-1.0975,-1.0864,-0.9809,-0.7936,-0.6945,-0.6521,-2.1834,0.0,0.0,0.0,0.0,0.0,-2.2094,-2.2049,-2.1901,0.0,-2.1228,-2.1134,-2.0813,-2.1283,-2.1787,-2.1929,-2.2645,-2.328,-2.3548,-2.3595,-2.3595,-2.3595,-2.3595,-2.3595,-2.3595,-2.3595,-2.3595,-2.3595,-2.3595,-2.3595,-2.3595,-2.3595,-2.3595,-2.3595,-2.3595,-2.4053,-2.5031,-2.4732,-2.5243,-2.6573,-2.6279,-2.6332,-2.6691,-2.6691,-2.6691,-2.6691,-2.6691,-2.6691,-2.6691,-2.6691,-2.6691,-2.6691,-2.6691,-2.6691,-2.6691,-2.6691,-2.6691,-2.6691,-2.6691,-2.6691,-2.6708,-2.6726,-2.6327,-2.5845,-2.592,-2.5617,-2.5418,-2.6191,-2.6986,-2.76,-2.76,-2.76,-2.7458,-2.6852,-2.659,-2.6283,-2.5563,-2.4823,-2.4263,-2.4089,-2.3531,-2.3108,-2.3108,-2.2567,-2.2063,-2.1908,-2.1164,-2.0301,-1.9398,-1.9144,-1.8787,-1.8076,-1.8008,-1.794,-1.7759,-1.7725,-1.732,-1.6393,-1.6324,-1.5895,-1.495,-1.4135,-1.36,-1.3419,-1.2666,-1.2187,-1.1996,-1.1199,-1.019,-0.8993,-0.797,-0.7535,-2.2599,0.0,0.0,-2.2517,0.0,0.0,0.0,-2.1943,-2.184,-2.1384,-2.1291,-2.1244,-2.1039,-2.1262,-2.1598,-2.1948,-2.218,-2.2532,-2.3207,-2.347,-2.3595,-2.3595,-2.3595,-2.3595,-2.3595,-2.3595,-2.3595,-2.3595,-2.3595,-2.3595,-2.3595,-2.3595,-2.3595,-2.3595,-2.3858,-2.4261,-2.4812,-2.5067,-2.558,-2.6349,-2.6349,-2.647,-2.6691,-2.6691,-2.6691,-2.6691,-2.6691,-2.6691,-2.6691,-2.6691,-2.6691,-2.6691,-2.6691,-2.6691,-2.6691,-2.6691,-2.6691,-2.6691,-2.6691,-2.6691,-2.6674,-2.6587,-2.631,-2.6049,-2.6325,-2.6432,-2.6533,-2.6992,-2.7345,-2.76,-2.76,-2.76,-2.7524,-2.7152,-2.7034,-2.6852,-2.6122,-2.537,-2.4738,-2.4379,-2.3662,-2.3108,-2.3108,-2.2763,-2.2506,-2.2506,-2.1772,-2.0942,-2.0074,-1.9562,-1.8977,-1.8076,-1.8008,-1.8008,-1.8008,-1.8008,-1.7794,-1.732,-1.7285,-1.6897,-1.593,-1.5403,-1.4692,-1.3709,-1.2776,-1.2305,-1.2305,-1.1805,-1.1019,-1.0002,-0.8499,-0.7783,0.0,0.0,0.0,0.0,0.0,-2.2194,0.0,0.0,0.0,-2.1323,-2.126,0.0,0.0,0.0,0.0,-2.1973,0.0,0.0,-2.2796,-2.3165,-2.3393,-2.3534,-2.3479,-2.3475,-2.3595,-2.349,-2.3475,-2.3595,-2.349,-2.3475,-2.3595,-2.3595,-2.3595,-2.3595,-2.4012,-2.4287,-2.441,-2.5354,-2.5888,-2.6013,-2.647,-2.6691,-2.6691,-2.6691,-2.6691,-2.6691,-2.6691,-2.6691,-2.6691,-2.6691,-2.6691,-2.6691,-2.6691,-2.6691,-2.6691,-2.6691,-2.6793,-2.6911,-2.6911,-2.7012,-2.7096,-2.6861,-2.6739,-2.6637,-2.6547,-2.6977,-2.7525,-2.757,-2.76,-2.76,-2.76,-2.76,-2.76,-2.76,-2.76,-2.7408,-2.6669,-2.5933,-2.5175,-2.4423,-2.3662,-2.3108,-2.3108,-2.3108,-2.3047,-2.2884,-2.2322,-2.1522,-2.0494,-1.9759,-1.8977,-1.8076,-1.8008,-1.8008,-1.8008,-1.8008,-1.8008,-1.8008,-1.8008,-1.7647,-1.6888,-1.6532,-1.5508,-1.3745,-1.2776,-1.2305,-1.2305,-1.2305,-1.1885,-1.105,-0.9026,-0.8084,0.0,0.0,0.0,0.0,-2.2813,0.0,-2.2223,0.0,-2.2209,-2.2166,0.0,0.0,0.0,0.0,0.0,0.0,0.0,0.0,-2.2622,-2.253,-2.2667,-2.3247,-2.3025,-2.3017,-2.355,-2.3122,-2.3032,-2.355,-2.3107,-2.3047,-2.3565,-2.3595,-2.3595,-2.3595,-2.3659,-2.3921,-2.4389,-2.4989,-2.554,-2.6013,-2.647,-2.6691,-2.6691,-2.6691,-2.6691,-2.6691,-2.6691,-2.6691,-2.6691,-2.6691,-2.6691,-2.6691,-2.6691,-2.6691,-2.6691,-2.6691,-2.7114,-2.7672,-2.7672,-2.8146,-2.8839,-2.9443,-2.9365,-2.8808,-2.7623,-2.7422,-2.758,-2.7595,-2.76,-2.76,-2.76,-2.76,-2.76,-2.76,-2.76,-2.7408,-2.6669,-2.5933,-2.5175,-2.4423,-2.3662,-2.3108,-2.3108,-2.3108,-2.2854,-2.2125,-2.1951,-2.1302,-1.9661,-1.9365,-1.8977,-1.8076,-1.8008,-1.8008,-1.8008,-1.8008,-1.8008,-1.8008,-1.8008,-1.794,-1.7872,-1.6228,-1.4843,-1.3709,-1.2776,-1.2305,-1.2305,-1.2305,-1.2224,-1.2077,-1.0083,-0.915,0.0,0.0,0.0,0.0,0.0,0.0,-2.2398,-2.2296,-2.2296,-2.2296,0.0,0.0,0.0,0.0,0.0,0.0,-2.2134,0.0,0.0,0.0,-2.1851,-2.2628,-2.2349,-2.2353,-2.3017,-2.2508,-2.2517,-2.3535,-2.3047,-2.2957,-2.3565,-2.3595,-2.3595,-2.3595,-2.3885,-2.4163,-2.441,-2.524,-2.5779,-2.6013,-2.647,-2.6691,-2.6691,-2.6691,-2.6691,-2.6691,-2.6691,-2.6691,-2.6691,-2.6691,-2.6691,-2.6691,-2.6691,-2.6691,-2.6742,-2.7182,-2.7536,-2.7874,-2.8332,-2.8722,-2.8989,-2.8956,-2.909,-2.906,-2.7779,-2.7733,-2.8042,-2.7685,-2.76,-2.76,-2.76,-2.76,-2.76,-2.76,-2.76,-2.7524,-2.7203,-2.6215,-2.5315,-2.5007,-2.393,-2.3108,-2.3108,-2.3108,-2.2987,-2.2641,-2.2199,-2.1459,-2.0204,-1.9617,-1.8977,-1.8076,-1.8008,-1.8008,-1.8008,-1.8008,-1.8008,-1.8008,-1.8008,-1.8008,-1.8008,-1.6724,-1.5544,-1.4593,-1.36,-1.2842,-1.2305,-1.2305,-1.2305,-1.2268,-1.0832,-0.9857,-2.4116,0.0,0.0,0.0,-2.3733,-2.3207,-2.2465,-2.2448,-2.2533,-2.233,-2.2448,0.0,0.0,0.0,-2.2296,-2.2296,0.0,-2.1913,0.0,-2.1645,0.0,0.0,0.0,-2.2058,-2.2541,-2.1879,-2.1964,-2.3251,-2.2778,-2.2778,-2.355,-2.3595,-2.3595,-2.3595,-2.397,-2.4163,-2.4163,-2.524,-2.5781,-2.5797,-2.6401,-2.6691,-2.6691,-2.6691,-2.6691,-2.6691,-2.6691,-2.6691,-2.6691,-2.6691,-2.6691,-2.6691,-2.6691,-2.6691,-2.6793,-2.7536,-2.7942,-2.8247,-2.9025,-2.9433,-2.949,-2.8724,-2.8829,-2.9026,-2.7821,-2.7839,-2.8165,-2.771,-2.76,-2.76,-2.76,-2.76,-2.76,-2.76,-2.76,-2.7534,-2.7331,-2.6469,-2.5646,-2.5425,-2.4323,-2.3424,-2.3424,-2.3258,-2.3017,-2.2793,-2.2261,-2.1491,-2.0398,-1.9694,-1.8977,-1.8076,-1.8008,-1.8008,-1.8008,-1.8008,-1.8008,-1.8008,-1.8008,-1.8008,-1.8008,-1.7104,-1.628,-1.5587,-1.4593,-1.3637,-1.2666,-1.2666,-1.2556,-1.2268,-1.1279,-1.0455,0.0,-2.5015,-2.4457,-2.4472,-2.3932,-2.3207,-2.2465,-2.2852,-2.3156,-2.2448,-2.2868,-2.3139,-2.2431,-2.2296,-2.2296,-2.2296,-2.2282,0.0,0.0,0.0,0.0,0.0,0.0,0.0,0.0,-2.1345,-2.1291,-2.2628,-2.2119,-2.2278,-2.3535,-2.3595,-2.3595,-2.3595,-2.3616,-2.3638,-2.3638,-2.4692,-2.524,-2.524,-2.6245,-2.6691,-2.6691,-2.6691,-2.6691,-2.6691,-2.6691,-2.6691,-2.6691,-2.6691,-2.6691,-2.6691,-2.6691,-2.6691,-2.6793,-2.7536,-2.8298,-2.9077,-2.982,-3.0531,-3.0931,-2.974,-2.9381,-2.9171,-2.7947,-2.761,-2.7625,-2.7625,-2.76,-2.76,-2.76,-2.76,-2.76,-2.76,-2.76,-2.7408,-2.6695,-2.651,-2.6256,-2.5536,-2.4781,-2.4263,-2.4263,-2.3632,-2.2823,-2.2063,-2.1908,-2.127,-1.9562,-1.9299,-1.8977,-1.8076,-1.8008,-1.8008,-1.8008,-1.8008,-1.8008,-1.8008,-1.8008,-1.8008,-1.8008,-1.7104,-1.6602,-1.6567,-1.5614,-1.4665,-1.3673,-1.3673,-1.3208,-1.2268,-1.1279,-1.093,-2.5438,-2.5423,-2.522,-2.522,-2.4661,-2.3932,-2.319,-2.3224,-2.319,-2.2448,-2.2885,-2.3173,-2.2446,-2.2296,-2.2296,-2.2296,-2.2296,-2.2296,0.0,0.0,0.0,0.0,0.0,0.0,0.0,0.0,-2.0884,-2.2934,-2.2234,-2.2263,-2.3535,-2.3595,-2.3595,-2.3595,-2.3595,-2.3595,-2.3595,-2.4307,-2.4835,-2.5221,-2.589,-2.6401,-2.6691,-2.6691,-2.6691,-2.6691,-2.6691,-2.6691,-2.6691,-2.6691,-2.6691,-2.6691,-2.6691,-2.6691,-2.6843,-2.8129,-2.8773,-2.9179,-3.0395,-3.0717,-3.0477,-2.9651,-2.9134,-2.8638,-2.7845,-2.76,-2.76,-2.76,-2.76,-2.76,-2.76,-2.76,-2.76,-2.76,-2.76,-2.7534,-2.728,-2.6852,-2.6431,-2.6176,-2.5147,-2.4292,-2.4292,-2.3619,-2.3017,-2.2732,-2.2249,-2.169,-2.1112,-2.0526,-1.9824,-1.8944,-1.8844,-1.863,-1.8042,-1.8008,-1.8008,-1.8008,-1.8008,-1.8008,-1.8008,-1.7681,-1.7217,-1.6593,-1.6289,-1.5332,-1.3709,-1.3709,-1.3315,-1.2636,-1.2283,-1.1796,-2.5862,-2.5998,-2.593,-2.566,-2.5236,-2.4643,-2.363,-2.3596,-2.3579,-2.2852,-2.3071,-2.3325,-2.3122,-2.2649,-2.2381,-2.2649,-2.2465,-2.2296,0.0,-2.2149,0.0,0.0,0.0,0.0,0.0,0.0,-2.06,-2.2247,-2.1876,-2.1948,-2.2882,-2.3146,-2.3266,-2.3266,-2.349,-2.3595,-2.3595,-2.4137,-2.4672,-2.5221,-2.5744,-2.6244,-2.6691,-2.6691,-2.6691,-2.6691,-2.6691,-2.6691,-2.6691,-2.6691,-2.6691,-2.6691,-2.6691,-2.6691,-2.6877,-2.8434,-2.9331,-2.9886,-3.0619,-3.0638,-3.0166,-2.9339,-2.8826,-2.8391,-2.7785,-2.76,-2.76,-2.76,-2.76,-2.76,-2.76,-2.76,-2.76,-2.76,-2.76,-2.76,-2.76,-2.7008,-2.651,-2.651,-2.5315,-2.4292,-2.4292,-2.3619,-2.3108,-2.3108,-2.2659,-2.223,-2.1939,-2.1396,-2.0719,-1.9857,-1.9497,-1.8944,-1.8076,-1.8008,-1.8008,-1.8008,-1.8008,-1.8008,-1.8008,-1.7681,-1.7217,-1.6593,-1.628,-1.5296,-1.3709,-1.3709,-1.3402,-1.2784,-1.2784,-1.2492]},{"header":{"parameterUnit":"m.s-1","parameterCategory":1,"la1":30.6,"la2":29.2853,"lo1":-89.7004,"lo2":-87.6739,"dy":0.0162,"dx":0.0183,"nx":112,"ny":82,"refTime":"2024-05-26T12:00:00:Z","depth":0,"parameterNumber":3,"parameterNumberName":"V-component_of_WINDS"},"data":[0.0,0.0,0.0,0.0,0.0,0.0,0.0,0.0,0.0,0.0,0.0,0.0,0.0,0.0,0.0,0.0,0.0,0.0,0.0,0.0,0.0,0.0,0.0,0.0,0.0,0.0,0.0,0.0,0.0,0.0,0.0,0.0,0.0,0.0,0.0,0.0,0.0,0.0,0.0,0.0,0.0,0.0,0.0,0.0,0.0,0.0,0.0,0.0,0.0,0.0,0.0,0.0,0.0,0.0,0.0,0.0,0.0,0.0,0.0,0.0,0.0,0.0,0.0,0.0,0.0,0.0,0.0,0.0,0.0,0.0,0.0,0.0,0.0,0.0,0.0,0.0,0.0,0.0,0.0,0.0,0.0,0.0,0.0,0.0,0.0,0.0,0.0,0.0,0.0,0.0,1.8559,1.8837,1.9346,1.9708,1.9708,1.9708,1.8773,1.6645,0.0,0.0,0.0,0.0,0.0,0.0,0.0,0.0,0.0,0.0,0.0,0.0,0.0,0.0,0.0,0.0,0.0,0.0,0.0,0.0,0.0,0.0,0.0,0.0,0.0,0.0,0.0,0.0,0.0,0.0,0.0,0.0,0.0,0.0,0.0,0.0,0.0,0.0,0.0,0.0,0.0,0.0,0.0,0.0,0.0,0.0,0.0,0.0,0.0,0.0,0.0,0.0,0.0,0.0,0.0,0.0,0.0,0.0,0.0,0.0,0.0,0.0,0.0,0.0,0.0,0.0,0.0,0.0,0.0,0.0,0.0,0.0,0.0,0.0,0.0,0.0,0.0,0.0,0.0,0.0,0.0,0.0,0.0,0.0,0.0,0.0,0.0,0.0,0.0,0.0,0.0,0.0,0.0,0.0,0.0,0.0,0.0,0.0,0.0,0.0,0.0,0.0,0.0,0.0,1.7912,1.9403,1.9648,1.9708,1.9708,1.9708,1.8773,1.6645,0.0,0.0,0.0,0.0,0.0,0.0,0.0,0.0,0.0,0.0,0.0,0.0,0.0,0.0,0.0,0.0,0.0,0.0,0.0,0.0,0.0,0.0,0.0,0.0,0.0,0.0,0.0,0.0,0.0,0.0,0.0,0.0,0.0,0.0,0.0,0.0,0.0,0.0,0.0,0.0,0.0,0.0,0.0,0.0,0.0,0.0,0.0,0.0,0.0,0.0,0.0,0.0,0.0,0.0,0.0,0.0,0.0,0.0,0.0,0.0,0.0,0.0,0.0,0.0,0.0,0.0,0.0,0.0,0.0,0.0,0.0,0.0,0.0,0.0,0.0,0.0,0.0,0.0,0.0,0.0,0.0,0.0,0.0,0.0,0.0,0.0,0.0,0.0,0.0,0.0,0.0,0.0,0.0,0.0,0.0,0.0,0.0,0.0,0.0,0.0,0.0,0.0,0.0,1.7261,1.8409,1.9585,1.9708,1.9708,1.9708,1.9708,1.8773,1.6645,1.6491,0.0,0.0,0.0,0.0,0.0,0.0,0.0,0.0,0.0,0.0,0.0,0.0,0.0,0.0,0.0,0.0,0.0,0.0,0.0,0.0,0.0,0.0,0.0,0.0,0.0,0.0,0.0,0.0,0.0,0.0,0.0,0.0,0.0,0.0,0.0,0.0,0.0,0.0,0.0,0.0,0.0,0.0,0.0,0.0,0.0,0.0,0.0,0.0,0.0,0.0,0.0,0.0,0.0,0.0,0.0,0.0,0.0,0.0,0.0,0.0,0.0,0.0,0.0,0.0,0.0,0.0,0.0,0.0,0.0,0.0,0.0,0.0,0.0,0.0,0.0,0.0,0.0,0.0,0.0,0.0,0.0,0.0,0.0,0.0,0.0,0.0,0.0,0.0,0.0,0.0,0.0,0.0,0.0,0.0,0.0,0.0,0.0,0.0,0.0,0.0,0.0,0.0,1.8493,1.9136,1.9648,1.9708,1.9708,1.9708,1.9558,1.8611,1.6631,1.6225,0.0,0.0,0.0,0.0,0.0,0.0,0.0,0.0,0.0,0.0,0.0,0.0,0.0,0.0,0.0,0.0,0.0,0.0,0.0,0.0,0.0,0.0,0.0,0.0,0.0,0.0,0.0,0.0,0.0,0.0,0.0,0.0,0.0,0.0,0.0,0.0,0.0,0.0,0.0,0.0,0.0,0.0,0.0,0.0,0.0,0.0,0.0,0.0,0.0,0.0,0.0,0.0,0.0,0.0,0.0,0.0,0.0,0.0,0.0,0.0,0.0,0.0,0.0,0.0,0.0,0.0,0.0,0.0,0.0,0.0,0.0,0.0,0.0,0.0,0.0,0.0,0.0,0.0,0.0,0.0,0.0,0.0,0.0,0.0,0.0,0.0,0.0,0.0,0.0,0.0,0.0,0.0,0.0,0.0,0.0,0.0,0.0,0.0,0.0,0.0,0.0,0.0,1.8611,1.9648,1.9693,1.9708,1.9708,1.9708,1.9121,1.8123,1.66,1.5445,0.0,0.0,0.0,0.0,0.0,0.0,0.0,0.0,0.0,0.0,0.0,0.0,0.0,0.0,0.0,0.0,0.0,0.0,0.0,0.0,0.0,0.0,0.0,0.0,0.0,0.0,0.0,0.0,0.0,0.0,0.0,0.0,0.0,0.0,0.0,0.0,0.0,0.0,0.0,0.0,0.0,0.0,0.0,0.0,0.0,0.0,0.0,0.0,0.0,0.0,0.0,0.0,0.0,0.0,0.0,0.0,0.0,0.0,0.0,0.0,0.0,0.0,0.0,0.0,0.0,0.0,0.0,0.0,0.0,0.0,0.0,0.0,0.0,0.0,0.0,0.0,0.0,0.0,0.0,0.0,0.0,0.0,0.0,0.0,0.0,0.0,0.0,0.0,0.0,0.0,0.0,0.0,0.0,0.0,0.0,0.0,0.0,0.0,0.0,0.0,0.0,0.0,1.8254,1.9226,0.0,1.9708,1.9708,1.9708,1.9468,1.8523,1.6631,0.0,0.0,0.0,0.0,0.0,0.0,0.0,0.0,0.0,0.0,0.0,0.0,0.0,0.0,0.0,0.0,0.0,0.0,0.0,0.0,0.0,0.0,0.0,0.0,0.0,0.0,0.0,0.0,0.0,0.0,0.0,0.0,0.0,0.0,0.0,0.0,0.0,0.0,0.0,0.0,0.0,0.0,0.0,0.0,0.0,0.0,0.0,0.0,0.0,0.0,0.0,0.0,0.0,0.0,0.0,0.0,0.0,0.0,0.0,0.0,0.0,0.0,0.0,0.0,0.0,0.0,0.0,0.0,0.0,0.0,0.0,0.0,0.0,0.0,0.0,0.0,0.0,0.0,0.0,0.0,0.0,0.0,0.0,0.0,0.0,0.0,0.0,0.0,0.0,0.0,0.0,0.0,0.0,0.0,0.0,0.0,0.0,0.0,0.0,0.0,0.0,0.0,1.739,1.85,1.9392,0.0,1.9892,1.9839,1.9711,1.9513,1.8552,1.6614,0.0,0.0,0.0,0.0,0.0,0.0,0.0,0.0,0.0,0.0,0.0,0.0,0.0,0.0,0.0,0.0,0.0,0.0,0.0,0.0,0.0,0.0,0.0,0.0,0.0,0.0,0.0,0.0,0.0,0.0,0.0,0.0,0.0,0.0,0.0,0.0,0.0,0.0,0.0,0.0,0.0,0.0,0.0,0.0,0.0,0.0,0.0,0.0,0.0,0.0,0.0,0.0,0.0,0.0,0.0,0.0,0.0,0.0,0.0,0.0,0.0,0.0,0.0,0.0,0.0,0.0,0.0,0.0,0.0,0.0,0.0,0.0,0.0,0.0,0.0,0.0,0.0,0.0,0.0,0.0,0.0,0.0,0.0,0.0,0.0,0.0,0.0,0.0,0.0,0.0,0.0,0.0,0.0,0.0,0.0,0.0,0.0,0.0,0.0,0.0,0.0,0.0,1.8253,1.9509,2.0314,2.0297,2.0297,2.0141,1.9729,1.9091,1.8079,0.0,0.0,0.0,0.0,0.0,0.0,0.0,0.0,0.0,0.0,0.0,0.0,0.0,0.0,0.0,0.0,0.0,0.0,0.0,0.0,0.0,0.0,0.0,0.0,0.0,0.0,0.0,0.0,0.0,0.0,0.0,0.0,0.0,0.0,0.0,0.0,0.0,0.0,0.0,0.0,0.0,0.0,0.0,0.0,0.0,0.0,0.0,0.0,0.0,0.0,0.0,0.0,0.0,0.0,0.0,0.0,0.0,0.0,0.0,0.0,0.0,0.0,0.0,0.0,0.0,0.0,0.0,0.0,0.0,0.0,0.0,0.0,0.0,0.0,0.0,0.0,0.0,0.0,0.0,0.0,0.0,0.0,0.0,0.0,0.0,0.0,0.0,0.0,0.0,0.0,0.0,0.0,0.0,0.0,0.0,0.0,0.0,0.0,0.0,0.0,0.0,0.0,0.0,1.8299,1.9799,2.0682,2.0348,2.0297,2.0141,1.9729,1.9528,1.8688,1.7027,0.0,0.0,0.0,0.0,0.0,0.0,0.0,0.0,0.0,0.0,0.0,0.0,0.0,0.0,0.0,0.0,0.0,0.0,0.0,0.0,0.0,0.0,0.0,0.0,0.0,0.0,0.0,0.0,0.0,0.0,0.0,0.0,0.0,0.0,0.0,0.0,0.0,0.0,0.0,0.0,0.0,0.0,0.0,0.0,0.0,0.0,0.0,0.0,0.0,0.0,0.0,0.0,0.0,0.0,0.0,0.0,0.0,0.0,0.0,0.0,0.0,0.0,0.0,0.0,0.0,0.0,0.0,0.0,0.0,0.0,0.0,0.0,0.0,0.0,0.0,0.0,0.0,0.0,0.0,0.0,0.0,0.0,0.0,0.0,0.0,0.0,0.0,0.0,0.0,0.0,0.0,0.0,0.0,0.0,0.0,0.0,0.0,0.0,0.0,0.0,0.0,0.0,1.849,2.0173,2.1071,2.0616,2.0583,2.0347,1.9747,1.9708,1.8966,1.7212,0.0,0.0,0.0,0.0,0.0,0.0,0.0,0.0,0.0,0.0,0.0,0.0,0.0,0.0,0.0,0.0,0.0,0.0,0.0,0.0,0.0,0.0,0.0,0.0,0.0,0.0,0.0,0.0,0.0,0.0,0.0,0.0,0.0,0.0,0.0,0.0,0.0,0.0,0.0,0.0,0.0,0.0,0.0,0.0,0.0,0.0,0.0,0.0,0.0,0.0,0.0,0.0,0.0,0.0,0.0,0.0,0.0,0.0,0.0,0.0,0.0,0.0,0.0,0.0,0.0,0.0,0.0,0.0,0.0,0.0,0.0,0.0,0.0,0.0,0.0,0.0,0.0,0.0,0.0,0.0,0.0,0.0,0.0,0.0,0.0,0.0,0.0,0.0,0.0,0.0,0.0,0.0,0.0,0.0,0.0,0.0,0.0,0.0,0.0,0.0,0.0,0.0,1.8828,2.0575,2.1522,2.1102,2.1071,2.0698,1.9836,1.9747,1.9018,1.7277,0.0,0.0,0.0,0.0,0.0,0.0,0.0,0.0,0.0,0.0,0.0,0.0,0.0,0.0,0.0,0.0,0.0,0.0,0.0,0.0,0.0,0.0,0.0,0.0,0.0,0.0,0.0,0.0,0.0,0.0,0.0,0.0,0.0,0.0,0.0,0.0,0.0,0.0,0.0,0.0,0.0,0.0,0.0,0.0,0.0,0.0,0.0,0.0,0.0,0.0,0.0,0.0,0.0,0.0,0.0,0.0,0.0,0.0,0.0,0.0,1.8984,1.7952,0.0,0.0,0.0,0.0,0.0,0.0,0.0,0.0,0.0,0.0,0.0,0.0,0.0,0.0,0.0,0.0,0.0,0.0,0.0,0.0,0.0,0.0,0.0,0.0,0.0,0.0,0.0,0.0,0.0,0.0,0.0,0.0,0.0,0.0,0.0,0.0,0.0,0.0,0.0,0.0,1.9241,2.0997,2.1988,2.1522,2.1476,2.1118,2.0261,2.0176,1.9438,1.7675,1.6637,0.0,0.0,0.0,0.0,0.0,0.0,0.0,0.0,0.0,0.0,0.0,0.0,0.0,0.0,0.0,0.0,0.0,0.0,0.0,0.0,0.0,0.0,0.0,0.0,0.0,0.0,0.0,0.0,0.0,0.0,0.0,0.0,0.0,0.0,0.0,0.0,0.0,0.0,0.0,0.0,0.0,0.0,0.0,0.0,0.0,0.0,0.0,0.0,0.0,0.0,0.0,0.0,0.0,0.0,0.0,0.0,0.0,0.0,0.0,2.0114,1.9321,0.0,0.0,0.0,0.0,0.0,0.0,0.0,0.0,0.0,0.0,0.0,0.0,0.0,0.0,0.0,0.0,0.0,0.0,0.0,0.0,0.0,0.0,0.0,0.0,0.0,0.0,0.0,0.0,0.0,0.0,0.0,0.0,0.0,0.0,0.0,0.0,0.0,0.0,0.0,0.0,1.9874,2.1359,2.212,2.1658,2.1597,2.1353,2.0682,2.0633,2.0111,1.8873,1.7547,0.0,0.0,0.0,0.0,0.0,0.0,0.0,0.0,0.0,0.0,0.0,0.0,0.0,0.0,0.0,0.0,0.0,0.0,0.0,0.0,0.0,0.0,0.0,0.0,0.0,0.0,0.0,0.0,0.0,0.0,0.0,0.0,0.0,0.0,0.0,0.0,0.0,0.0,0.0,0.0,0.0,0.0,0.0,0.0,0.0,0.0,0.0,0.0,0.0,0.0,0.0,0.0,0.0,2.2409,2.2305,2.2295,2.1875,2.2152,2.2898,2.1212,2.0928,2.1574,2.0072,0.0,0.0,0.0,0.0,0.0,0.0,0.0,0.0,0.0,0.0,0.0,0.0,0.0,0.0,0.0,0.0,0.0,0.0,0.0,0.0,0.0,0.0,2.148,2.1211,2.1846,2.2286,2.1384,0.0,0.0,0.0,0.0,0.0,0.0,0.0,0.0,0.0,0.0,0.0,2.0597,2.1717,2.2203,2.1779,2.1718,2.1553,2.1134,2.1102,2.0797,2.0045,1.8643,1.7503,0.0,0.0,0.0,0.0,0.0,0.0,0.0,0.0,0.0,0.0,0.0,0.0,0.0,0.0,0.0,0.0,0.0,0.0,0.0,0.0,0.0,0.0,0.0,0.0,0.0,0.0,0.0,0.0,0.0,0.0,0.0,0.0,2.0614,2.229,0.0,0.0,0.0,0.0,0.0,0.0,0.0,0.0,0.0,0.0,0.0,0.0,0.0,2.288,2.3934,2.3915,2.4575,2.597,2.5939,2.591,2.5881,2.4838,2.4446,2.4518,2.2995,0.0,2.2016,2.1775,0.0,0.0,0.0,0.0,0.0,0.0,0.0,0.0,0.0,0.0,0.0,0.0,0.0,0.0,0.0,0.0,0.0,0.0,0.0,0.0,0.0,0.0,2.343,2.3656,2.3943,2.4152,2.4004,2.228,2.0517,1.9718,1.9286,1.8724,0.0,0.0,0.0,0.0,0.0,0.0,2.1329,2.2168,2.252,2.2234,2.2209,2.2017,2.1568,2.1521,2.109,2.006,1.979,1.91,1.7832,1.6583,0.0,0.0,0.0,0.0,0.0,0.0,0.0,0.0,0.0,0.0,0.0,0.0,0.0,0.0,0.0,0.0,0.0,0.0,0.0,0.0,0.0,0.0,0.0,0.0,0.0,0.0,0.0,0.0,0.0,2.0195,2.1632,2.2916,2.2698,2.2406,0.0,0.0,0.0,0.0,0.0,0.0,0.0,0.0,0.0,2.4702,2.4834,2.5201,2.5879,2.566,2.5897,2.6602,2.6602,2.6602,2.6583,2.5857,2.5528,2.5469,2.4638,2.4171,2.3897,2.2248,2.099,2.0036,0.0,0.0,0.0,0.0,1.988,2.0099,2.0911,2.0978,2.0675,2.0511,0.0,0.0,0.0,0.0,0.0,0.0,0.0,2.163,2.2725,2.335,2.3785,2.4113,2.4348,2.4537,2.4639,2.3869,2.2874,2.1902,2.1506,2.093,1.9748,1.9566,0.0,0.0,0.0,2.1505,2.2388,2.2774,2.294,2.2824,2.2811,2.273,2.2521,2.232,2.202,2.1544,2.0765,2.0176,1.9811,1.8188,1.6924,0.0,0.0,0.0,0.0,0.0,0.0,0.0,0.0,0.0,0.0,0.0,0.0,0.0,0.0,0.0,0.0,0.0,0.0,0.0,0.0,0.0,0.0,0.0,0.0,0.0,0.0,0.0,0.0,2.182,2.2693,2.3631,2.3488,2.3309,0.0,0.0,0.0,0.0,0.0,0.0,2.5031,2.5515,2.6079,2.6836,2.7002,2.7194,2.7424,2.7119,2.7072,2.7207,2.7207,2.7207,2.7207,2.67,2.6457,2.6416,2.5892,2.5651,2.5475,2.3135,2.193,2.1501,2.0985,2.0572,2.0316,2.0929,2.1139,2.1296,2.2343,2.2702,2.2688,2.2526,2.2528,2.2469,2.1769,0.0,0.0,0.0,0.0,2.3017,2.4154,2.447,2.4584,2.4827,2.4935,2.5001,2.5149,2.5088,2.474,2.3825,2.3535,2.3061,2.1903,2.1696,0.0,2.2162,0.0,2.2484,2.3228,2.3335,2.33,2.32,2.32,2.32,2.32,2.2972,2.2797,2.2725,2.1732,2.123,2.1465,1.9767,1.8456,1.7697,0.0,0.0,0.0,0.0,0.0,0.0,0.0,0.0,0.0,0.0,0.0,0.0,0.0,0.0,0.0,0.0,0.0,0.0,0.0,0.0,0.0,0.0,0.0,0.0,0.0,0.0,0.0,0.0,0.0,2.5368,2.4675,0.0,0.0,0.0,0.0,2.5234,2.5305,2.6002,2.7714,2.7769,2.7695,2.7555,2.7567,2.7718,2.8054,2.8025,2.8312,2.8877,2.8877,2.8877,2.8858,2.8058,2.771,2.7644,2.6558,2.6068,2.5991,2.5172,2.4518,2.4122,2.4222,2.3991,2.3703,2.4119,2.4275,2.4275,2.434,2.4372,2.4433,2.4735,2.5048,2.5369,2.5685,2.5571,0.0,0.0,2.5864,2.5963,2.6351,2.6594,2.674,2.6749,2.648,2.6206,2.6212,2.5571,2.4985,2.4916,2.4904,2.4732,2.4209,0.0,2.3051,2.3766,2.3125,2.2829,2.3573,2.3671,2.3555,2.3224,2.32,2.32,2.32,2.3177,2.3063,2.2816,2.2665,2.2495,2.2243,2.1468,2.0219,1.8489,1.7681,0.0,0.0,0.0,0.0,0.0,0.0,0.0,0.0,0.0,0.0,0.0,0.0,0.0,0.0,0.0,0.0,0.0,0.0,0.0,0.0,0.0,0.0,0.0,0.0,0.0,0.0,0.0,0.0,2.6266,2.6581,0.0,2.6726,2.6491,2.6561,2.7064,2.7174,2.7434,2.7962,2.8474,2.868,2.8577,2.9498,3.0038,3.0162,2.9851,2.982,3.0012,2.9329,2.9005,2.8975,2.8427,2.8197,2.8154,2.752,2.7268,2.7242,2.6964,2.6181,2.5135,2.5187,2.5119,2.5004,2.5164,2.507,2.4893,2.4893,2.4716,2.4567,2.4934,2.5438,2.5865,2.5804,2.6009,2.6213,2.6133,2.6355,2.663,2.6755,2.698,2.715,2.715,2.7145,2.7135,2.7135,2.6986,2.6864,2.6864,2.5865,2.4898,2.455,2.4357,2.4245,2.4194,2.3969,2.3915,2.4174,2.4106,2.3986,2.3865,2.3837,2.3837,2.3837,2.3649,2.3477,2.3393,2.2947,2.266,2.2563,2.2146,2.1373,2.0265,1.9479,1.7942,0.0,0.0,0.0,0.0,0.0,0.0,0.0,0.0,0.0,0.0,0.0,0.0,0.0,0.0,0.0,0.0,0.0,0.0,0.0,0.0,0.0,0.0,0.0,0.0,0.0,2.5278,2.6146,2.71,2.7681,2.8035,2.803,2.8087,2.8241,2.8496,2.855,2.8796,2.9324,2.9811,3.0196,3.0446,3.136,3.1812,3.1745,3.1427,3.1232,3.1125,3.006,2.9544,2.9514,2.8876,2.859,2.859,2.836,2.8268,2.8268,2.8268,2.7666,2.6722,2.648,2.6388,2.6388,2.6388,2.6245,2.6041,2.6041,2.5781,2.5529,2.6051,2.6506,2.6862,2.6759,2.7116,2.749,2.7273,2.7522,2.7838,2.7838,2.8029,2.8214,2.8214,2.8169,2.8102,2.8102,2.8002,2.7895,2.7895,2.6858,2.5918,2.5748,2.5565,2.5316,2.4925,2.4712,2.4586,2.4512,2.4384,2.433,2.4401,2.4275,2.4228,2.4294,2.3929,2.3703,2.3703,2.3177,2.2873,2.2873,2.2349,2.1706,2.0982,1.9945,1.8881,1.7786,0.0,0.0,0.0,0.0,0.0,0.0,0.0,0.0,0.0,0.0,0.0,0.0,0.0,0.0,0.0,0.0,0.0,0.0,0.0,0.0,0.0,0.0,0.0,2.5346,2.6115,2.7012,2.7929,2.8005,2.8044,2.8207,2.8155,2.8537,2.9531,2.9487,3.0193,3.193,3.1923,3.2236,3.3073,3.3006,3.2845,3.2646,3.2638,3.2515,3.2231,3.1154,3.0638,3.0609,2.9573,2.9102,2.909,2.909,2.909,2.9078,2.906,2.9042,2.8965,2.8233,2.794,2.794,2.794,2.7926,2.7911,2.7911,2.7648,2.7454,2.8166,2.8402,2.8496,2.8875,2.9181,2.9412,2.9402,2.9542,2.9713,2.9713,2.9861,3.0013,3.0013,2.9558,2.9146,2.9146,2.853,2.7992,2.7992,2.7992,2.7953,2.7915,2.7048,2.6275,2.6102,2.5366,0.0,2.459,2.4539,2.4575,2.4775,2.4435,2.4284,2.4469,2.402,2.3714,2.3714,2.3403,2.323,2.323,2.2211,2.131,2.0593,1.9143,1.8909,1.9929,0.0,0.0,0.0,0.0,0.0,0.0,0.0,0.0,0.0,0.0,0.0,0.0,0.0,0.0,0.0,0.0,0.0,0.0,0.0,0.0,0.0,2.5653,2.6231,2.6231,2.7505,2.8503,2.8771,2.9336,2.9971,3.0658,3.0748,3.1116,3.1961,3.2138,3.2394,3.2851,3.288,3.2953,3.3102,3.363,3.3861,3.3754,3.3567,3.3435,3.3339,3.2278,3.1761,3.1761,3.1458,3.1215,3.1039,3.1039,3.0923,3.0687,3.0118,2.9879,2.9782,2.8998,2.8688,2.8688,2.8688,2.8502,2.8237,2.7978,2.7992,2.8139,2.8324,2.873,2.9112,2.9021,2.9283,2.9589,2.9444,2.9643,2.9924,2.9924,3.0109,3.0299,3.0299,3.0163,3.0038,3.0038,2.9865,2.9712,2.9712,2.9712,2.9333,2.8102,2.7651,2.7439,2.7399,2.653,2.5874,2.5808,2.517,2.4685,2.4583,2.4486,2.4384,2.4284,2.4152,2.4064,2.4064,2.3753,2.3566,2.3566,2.3052,2.2664,2.2465,2.1015,2.0398,0.0,0.0,0.0,0.0,0.0,0.0,0.0,0.0,0.0,0.0,0.0,0.0,0.0,0.0,0.0,0.0,0.0,0.0,0.0,0.0,0.0,0.0,2.6581,2.7396,2.7508,2.8428,2.9242,2.9602,3.041,3.1135,3.166,3.205,3.2463,3.2953,3.3103,3.3331,3.3718,3.3789,3.3922,3.4174,3.4637,3.4861,3.4793,3.4629,3.4541,3.4492,3.3405,3.2866,3.2857,3.24,3.2119,3.1962,3.1962,3.1888,3.1697,3.1243,3.0969,3.0741,0.0,0.0,0.0,0.0,2.8749,2.8394,2.8373,2.8386,2.8458,2.873,2.9082,2.9392,2.9314,2.9533,2.9796,2.9687,2.9904,3.0182,3.0182,3.0273,3.0404,3.0404,3.0404,3.0404,3.0404,3.0404,3.0404,3.0404,3.0404,0.0,2.9121,2.864,2.8374,2.8297,2.7533,2.6802,2.6371,2.5798,2.5281,2.4886,2.4704,2.4607,2.453,2.4353,0.0,0.0,0.0,2.3812,2.3501,2.3302,0.0,0.0,0.0,0.0,0.0,0.0,0.0,0.0,2.1133,2.0902,0.0,0.0,0.0,0.0,0.0,0.0,0.0,0.0,0.0,0.0,0.0,0.0,0.0,0.0,0.0,0.0,2.7463,2.8555,2.8976,2.9181,2.9619,3.0456,3.1231,3.1775,3.1968,3.2622,3.312,3.3276,3.3296,3.3688,3.4586,3.464,0.0,0.0,0.0,3.567,3.5597,3.5602,3.5582,3.5489,3.4491,3.3999,3.3949,3.3006,3.255,3.2523,3.2523,3.2505,3.2458,3.2392,3.2136,3.1664,2.988,2.9125,2.9051,2.9051,2.8797,2.8509,2.891,0.0,0.0,2.9344,2.9603,2.9672,2.9915,3.0146,3.0302,3.0185,3.033,3.0519,3.0423,3.0404,3.0404,3.0404,3.0416,3.0414,3.0414,3.0425,3.0417,3.0417,3.0417,3.0417,3.0417,2.9778,2.9189,2.9021,2.8443,2.7684,2.6745,2.6453,2.6106,2.5484,2.5069,0.0,2.4974,2.4591,2.4489,2.4771,2.4526,2.4065,2.342,2.3382,2.3382,2.3382,2.3382,2.3844,2.4804,2.4782,2.467,2.4439,2.168,2.1282,0.0,0.0,0.0,0.0,0.0,0.0,0.0,0.0,0.0,0.0,0.0,0.0,0.0,0.0,0.0,2.7681,2.8198,2.8894,3.0296,3.0528,3.0768,3.1373,3.1602,3.2237,3.359,3.3859,3.425,3.4963,3.5071,3.517,3.5374,3.5444,3.5502,3.562,3.5664,3.5666,3.5597,3.5655,3.5642,3.5588,3.5353,0.0,3.5163,3.4961,3.4741,3.453,3.453,3.4423,3.4157,3.3459,3.2751,3.2005,3.0777,2.9896,2.932,2.932,2.9138,2.8922,2.9225,2.927,2.9373,3.0377,3.0793,3.1024,3.1568,3.2011,0.0,3.1286,3.1237,3.1288,3.0577,3.0404,3.0404,3.0404,3.0441,3.0482,3.0482,3.0517,3.0554,3.0554,3.0554,3.0554,3.0554,3.0327,3.015,3.0173,2.9436,2.8813,2.8671,2.7449,2.6492,2.614,2.5529,2.5047,2.485,2.477,2.4726,2.4811,2.4749,2.464,2.4496,2.4496,2.4496,2.4496,2.4496,2.4586,2.4804,2.4631,2.4545,2.4485,2.3899,2.3713,0.0,0.0,0.0,0.0,0.0,0.0,0.0,0.0,0.0,0.0,0.0,2.5488,0.0,0.0,2.7408,2.8527,2.9047,2.9787,3.1151,3.1359,3.1487,3.1857,3.2289,3.2888,3.3715,3.4324,3.4825,3.5258,3.5457,3.5552,3.5552,3.5616,3.5632,3.5603,3.5661,3.5668,3.5605,3.5669,3.5661,3.5603,3.5632,3.5635,3.5611,3.5611,3.5535,3.5403,3.5403,3.5316,3.5154,3.4597,3.3916,3.3192,3.2512,3.14,3.0199,3.0199,2.9849,2.9367,2.9494,2.9833,3.0302,3.0941,3.1507,3.2031,3.2439,3.2699,3.2795,3.2255,3.1904,3.162,3.1193,3.079,3.0457,3.05,3.054,3.0559,3.0559,3.0575,3.0603,3.0603,3.0603,3.0603,3.0603,3.0548,3.0516,3.0552,3.0149,2.973,2.9356,2.8563,2.7833,2.7258,2.6876,2.643,2.5856,2.538,2.5098,2.5049,2.5056,2.5056,2.5056,2.5056,2.5056,2.5056,2.5056,2.5056,2.5056,2.4949,2.4843,2.4759,2.4674,2.4691,0.0,0.0,0.0,0.0,0.0,0.0,0.0,0.0,2.4904,2.5331,2.6479,2.7358,2.7229,2.7858,2.8582,2.9136,2.9916,3.079,3.18,3.1964,3.2061,3.2389,3.3,3.3466,3.3646,3.4472,3.5016,3.5016,3.5273,3.5424,3.5424,3.552,3.5588,3.5588,3.5657,3.5652,3.5595,3.5666,3.5664,3.5592,3.5658,3.5668,3.5655,3.5655,3.5655,3.5655,3.5655,3.5655,3.565,3.5442,3.5021,3.4505,3.4309,3.3186,3.1592,3.12,3.0483,2.9732,2.9945,3.0471,3.1147,3.1699,3.234,3.2969,3.3294,3.3416,3.3383,3.321,3.2598,3.1953,3.1844,3.1172,3.0533,3.0587,3.0614,3.0625,3.0625,3.0636,3.0665,3.0665,3.0665,3.0665,3.0665,3.0665,3.0641,3.0628,3.0614,3.0378,2.9735,2.9523,2.9151,2.8425,2.8212,2.7772,2.6881,2.6094,2.5561,2.5331,2.5298,2.5308,2.5308,2.5308,2.5308,2.5308,2.5308,2.5385,2.5558,2.534,2.533,2.55,2.5172,2.5198,2.3115,2.292,2.3321,2.4365,2.505,2.5581,0.0,0.0,2.7268,2.7516,2.7698,2.7905,2.8172,2.8881,2.956,2.9998,3.0742,3.1562,3.2395,3.2506,3.2776,3.3526,3.3489,3.3702,3.4476,3.4658,3.4734,3.4734,3.499,3.5138,3.5138,3.5372,3.5515,3.5515,3.5577,3.5621,3.5592,3.567,3.5671,3.5603,3.5607,3.5581,3.5526,3.5526,3.5526,3.5526,3.5526,3.5526,3.5525,3.5554,3.5482,3.5364,3.5466,3.4863,3.3718,3.1936,3.059,2.9853,3.0798,3.1192,3.1546,3.3311,3.3948,3.4179,3.4981,3.5244,3.5145,3.4351,3.3617,3.2856,3.2094,3.1236,3.0594,3.0603,3.0652,3.0689,3.0689,3.0789,3.0877,3.0877,3.0877,3.0877,3.0877,3.0877,3.0834,3.0713,3.0645,3.0589,3.0567,2.9926,2.9423,2.9277,2.8669,2.7905,2.6966,2.6673,2.6223,2.5441,2.533,2.5308,2.5308,2.5308,2.5308,2.5308,2.5308,2.5673,2.6442,2.5499,2.583,2.7287,2.6316,2.5796,2.4179,2.4109,2.4433,0.0,2.5964,2.6351,2.7025,2.7759,2.8358,2.856,2.9006,2.9512,2.9996,3.0236,3.0687,0.0,3.1986,3.2375,3.3201,3.3311,3.3421,3.3752,3.3691,3.3788,3.4135,3.4318,3.4412,3.4412,3.4685,3.4879,3.4879,3.4972,3.5025,3.5025,3.5201,3.5304,3.5304,3.5526,3.5635,3.5601,3.5635,3.5634,3.5619,3.5619,3.5619,3.5619,3.5619,3.5619,3.5621,3.5659,3.5629,3.5556,3.5625,3.5076,3.4151,3.3425,3.255,3.1799,3.2256,3.274,3.3306,3.4109,3.4681,3.5146,3.551,3.5639,3.5585,3.5216,3.4197,3.3128,3.2796,3.1659,3.0609,3.064,3.0643,3.0646,3.0646,3.0695,3.0721,3.0721,3.0721,3.0721,3.0721,3.0721,3.0716,3.0701,3.0737,3.0785,3.0814,3.0523,3.0305,3.0276,2.9548,2.8885,2.8458,2.7899,2.7408,2.6995,2.644,2.6101,2.6101,2.5582,2.5308,2.5308,2.5808,2.6231,2.6601,2.6664,2.7058,2.7767,2.7185,2.7148,2.5054,0.0,0.0,2.6485,2.6911,2.7236,2.7873,2.8645,2.9289,2.9431,2.9967,3.0586,3.1202,3.125,3.1618,3.281,3.2958,3.3115,3.3715,3.3807,3.3807,3.3807,3.3807,3.3807,3.3807,3.3974,3.4179,3.4408,3.4723,3.5021,3.5246,3.5114,3.5023,3.5023,3.523,3.5323,3.5323,3.5783,3.6008,3.6008,3.6058,3.6091,3.6071,3.5869,3.5623,3.5416,3.5416,3.5416,3.5421,3.5514,3.5512,3.5479,3.5585,3.5209,3.4608,3.4761,3.4108,3.3152,3.3384,3.3889,3.4452,3.4703,3.5169,3.5632,3.5632,3.5665,3.5678,3.5678,3.4477,3.3202,3.3258,3.1933,3.0612,3.0664,3.0643,3.0603,3.0603,3.0603,3.0603,3.0603,3.0603,3.0603,3.0603,3.0623,3.0633,3.069,3.0815,3.0898,3.0898,3.0898,3.0898,3.0898,3.0332,2.9843,2.9541,2.8929,2.8445,2.8141,2.7471,2.7094,2.7094,2.6423,2.6044,2.6044,2.666,2.7063,2.7294,2.7698,2.814,2.8582,2.8191,2.8441,0.0,0.0,2.6511,2.7583,2.8448,2.9025,2.9044,2.9731,3.034,3.0365,3.0385,3.0586,3.1202,3.1715,3.2266,3.2903,3.342,3.377,3.3807,3.3807,3.3807,3.3807,3.3807,3.3807,0.0,3.382,3.4151,3.4926,3.5279,3.582,3.6596,3.6149,3.5861,3.5861,3.5872,3.5872,3.5872,3.6653,3.7049,3.7049,3.7049,3.706,3.7023,3.6262,3.5471,3.4725,3.4725,3.4725,3.4765,3.5082,3.5184,3.5146,3.5548,3.5632,3.5563,3.5647,3.4484,3.3026,3.3886,3.4199,3.4355,3.5195,3.5488,3.5508,3.5508,3.5541,3.5596,3.5596,3.445,3.3209,3.3206,3.1918,3.0592,3.0609,3.0606,3.0603,3.0603,3.0603,3.0603,3.0603,3.0603,3.0603,3.0603,3.0642,3.0693,3.0695,3.0815,3.0898,3.0898,3.0898,3.0898,3.0898,3.0879,3.0527,2.9668,2.9504,2.91,2.8258,2.8106,2.8055,2.8055,2.797,2.7931,2.7931,2.789,2.8242,2.9011,2.828,2.8736,3.0308,2.9448,2.9519,2.6027,0.0,2.7402,2.8439,2.8896,2.9261,2.9833,3.0192,3.0404,3.0404,3.026,3.0371,3.1153,3.1637,3.2144,3.287,3.3456,3.3807,3.3807,3.3807,3.3807,3.3807,3.3807,0.0,0.0,0.0,3.4137,3.4949,3.5096,3.5532,3.6394,3.6263,3.6163,3.6163,3.6348,3.6427,3.6427,3.6878,3.7099,3.7099,3.6556,3.6303,3.6284,3.5466,3.4958,3.4694,3.4694,3.4694,3.4704,3.4822,3.4841,3.4851,3.4977,3.5018,3.5034,3.5225,3.4905,3.4444,3.5,3.521,3.5249,3.5546,3.5624,3.5624,3.5624,3.5649,3.5666,3.5666,3.448,3.3193,3.3193,3.1866,3.0533,3.0533,3.0494,3.0472,3.0472,3.0472,3.0472,3.0472,3.0472,3.0482,3.0521,3.0544,3.0606,3.0687,3.0815,3.0898,3.0898,3.0898,3.0898,3.0898,3.0898,3.0781,3.0488,3.0448,3.0291,3.0017,2.9395,2.9026,2.9026,2.8408,2.8045,2.7993,2.8494,2.8874,2.9107,2.941,2.9846,3.0385,3.0096,3.0115,2.6961,2.7657,2.8376,2.9335,2.9563,2.9717,3.0269,3.0404,3.0404,3.0404,3.0189,3.0273,3.1146,3.1346,3.173,3.2821,3.3216,3.3568,3.4156,3.399,3.3917,3.4192,3.3972,3.3917,0.0,0.0,0.0,3.5389,3.5463,3.5973,3.7092,3.689,3.674,3.674,3.6897,3.6988,3.6988,3.7446,3.7667,3.7667,3.715,3.6751,3.6452,3.5941,3.5362,3.4801,3.4801,3.4644,3.4394,3.4486,3.4529,3.4529,3.4653,3.4694,3.4714,3.4898,3.4954,3.5032,3.5463,3.5626,3.5626,3.5626,3.5626,3.5626,3.5626,3.5626,3.5626,3.5626,3.4636,3.355,3.355,3.2256,3.0931,3.0931,3.0651,3.0404,3.0404,3.0404,3.0402,3.0439,3.0449,3.0452,3.0521,3.057,3.0617,3.0744,3.0838,3.0898,3.0898,3.0898,3.0898,3.0898,3.0898,3.0898,3.0898,3.0898,3.0898,3.0898,3.0329,2.9991,2.9991,2.9377,2.9009,2.8937,2.94,2.9631,2.9563,3.0135,3.0404,3.0404,3.0404,3.0404,2.8376,2.8989,2.9377,3.0192,3.0404,3.0404,3.0404,3.0404,3.0404,3.0404,3.0182,3.022,0.0,0.0,3.1131,3.2612,3.2742,3.3206,3.4784,3.4344,3.4174,0.0,0.0,0.0,0.0,0.0,0.0,3.6303,3.6358,3.7055,3.8615,3.7988,3.7566,3.7566,3.7566,3.7566,3.7566,3.8322,3.8707,3.8707,3.867,3.823,3.7492,3.7456,3.656,3.5059,3.5023,3.4564,3.3889,3.408,3.4183,3.42,3.4529,3.4653,3.4653,3.4663,3.4674,3.4744,3.5281,3.5479,3.5486,3.5486,3.5493,3.55,3.55,3.55,3.55,3.55,3.4872,3.4205,3.4205,3.2987,3.1756,3.1718,3.1096,3.05,3.0423,3.0462,3.0527,3.0495,3.0511,3.0529,3.0597,3.0667,3.0747,3.0879,3.0898,3.0898,3.0898,3.0898,3.0898,3.0898,3.0898,3.0898,3.0898,3.0898,3.0898,3.0898,3.0898,3.0898,3.0898,3.0771,3.0677,3.0611,3.0545,3.0467,3.0416,3.041,3.0404,3.0404,3.0404,3.0404,2.8873,2.954,3.0115,3.0346,3.0404,3.0404,3.0404,3.0404,3.0404,3.0404,3.0066,2.9666,0.0,0.0,0.0,3.0948,3.2371,0.0,3.4857,3.4821,0.0,3.5862,0.0,3.5734,3.5954,3.5973,0.0,3.7125,3.7199,3.7639,3.8652,3.8505,3.8395,3.8395,3.8395,3.8395,3.8395,3.8597,3.8707,3.8689,3.8083,3.7694,3.7474,3.6886,3.6376,3.5936,3.5279,3.4876,3.4651,3.4121,3.3902,3.3915,3.4005,3.403,3.4049,3.4253,3.4334,3.439,3.4774,3.5025,3.5207,3.5207,3.5346,3.55,3.55,3.55,3.55,3.55,3.4872,3.4205,3.4205,3.3391,3.2449,3.1833,3.1987,3.1929,3.0673,3.1385,3.1914,3.0728,3.0584,3.0644,3.0675,3.0768,3.0858,3.0898,3.0898,3.0898,3.0898,3.0898,3.0898,3.0898,3.0898,3.0898,3.0898,3.0898,3.0898,3.0898,3.0898,3.0898,3.0898,3.0878,3.0792,3.0679,3.0614,3.0545,3.0472,3.0422,3.0404,3.0404,3.0404,3.0404,2.9546,3.0019,3.0404,3.0404,3.0404,3.0308,2.9929,2.9766,2.9608,2.9238,2.8806,0.0,2.7879,2.8983,0.0,0.0,0.0,0.0,3.5475,3.5322,3.5445,0.0,3.6505,0.0,3.6795,3.6831,3.7162,3.7955,3.7694,3.786,3.867,3.8707,3.8578,3.8366,3.8596,3.8596,3.835,3.8133,3.8033,3.8033,3.7581,3.7364,3.7362,3.7105,3.6674,3.61,3.574,3.5235,3.4655,3.4037,3.3807,3.3807,3.3807,3.3807,3.3815,3.3974,3.4018,3.4043,3.4237,3.4486,3.4716,3.487,3.5035,3.5138,3.5138,3.5223,3.532,3.532,3.5053,3.4776,3.4776,3.4122,3.3353,3.2891,3.2852,3.2641,3.1692,3.2237,3.2645,3.1763,3.1398,3.1233,3.1272,3.1021,3.0837,3.0898,3.0898,3.0898,3.0898,3.0898,3.0898,3.0898,3.0898,3.0898,3.0898,3.0898,3.0898,3.0898,3.0898,3.0898,3.0898,3.0898,3.0837,3.0696,3.0669,3.0603,3.0498,3.0467,3.0433,3.0404,3.0404,3.0404,3.0192,3.0404,3.0404,3.0404,3.0404,3.0167,2.9258,2.8925,2.8553,2.7725,0.0,2.6869,2.6758,2.7559,2.8703,3.0199,0.0,3.3032,3.6248,3.5813,3.5793,3.7456,3.7037,3.689,3.7584,3.7658,3.7936,3.8652,3.8046,3.797,3.867,3.8627,3.835,3.7825,3.8251,3.8267,3.7807,3.7396,3.7209,3.7209,3.7209,3.7209,3.721,3.7614,3.7166,3.6075,3.62,3.5529,3.4337,3.3938,3.3739,3.3721,3.3721,3.3748,3.3807,3.3807,3.3807,3.3807,3.3807,3.3948,3.4206,3.4529,3.4663,3.4694,3.4694,3.4851,3.5053,3.5053,3.5231,3.5439,3.5391,3.4889,3.4334,3.4172,3.3686,3.3179,3.2949,3.291,3.2958,3.3151,3.2586,3.2093,3.2149,3.1441,3.0894,3.1033,3.0956,3.0879,3.0898,3.0898,3.0898,3.0898,3.0898,3.0898,3.0898,3.0898,3.0898,3.0898,3.0898,3.0898,3.0898,3.0898,3.0857,3.0722,3.0717,3.0648,3.0505,3.0507,3.0472,3.0404,3.0404,3.0404,3.0365,3.0404,3.0404,3.0404,3.0404,3.0124,2.9091,2.8835,0.0,0.0,2.7109,2.6702,2.6029,2.7513,2.9001,2.9517,0.0,0.0,0.0,0.0,3.6688,0.0,0.0,0.0,3.8487,3.8487,0.0,3.8689,3.8579,3.856,3.8689,3.8283,3.7825,3.7341,3.7414,3.7433,3.7323,3.7229,3.7209,3.7209,3.7209,3.7209,3.7192,3.7285,3.7196,3.6944,3.6274,3.5492,3.4657,3.3944,3.3492,3.3302,3.3302,3.3508,3.3807,3.3807,3.3807,3.3807,3.3807,3.3829,3.3915,3.4195,3.4467,3.4694,3.4694,3.4724,3.4764,3.4764,3.4963,3.5113,3.4898,3.5059,3.5042,3.4094,3.4472,3.4654,3.3218,3.2949,3.3204,3.394,3.3475,3.2986,3.2983,3.2269,3.1712,3.1802,3.1208,3.0771,3.0898,3.0898,3.0898,3.0898,3.0898,3.0898,3.0898,3.0898,3.0898,3.0898,3.0898,3.0898,3.0898,3.0898,3.0898,3.0878,3.0767,3.0667,3.0584,3.0525,3.0472,3.0404,3.0404,3.0404,3.0404,3.0404,3.0404,3.0404,3.0404,3.0003,2.8517,0.0,0.0,0.0,2.5659,2.5375,2.4995,0.0,0.0,0.0,0.0,0.0,0.0,0.0,0.0,0.0,0.0,0.0,0.0,3.8707,3.8707,3.8707,3.8707,3.8707,3.8707,3.8183,3.779,3.7578,3.7058,3.6783,3.6783,3.6501,3.6357,3.6357,3.6357,3.6357,3.6378,3.6664,3.6623,3.6329,3.5898,3.5331,3.4695,3.3988,3.3628,3.3508,3.3508,3.3638,3.3807,3.3807,3.3807,3.3807,3.3807,3.3807,3.3815,3.3948,3.4093,3.4232,3.4232,3.433,3.4434,3.4434,3.4655,3.4851,3.4724,3.499,3.5151,3.4615,3.4998,3.5269,3.4423,3.4289,3.4415,3.4839,3.426,3.3727,3.3768,3.304,3.2356,3.2058,3.1643,3.127,3.0937,3.0898,3.0898,3.0898,3.0898,3.0898,3.0898,3.0898,3.0898,3.0898,3.0898,3.0898,3.0898,3.0898,3.0898,3.0898,3.0837,3.0734,3.0603,3.0565,3.0494,3.0404,3.0404,3.0404,3.0305,3.0311,3.0323,3.0392,3.0404,2.9901,2.7974,2.7421,0.0,0.0,2.4257,2.4103,2.418,0.0,0.0,0.0,0.0,0.0,0.0,0.0,0.0,0.0,0.0,0.0,3.8707,3.8707,0.0,3.8707,3.8707,3.8643,3.853,3.8032,3.7702,3.7578,3.6706,3.6224,3.6224,3.5827,3.56,3.56,3.56,3.56,3.5622,3.6049,3.6054,3.5764,3.5586,3.5173,3.4552,3.4065,3.3728,3.3518,3.362,3.3721,3.3807,3.3807,3.3807,3.3807,3.3807,3.3807,3.3807,3.3807,3.3807,3.3807,3.3807,3.3999,3.42,3.42,3.4478,3.4764,3.4704,3.4944,3.519,3.519,3.5354,3.55,3.55,3.55,3.55,3.55,3.4949,3.4507,3.4558,3.3826,3.3097,3.2601,3.2229,3.1785,3.1249,3.1016,3.0898,3.0898,3.0898,3.0898,3.0898,3.0898,3.0898,3.0898,3.0898,3.0898,3.0898,3.0898,3.0898,3.0898,3.0898,3.0807,3.0603,3.0603,3.0529,3.0404,3.0404,3.05,2.9984,3.0047,3.0089,3.0349,3.0404,2.9857,2.7808,0.0,0.0,2.4654,2.3968,2.3837,2.4151,2.4613,0.0,0.0,0.0,3.0259,0.0,0.0,0.0,0.0,0.0,0.0,3.8707,3.8707,3.8707,3.8707,3.8707,3.8481,3.7997,3.7524,3.7039,3.6542,3.5985,3.5672,3.5672,3.5605,3.56,3.56,3.56,3.56,3.56,3.5667,3.592,3.6291,3.5809,3.5097,3.4225,3.4125,3.3493,3.2665,3.309,3.348,3.3807,3.3807,3.3807,3.3807,3.3807,3.3807,3.3807,3.3807,3.3807,3.3807,3.3807,3.3999,3.42,3.42,3.4626,3.4999,3.4754,3.5088,3.5453,3.5453,3.5486,3.55,3.55,3.55,3.55,3.55,3.5442,3.5372,3.5386,3.4661,3.4135,3.4259,3.2924,3.1943,3.2069,3.1387,3.0898,3.0898,3.0898,3.0898,3.0898,3.0898,3.0898,3.0898,3.0898,3.0898,3.0898,3.0898,3.0898,3.0898,3.0898,3.0807,3.0603,3.0603,3.0529,3.0404,3.0404,3.0827,2.962,2.9908,2.9991,2.9973,2.9706,2.8986,2.722,0.0,2.5616,2.3945,2.366,2.3682,2.3599,2.4088,2.5012,2.6672,2.7077,2.8439,3.2004,0.0,0.0,0.0,0.0,0.0,0.0,0.0,3.8562,3.8232,3.7947,3.7703,3.7488,3.756,3.7248,3.6416,3.6203,3.592,3.56,3.56,3.56,3.56,3.56,3.56,3.56,3.56,3.5717,3.5902,3.551,3.515,3.4772,3.4375,3.3962,3.3584,3.3575,3.3666,3.3807,3.3807,3.3807,3.3807,3.3807,3.3807,3.3807,3.3807,3.3807,3.3807,3.3807,3.3999,3.42,3.42,3.4521,3.4822,3.4724,3.4972,3.5297,3.5453,3.55,3.55,3.55,3.55,3.55,3.55,3.55,3.55,3.55,3.5212,3.4847,3.4444,3.3864,3.3126,3.2207,3.1853,3.168,3.168,3.1211,3.0898,3.0898,3.0898,3.0898,3.0898,3.0898,3.0898,3.0898,3.0898,3.0898,3.0898,3.0898,3.0807,3.0603,3.0603,3.0529,3.0404,3.0942,3.1371,2.8849,2.9461,2.9796,2.9731,2.9126,2.8204,0.0,2.5797,2.4777,2.3459,2.3311,2.3357,2.3242,2.3493,2.4165,2.5397,2.5733,2.6993,3.0257,3.1386,0.0,0.0,0.0,3.6882,3.7306,3.7887,3.81,3.772,3.7378,3.7133,3.6962,3.7285,3.7117,3.6416,3.6245,3.5985,3.56,3.56,3.56,3.56,3.56,3.56,3.56,3.56,3.5689,3.582,3.5227,3.507,3.5188,3.45,3.4102,3.3917,3.3941,3.3812,3.3652,3.3748,3.3807,3.3807,3.3807,3.3807,3.3807,3.3807,3.3807,3.3807,3.3807,3.4062,3.4345,3.4345,3.4626,3.4935,3.4935,3.5079,3.5273,3.5472,3.55,3.55,3.55,3.55,3.55,3.55,3.55,3.55,3.55,3.55,3.5303,3.4781,3.4578,3.399,3.2571,3.2278,3.2207,3.2207,3.1641,3.1289,3.1289,3.1289,3.1172,3.0918,3.0898,3.0898,3.0898,3.0898,3.0898,3.0898,3.0898,3.0807,3.0603,3.0856,3.0913,3.0808,3.166,3.2199,2.7548,2.8553,2.9454,2.9643,2.8847,2.7746,0.0,2.5625,2.4504,2.3413,2.2947,2.281,2.3141,2.2935,2.3079,2.4226,2.5025,2.6353,2.8784,3.0437,0.0,0.0,0.0,3.5226,3.5953,3.675,3.721,3.7209,3.7192,3.698,3.6437,3.6416,3.6395,3.6395,3.5876,3.56,3.56,3.56,3.56,3.56,3.56,3.56,3.56,3.56,3.5898,3.6319,3.5053,3.4797,3.524,3.4439,3.3677,3.3096,3.3955,3.3839,3.3258,3.3648,3.3807,3.3807,3.3807,3.3807,3.3807,3.3807,3.3807,3.3807,3.3807,3.422,3.4684,3.4684,3.5088,3.5493,3.5493,3.5493,3.55,3.55,3.55,3.55,3.55,3.55,3.55,3.55,3.55,3.55,3.55,3.55,3.5522,3.559,3.4971,3.4208,3.3393,3.2649,3.2207,3.2207,3.2187,3.2187,3.2187,3.2187,3.1816,3.0957,3.0898,3.0898,3.0898,3.0898,3.0898,3.0898,3.0898,3.0807,3.0603,3.1475,3.182,3.1718,3.2506,3.3353,2.5578,2.6459,2.7057,2.6934,2.6345,2.5637,2.4944,2.4055,2.3223,2.2699,2.2639,2.2673,2.2594,2.2845,2.3611,2.5348,2.5784,0.0,0.0,0.0,0.0,3.3422,3.4985,3.6175,0.0,3.6386,3.627,3.6641,3.6312,3.6032,3.5854,3.5854,3.5854,3.5854,3.5694,3.56,3.56,3.56,3.56,3.56,3.56,3.56,3.56,3.56,3.5694,3.5815,3.5435,3.5338,3.5416,3.4502,3.395,3.3715,3.3246,3.312,3.3214,3.3332,3.3564,3.3807,3.3807,3.3807,3.3807,3.3807,3.3807,3.3807,3.3807,3.4062,3.4401,3.4643,3.4954,3.5223,3.5223,3.5361,3.55,3.55,3.55,3.55,3.55,3.55,3.55,3.55,3.55,3.55,3.55,3.55,3.5501,3.5541,3.5408,3.4815,3.3409,3.3107,3.2812,3.2266,3.2695,3.3027,3.3027,3.3027,3.2891,3.2637,3.2617,3.2363,3.1816,3.1797,3.1504,3.0918,3.0898,3.0807,3.0603,3.1475,3.2421,3.341,3.3667,3.4257,0.0,2.4607,2.5364,2.5187,2.4572,2.3928,2.3581,2.2866,2.2244,2.2073,2.2309,2.2487,2.2321,2.2611,2.3267,2.4531,2.5163,2.6272,0.0,0.0,0.0,3.249,0.0,0.0,3.5732,3.5664,3.5739,3.6075,3.5805,3.56,3.56,3.56,3.56,3.56,3.56,3.5464,3.5199,3.5447,3.5447,3.5199,3.5464,3.56,3.56,3.56,3.56,3.5583,3.5318,3.5177,0.0,3.4216,3.3674,3.3373,3.2877,3.2664,3.2679,3.2856,3.309,3.3328,3.3522,3.3564,3.3592,3.3748,3.3807,3.3807,3.3807,3.3999,3.4258,3.4612,3.4813,3.4972,3.5079,3.5223,3.5376,3.5486,3.55,3.55,3.55,3.55,3.55,3.55,3.55,3.55,3.55,3.55,3.55,3.55,3.5595,3.5041,3.3336,3.3269,3.3178,3.2672,3.3085,3.3672,3.4336,3.4082,3.375,3.3418,3.3398,3.3184,3.2676,3.2363,3.1934,3.1406,3.1074,3.0812,3.0645,3.1767,3.3127,3.468,3.468,3.4988,0.0,0.0,0.0,0.0,2.3331,2.2577,2.2577,2.2069,0.0,2.1597,2.1957,2.2313,2.2364,2.233,2.2347,2.2499,2.368,2.5083,0.0,2.8147,0.0,0.0,3.2527,0.0,3.3474,3.467,3.5442,3.547,3.5419,3.5363,3.5318,3.5363,3.5386,3.5386,3.5408,3.5143,3.4573,3.5216,3.5182,3.4506,3.5148,3.543,3.543,3.543,3.543,3.5397,3.4726,3.4421,3.4353,3.3626,3.2916,3.2334,3.2704,3.2429,3.1844,3.2299,3.2467,3.2567,3.2999,3.3154,3.3229,3.362,3.3793,3.3807,3.3807,3.3974,3.4242,3.454,3.4653,3.4724,3.4972,3.5079,3.5155,3.5398,3.5493,3.55,3.55,3.55,3.55,3.55,3.55,3.55,3.55,3.55,3.55,3.55,3.555,3.4986,3.3306,3.3261,3.3363,3.3313,3.3413,3.4141,3.5762,3.5215,3.4453,3.3633,3.3574,3.3555,3.3496,3.2773,3.2324,3.2207,3.1328,3.0855,3.0788,3.2272,3.3832,3.5404,3.5462,3.55,1.826,0.0,2.1181,2.1181,2.1279,2.1391,0.0,2.1497,2.1597,0.0,0.0,0.0,2.3038,2.2682,2.2854,2.4544,2.5118,2.5862,2.7334,0.0,0.0,3.1938,3.2848,3.3626,3.4184,3.4049,3.396,3.406,3.3549,3.303,3.2557,3.2984,3.3228,3.3228,3.3681,3.4387,3.5329,3.4962,3.4675,3.4489,3.41,3.3909,3.3909,3.3909,3.3909,3.3914,3.3744,3.366,3.3609,3.2848,3.2462,3.2242,3.1786,3.1699,3.1808,3.1915,3.2179,3.2517,3.2632,3.2665,3.2745,3.3181,3.355,3.3807,3.3807,3.3842,3.3915,3.3992,3.4153,3.4327,3.4394,3.4746,3.5113,3.5182,3.5354,3.55,3.55,3.55,3.55,3.55,3.55,3.55,3.55,3.55,3.55,3.55,3.555,3.5218,3.4138,3.4176,3.4044,3.3363,3.3959,3.4551,3.4961,3.543,3.5605,3.5391,3.5391,3.5098,3.4414,3.4219,3.3516,3.2226,3.1243,3.1038,3.1618,3.2546,3.3528,3.4526,3.5192,3.55,1.651,1.7838,1.9294,1.954,1.9818,2.0093,2.0347,0.0,0.0,0.0,0.0,0.0,0.0,0.0,0.0,0.0,2.4663,0.0,0.0,0.0,3.1246,3.1374,3.2039,3.2641,3.3026,3.2768,3.2599,3.2677,3.2304,3.1936,3.1606,3.1906,3.2092,3.2092,3.2406,3.2929,3.3662,3.3612,3.3284,3.2652,3.2602,3.2713,3.2988,3.2988,3.3139,3.3406,3.3406,3.322,3.2848,3.2462,3.2107,3.1769,3.136,3.1332,3.1509,3.1509,3.1677,3.1932,3.2109,3.2333,3.2534,3.2811,3.3166,3.3522,3.3522,3.3648,3.3807,3.3807,3.3902,3.4043,3.4171,3.4438,3.4735,3.487,3.5122,3.5312,3.5312,3.5398,3.55,3.55,3.55,3.55,3.55,3.55,3.55,3.55,3.5528,3.5235,3.438,3.4428,3.4379,3.3894,3.4364,3.4863,3.5254,3.5723,3.5996,3.5996,3.5996,3.5781,3.5312,3.4531,3.3496,3.2226,3.2028,3.232,3.3142,3.3506,3.4095,3.4857,3.529,3.55,1.561,1.6697,1.7987,1.8516,1.8779,1.9024,0.0,0.0,0.0,0.0,0.0,0.0,0.0,0.0,0.0,0.0,0.0,0.0,2.7827,2.9649,3.0623,3.0213,3.0712,3.1145,3.1243,3.1251,3.1262,3.1302,3.1182,3.1087,3.0974,3.1087,3.1134,3.1134,3.123,3.1175,3.0964,3.1773,3.1619,3.05,3.1036,3.1519,3.2032,3.2032,3.2359,3.2925,3.2925,3.2613,3.2141,3.2141,3.1769,3.119,3.119,3.119,3.119,3.119,3.119,3.1249,3.1584,3.2021,3.2383,3.2383,3.2713,3.3124,3.3184,3.3451,3.3721,3.3775,3.3807,3.3855,3.4093,3.4171,3.4258,3.4551,3.4832,3.5053,3.5053,3.5239,3.5439,3.5439,3.546,3.55,3.55,3.55,3.55,3.55,3.55,3.5231,3.4487,3.4555,3.4675,3.4679,3.4799,3.5195,3.5937,3.5996,3.5996,3.5996,3.5996,3.5996,3.5996,3.4453,3.3281,3.2598,3.3125,3.3726,3.4399,3.4472,3.4808,3.5392,3.547,3.55,1.561,1.6148,1.6879,1.7415,1.8243,1.893,1.9006,0.0,0.0,0.0,0.0,0.0,0.0,2.2348,2.2587,0.0,0.0,2.6394,0.0,0.0,2.8952,2.946,2.9637,2.9949,3.0573,3.009,2.9782,2.9906,2.9325,2.8748,2.8247,2.87,2.8989,2.8989,2.9474,2.9496,2.8959,3.0169,3.0688,3.0484,2.9973,2.9794,2.9884,2.9884,3.0195,3.0787,3.0787,3.0987,3.136,3.136,3.1292,3.119,3.119,3.119,3.119,3.119,3.119,3.121,3.1271,3.1564,3.1915,3.1915,3.2213,3.2681,3.3075,3.3243,3.3361,3.3707,3.3807,3.3802,3.3855,3.4031,3.4211,3.4258,3.451,3.4754,3.4754,3.4972,3.5155,3.5155,3.5335,3.55,3.55,3.55,3.55,3.55,3.55,3.5442,3.5327,3.538,3.5445,3.5502,3.5646,3.5787,3.5976,3.5996,3.5996,3.5996,3.5996,3.5996,3.5996,3.5039,3.4434,3.4316,3.3711,3.3435,3.3508,3.4164,3.4501,3.4526,3.52,3.55,1.463,1.532,1.6061,1.633,1.746,1.8678,1.9309,0.0,0.0,0.0,0.0,0.0,0.0,0.0,2.3122,2.5431,0.0,2.7045,2.7704,2.8443,2.8905,2.8919,2.8919,2.9045,2.9391,2.8466,2.8029,2.8478,2.7846,2.7479,2.7585,2.786,2.783,2.7439,2.7685,2.771,2.7414,2.8022,2.8547,2.8945,2.8587,2.8614,2.8919,2.8919,2.9248,2.9805,2.9805,2.9973,3.023,3.023,3.0414,3.072,3.072,3.0918,3.119,3.119,3.119,3.119,3.119,3.1312,3.1487,3.1487,3.177,3.2161,3.2383,3.2614,3.2903,3.3346,3.362,3.3807,3.3807,3.3889,3.3986,3.3986,3.4206,3.4423,3.4423,3.4665,3.4926,3.5079,3.5198,3.532,3.5486,3.55,3.55,3.55,3.55,3.55,3.55,3.5556,3.5611,3.5633,3.5808,3.591,3.5946,3.5975,3.5996,3.5996,3.5996,3.5781,3.5312,3.5371,3.5176,3.4707,3.4766,3.4785,3.476,3.5022,3.5118,3.5068,3.5353,3.55,1.3792,1.4675,1.561,1.561,0.0,1.8251,1.9265,0.0,0.0,0.0,0.0,0.0,0.0,2.2615,0.0,2.572,2.671,2.7244,2.7187,2.7919,2.8299,2.7834,2.776,2.776,2.776,2.686,2.6469,2.7045,2.6549,2.6496,2.7045,2.7071,2.6837,2.6256,2.6229,2.6229,2.6229,2.6229,2.6602,2.7331,2.7331,2.7479,2.7784,2.7947,2.8345,2.8926,2.9118,2.9271,2.9406,2.9406,2.9673,3.0102,3.0102,3.0372,3.0797,3.0955,3.0995,3.1015,3.1151,3.119,3.119,3.119,3.1411,3.1678,3.1771,3.2039,3.2416,3.2887,3.3346,3.368,3.378,3.3807,3.3807,3.3807,3.3961,3.4099,3.4099,3.4357,3.4634,3.4841,3.5008,3.5174,3.5369,3.5453,3.55,3.55,3.55,3.55,3.55,3.554,3.5574,3.5605,3.5748,3.5856,3.59,3.5951,3.5996,3.5996,3.5996,3.5703,3.5039,3.5644,3.5684,3.5019,3.5664,3.5996,3.5996,3.5832,3.5755,3.5729,3.5611,3.5547,1.3792,1.4675,1.561,1.561,1.6505,0.0,1.8176,1.8681,0.0,1.9797,0.0,0.0,0.0,2.3708,2.5269,2.4883,2.5796,2.657,2.657,2.6065,2.5673,2.5632,2.5605,2.5605,2.5605,2.5536,2.5508,2.5563,2.5508,2.5508,2.5563,2.5563,2.5536,2.5481,2.5481,2.5481,2.5481,2.5481,2.5837,2.659,2.659,2.6242,2.5659,2.6322,2.6975,2.7585,2.8273,2.8873,2.9406,2.9406,2.9429,2.9451,2.9451,2.9496,2.9607,3.0166,3.0356,3.0456,3.1015,3.119,3.119,3.119,3.123,3.131,3.1696,3.1808,3.1951,3.2417,3.2872,3.3332,3.3707,3.3807,3.3807,3.3807,3.3815,3.3829,3.3829,3.4043,3.4235,3.4258,3.4716,3.5105,3.5122,3.5346,3.55,3.55,3.55,3.55,3.55,3.5494,3.5528,3.5595,3.5606,3.5706,3.5875,3.5951,3.5996,3.5996,3.5996,3.5976,3.5918,3.5976,3.5976,3.5918,3.5976,3.5996,3.5996,3.5919,3.5896,3.5877,3.5749,3.565,1.3238,1.4131,1.5039,1.5039,1.593,0.0,0.0,1.9181,1.9858,2.0795,2.0863,0.0,0.0,0.0,2.4946,2.4629,2.5645,2.6336,2.5864,2.5563,2.5398,2.5398,2.5398,2.5398,2.5398,2.4979,2.4894,2.537,2.4979,2.4922,2.537,2.5398,2.5175,2.4738,2.4709,2.4709,2.4709,2.4709,2.4879,2.5147,2.5591,2.5673,2.5398,2.5673,2.5945,2.6185,2.6465,2.696,2.7595,2.7595,2.8103,2.8873,2.9248,2.9406,2.9429,2.9651,2.9739,2.9827,3.0435,3.0638,3.0699,3.1092,3.119,3.123,3.1389,3.143,3.1526,3.195,3.2196,3.25,3.3225,3.3606,3.3807,3.3807,3.3807,3.3807,3.3807,3.3876,3.4012,3.4171,3.4383,3.4656,3.5034,3.519,3.5304,3.5467,3.55,3.55,3.55,3.55,3.5508,3.5534,3.5577,3.5644,3.5761,3.5882,3.5944,3.5944,3.5975,3.5996,3.5996,3.5996,3.5996,3.5996,3.5996,3.5996,3.5996,3.5922,3.5901,3.5901,3.5764,3.5686,1.2996,1.3943,1.4994,0.0,0.0,0.0,1.8504,1.9152,1.9753,2.0866,2.0942,0.0,2.1624,0.0,0.0,0.0,2.4967,2.5618,2.5119,2.4838,2.4654,2.4654,2.4654,2.4654,2.4654,2.4221,2.4134,2.4639,2.4221,2.4134,2.4639,2.4654,2.4439,2.3943,2.3914,2.3914,2.3914,2.3914,2.3914,2.3943,2.4439,2.4654,2.4696,2.4951,2.5035,2.5063,2.5287,2.5673,2.6149,2.6149,2.6704,2.7595,2.8218,2.8481,2.8544,2.8973,2.9111,2.9203,2.9805,3.0016,3.0123,3.072,3.0918,3.0938,3.1151,3.119,3.1269,3.1528,3.1715,3.1899,3.2312,3.2997,3.3606,3.3606,3.3707,3.3807,3.3807,3.3807,3.3855,3.4043,3.4147,3.4327,3.4736,3.4898,3.5044,3.5215,3.5312,3.5376,3.5376,3.5446,3.55,3.55,3.5556,3.5626,3.5652,3.5761,3.5838,3.5838,3.5921,3.5975,3.5996,3.5996,3.5996,3.5996,3.5996,3.5996,3.5996,3.5949,3.5921,3.5921,3.5834,3.5785,1.3224,1.4317,1.5588,0.0,0.0,0.0,1.8078,1.8204,1.8518,1.9585,0.0,2.0942,2.1484,2.2689,0.0,2.2711,2.3542,2.4292,2.4292,2.359,2.3108,2.3108,2.3108,2.3108,2.3108,2.3108,2.3108,2.3108,2.3108,2.3108,2.3108,2.3108,2.3108,2.3108,2.3108,2.3108,2.3108,2.3078,2.3078,2.3108,2.3065,2.3065,2.3138,2.3943,2.4292,2.4321,2.5063,2.537,2.5398,2.5398,2.5398,2.5481,2.6203,2.6484,2.6654,2.7987,2.8487,2.8559,2.918,2.9384,2.9496,3.0102,3.0293,3.0414,3.0998,3.119,3.1173,3.1173,3.1471,3.1599,3.0872,3.193,3.3181,3.3181,3.3508,3.3788,3.3788,3.3807,3.3807,3.3807,3.4006,3.4188,3.42,3.4486,3.4694,3.4694,3.4926,3.5096,3.5105,3.532,3.55,3.55,3.5556,3.5605,3.5605,3.5663,3.5703,3.5703,3.5814,3.5939,3.5996,3.5996,3.5996,3.5996,3.5996,3.5996,3.5996,3.5996,3.5996,3.5996,3.5996,3.5952,1.2454,1.3697,0.0,1.4971,0.0,0.0,0.0,1.8481,0.0,0.0,1.9952,2.0284,2.0858,2.2009,0.0,2.2424,2.3449,2.4089,2.3543,2.3245,2.3108,2.3108,2.3108,2.3108,2.3108,2.3108,2.3108,2.3108,2.3108,2.3108,2.3108,2.3108,2.3108,2.3108,2.3108,2.3108,2.3108,2.2537,2.2537,2.3078,2.1896,2.1959,2.3108,2.3335,2.3454,2.3484,2.3708,2.4105,2.4681,2.5175,2.5398,2.5425,2.5646,2.5728,2.5837,2.6771,2.7082,2.7261,2.8376,2.8756,2.8873,2.9473,2.9673,2.9686,2.9766,2.9779,2.9776,2.9675,2.9747,2.9789,2.955,3.0474,3.1521,3.1862,3.2676,3.3375,3.3375,3.3592,3.3807,3.3807,3.385,3.3986,3.4171,3.4269,3.4423,3.4663,3.4764,3.4889,3.5079,3.5174,3.5289,3.5486,3.5528,3.5522,3.5522,3.559,3.563,3.563,3.5712,3.5812,3.5918,3.5974,3.5996,3.5996,3.5996,3.5996,3.5996,3.5996,3.5996,3.5996,3.5996,3.5996,1.2853,1.4149,0.0,1.5715,1.6741,1.7903,1.8668,0.0,0.0,0.0,1.9962,2.0049,2.0867,2.1474,0.0,2.2241,2.2994,2.3405,2.313,2.3108,2.3108,2.3108,2.3108,2.3108,2.3108,2.3108,2.3108,2.3108,2.3108,2.3108,2.3108,2.3108,2.3108,2.3108,2.2793,2.2628,2.2628,2.1815,2.1647,2.2082,2.1069,2.1132,2.2125,2.2125,2.231,2.2628,2.2944,2.3203,2.3416,2.4179,2.4496,2.4525,2.4838,2.4951,2.5035,2.5783,2.6068,2.6188,2.7001,2.7268,2.7354,2.7987,2.8186,2.8246,2.8404,2.8454,2.8502,2.8651,2.8682,2.8652,2.8549,2.926,3.0214,3.0952,3.203,3.2921,3.2921,3.3121,3.3328,3.3536,3.3564,3.3657,3.3981,3.4043,3.4105,3.4307,3.4431,3.4614,3.4889,3.4944,3.5034,3.5312,3.5346,3.5383,3.5493,3.554,3.5556,3.5556,3.5616,3.569,3.5785,3.5853,3.5902,3.5951,3.5951,3.5974,3.5996,3.5996,3.5996,3.5996,3.5996,3.5996,1.3783,0.0,0.0,1.7095,1.7706,0.0,1.956,1.9798,1.9949,2.0503,0.0,2.0125,2.1245,2.1031,2.1056,2.2133,2.2309,2.2498,2.3032,2.3108,2.3108,2.3108,2.3108,2.3108,2.3108,2.3108,2.3108,2.3108,2.3108,2.3108,2.3108,2.3108,2.3078,2.2975,2.2279,2.1846,2.1784,2.091,2.0526,2.059,2.043,2.0398,2.0494,2.0558,2.1037,2.1815,2.2567,2.2445,2.1846,2.2567,2.2884,2.2932,2.3754,2.4076,2.4192,2.5007,2.5287,2.5315,2.537,2.5398,2.5481,2.5989,2.6167,2.6324,2.6896,2.7089,2.7254,2.7765,2.7921,2.7869,2.7626,2.8242,2.9183,3.0229,3.1428,3.2346,3.2416,3.2467,3.2632,3.3045,3.3184,3.3317,3.3694,3.378,3.3807,3.3807,3.4006,3.4288,3.4603,3.4653,3.4754,3.5025,3.5051,3.5182,3.5439,3.5453,3.546,3.55,3.555,3.559,3.559,3.5667,3.5761,3.5875,3.5877,3.5916,3.5975,3.5976,3.5996,3.5996,3.5996,3.5996,0.0,1.4275,0.0,0.0,1.7096,1.848,1.956,1.9798,1.9836,1.9962,1.9886,2.0012,2.0742,2.0779,2.1056,2.2133,2.2309,2.2498,2.3032,2.3108,2.3108,2.3108,2.3108,2.3108,2.3108,2.3108,2.3108,2.3108,2.3108,2.3108,2.3108,2.3108,2.2823,2.2199,2.2002,2.1553,2.0878,2.0009,1.9911,2.059,1.9199,1.8911,1.9595,2.0301,2.0687,2.0878,2.1069,2.1037,2.0878,2.1069,2.1132,2.1227,2.2082,2.2421,2.2604,2.4005,2.4538,2.4624,2.5203,2.5398,2.5343,2.5006,2.4899,2.4927,2.5065,2.5114,2.5229,2.5699,2.5844,2.5831,2.5764,2.7071,2.842,2.8686,2.9946,3.1255,3.1829,3.223,3.2534,3.2632,3.2952,3.3229,3.3317,3.3578,3.3807,3.3807,3.3855,3.3986,3.4277,3.4311,3.4434,3.4754,3.4803,3.4879,3.5155,3.519,3.5281,3.5493,3.5515,3.5522,3.5522,3.5644,3.5713,3.5732,3.5732,3.5741,3.5758,3.5861,3.5916,3.5916,3.5974,3.5996,0.0,0.0,0.0,1.6631,0.0,1.8782,1.961,1.9798,1.9798,1.9798,1.9798,1.9974,2.0591,2.0465,2.0614,2.1732,2.192,2.202,2.2297,2.2543,2.2706,2.2706,2.2706,2.2819,2.3083,2.3108,2.3108,2.3108,2.3108,2.3108,2.3108,2.272,2.2322,2.1908,2.1101,2.043,1.9977,1.911,1.8911,1.9332,1.8428,1.8236,1.8721,1.9595,1.9759,1.9398,2.0236,2.0365,2.0009,2.043,2.059,2.0655,2.1101,2.127,2.1416,2.2683,2.3148,2.3267,2.4034,2.4138,2.3861,2.3543,2.3299,2.3103,2.3108,2.314,2.3248,2.3776,2.4153,2.4449,2.4658,2.5737,2.6938,2.7602,2.9381,3.1029,3.144,3.1695,3.1932,3.2127,3.2366,3.2598,3.2842,3.3243,3.3508,3.3508,3.368,3.3855,3.3999,3.4006,3.4129,3.4442,3.4456,3.4582,3.487,3.4917,3.5016,3.5289,3.5304,3.5369,3.5493,3.5574,3.5631,3.565,3.565,3.5675,3.5707,3.5766,3.5805,3.5805,3.5916,3.5948,0.0,0.0,0.0,0.0,1.8519,0.0,1.966,1.9798,1.9798,1.9798,1.9798,1.9949,2.0453,2.0151,2.0137,2.1179,2.1343,2.138,2.1509,2.1882,2.2171,2.2171,2.2171,2.2347,2.2782,2.2819,2.2857,2.2957,2.2957,2.3007,2.3095,2.2476,2.2032,2.1908,2.0494,1.9595,1.9299,1.8596,1.8144,1.8008,1.8008,1.8008,1.8008,1.8754,1.8687,1.8076,1.9529,1.9748,1.9144,1.9846,2.0139,2.016,2.0245,2.0288,2.0483,2.126,2.1701,2.2013,2.2659,2.2625,2.2297,2.2196,2.1856,2.1446,2.1471,2.1502,2.1673,2.2218,2.2752,2.3324,2.3817,2.4532,2.5413,2.6686,2.8899,3.0787,3.1001,3.1035,3.1176,3.1604,3.1752,3.1951,3.2417,3.2809,3.3075,3.3075,3.3419,3.3694,3.3694,3.3748,3.3889,3.4099,3.4135,3.4265,3.4601,3.4603,3.4734,3.5008,3.5025,3.513,3.5354,3.5361,3.5416,3.551,3.5557,3.5611,3.5671,3.5671,3.5682,3.5682,3.5802,3.5871,0.0,0.0,0.0,0.0,1.8254,1.8581,0.0,0.0,1.9798,0.0,1.9798,1.9823,1.9911,1.9849,2.0012,2.0691,2.0805,2.0968,2.1418,2.1556,2.1594,2.1594,2.1594,2.1631,2.1707,2.1707,2.1907,2.2355,2.2422,2.2606,2.3083,2.3017,2.2628,2.1908,2.1659,2.0814,1.9299,1.9177,1.8754,1.8008,1.8008,1.8008,1.8008,1.811,1.811,1.8008,1.8236,1.8269,1.8168,1.8303,1.8337,1.8388,1.8729,1.9104,1.9542,2.0003,2.0908,2.1908,2.2002,2.2164,2.2234,2.1757,2.1249,2.083,2.0896,2.0911,2.104,2.1649,2.1871,2.2095,2.2719,2.3792,2.4863,2.5575,2.7291,2.9069,3.0182,3.0414,3.058,3.1157,3.1547,3.1951,3.2417,3.255,3.2599,3.2599,3.2999,3.3273,3.3273,3.3578,3.3802,3.3855,3.3855,3.3961,3.4253,3.4277,3.4412,3.4734,3.4744,3.4764,3.4812,3.4822,3.4916,3.5168,3.54,3.5528,3.5534,3.5599,3.5616,3.5621,3.5698,3.5723,1.216,0.0,0.0,0.0,0.0,1.8405,1.9196,0.0,1.9798,1.9798,1.9798,1.9798,1.9798,1.9798,1.9886,2.0137,2.0478,2.0666,2.0552,2.0855,2.1056,2.1056,2.1056,2.1182,2.1455,2.1493,2.1594,2.1832,2.1845,2.1958,2.2196,2.1748,2.1324,2.0956,2.0463,1.9842,1.9068,1.937,1.9264,1.8721,1.8236,1.8008,1.8008,1.8008,1.8008,1.8008,1.8008,1.7881,1.7656,1.7656,1.7519,1.7328,1.7758,1.8051,1.8332,1.9233,2.0241,2.1192,2.1337,2.1611,2.1757,2.1232,2.0666,2.0216,2.0233,2.0245,2.0295,2.057,2.0904,2.1259,2.1561,2.2856,2.4256,2.4894,2.6252,2.7736,2.9021,2.9563,2.9957,3.0597,3.1103,3.1526,3.1749,3.1968,3.2109,3.2109,3.2517,3.2809,3.2809,3.2965,3.3181,3.3451,3.3447,3.3602,3.3948,3.3974,3.4105,3.4401,3.4412,3.4508,3.4684,3.4694,3.4763,3.486,3.513,3.5354,3.55,3.5522,3.554,3.554,3.5616,3.5638,0.0,0.0,0.0,0.0,0.0,1.7964,0.0,0.0,1.9648,0.0,1.9798,1.9798,1.9798,1.9798,1.9798,1.9798,2.0189,2.0314,1.9861,2.0201,2.0478,2.0478,2.0478,2.0629,2.1016,2.1054,2.1117,2.1295,2.1307,2.137,2.1481,2.0893,2.0526,2.0526,1.9896,1.9456,1.9238,1.9216,1.9188,1.9098,1.8235,1.7852,1.7852,1.7852,1.7793,1.7695,1.792,1.7773,1.7383,1.7383,1.7129,1.6726,1.709,1.7285,1.752,1.8469,1.9479,2.0407,2.0611,2.0945,2.1232,2.083,2.0302,1.9798,1.9798,1.9798,1.9798,1.9798,2.0259,2.0807,2.097,2.2073,2.3429,2.4398,2.5414,2.6566,2.8158,2.8966,2.9585,3.0187,3.0658,3.1015,3.1171,3.1449,3.1641,3.1641,3.2039,3.2333,3.2333,3.2434,3.2632,3.2983,3.3139,3.3317,3.3606,3.3734,3.3889,3.4093,3.4099,3.4206,3.4453,3.4464,3.4497,3.4572,3.4765,3.5051,3.5391,3.5391,3.5432,3.55,3.5558,3.5687,0.0,0.0,0.0,0.0,0.0,0.0,0.0,0.0,1.9183,1.9698,1.9798,1.9798,1.9798,1.9798,1.9798,1.9798,1.9823,1.9836,1.9798,1.9823,1.9849,1.9849,1.9849,1.9861,1.9886,1.9886,2.0125,2.0691,2.0729,2.0968,2.1455,2.1465,2.1425,2.1425,2.1397,2.0978,2.014,1.8654,1.8124,1.8531,1.7785,1.7422,1.7422,1.7422,1.7197,1.6814,1.7656,1.7773,1.7383,1.7383,1.7129,1.6697,1.6726,1.7021,1.7416,1.7468,1.8466,1.9738,1.9778,2.0188,2.0729,2.0704,2.0302,1.9798,1.9798,1.9798,1.9798,1.9798,2.0253,2.0855,2.142,2.164,2.2185,2.4063,2.4659,2.5487,2.7955,2.8966,2.9585,3.0187,3.033,3.0518,3.1095,3.121,3.123,3.123,3.1565,3.1843,3.1843,3.2213,3.2517,3.2534,3.2937,3.3214,3.3229,3.3578,3.382,3.3815,3.3815,3.3829,3.3842,3.3842,3.3979,3.4211,3.4235,3.4553,3.5122,3.5122,3.5239,3.55,3.5488,3.5918,0.0,0.0,0.0,0.0,1.536,1.6561,1.7193,1.7918,1.8531,1.8744,1.8781,1.8882,1.9208,1.9572,1.9798,1.9798,1.9798,1.9798,1.9798,1.9798,1.9798,1.9798,1.9798,1.9798,1.9798,1.9798,1.9886,2.01,2.0112,2.02,2.0388,2.0413,2.0413,2.0413,2.0413,2.0215,1.9825,1.8699,1.8156,1.8176,1.7326,1.6963,1.6963,1.6963,1.6853,1.6716,1.7028,1.6943,1.6564,1.6564,1.6279,1.5907,1.6473,1.6794,1.7002,1.7285,1.8092,1.8911,1.828,1.8936,1.9928,1.9536,1.9584,1.9798,1.9798,1.9798,1.9874,2.0277,2.0528,2.0821,2.1379,2.2133,2.3151,2.4704,2.5467,2.6104,2.7004,2.807,2.8896,2.9088,2.9761,3.0372,3.0597,3.0938,3.119,3.119,3.1312,3.1411,3.1411,3.1562,3.1769,3.2022,3.2196,3.2549,3.3154,3.3332,3.3522,3.3775,3.3807,3.3807,3.3807,3.3807,3.3855,3.3935,3.3935,3.4323,3.5105,3.5105,3.5231,3.55,3.55,3.5654,1.0043,0.0,0.0,0.0,0.0,1.5672,1.6278,0.0,1.7718,1.8119,1.8204,1.8317,1.8657,1.9158,1.9597,1.9773,1.9798,1.9798,1.9798,1.9798,1.9798,1.9798,1.9798,1.9798,1.9798,1.9798,1.9798,1.9798,1.9798,1.9798,1.9798,1.9798,1.9798,1.9798,1.9798,1.9635,1.9304,1.8491,1.7952,1.7734,1.6898,1.6514,1.6514,1.6514,1.6395,1.6258,1.6258,1.6201,1.6095,1.6095,1.5811,1.5459,1.6221,1.6514,1.6562,1.7002,1.7554,1.8029,1.7422,1.7957,1.8889,1.8753,1.9044,1.9475,1.9721,1.9798,1.9924,2.0528,2.083,2.1094,2.1619,2.2745,2.3879,2.457,2.5628,2.651,2.651,2.7388,2.8262,2.8463,2.9157,2.9761,2.9957,3.033,3.0658,3.0858,3.0898,3.0975,3.1171,3.119,3.131,3.1565,3.1733,3.2109,3.2905,3.3105,3.3361,3.3762,3.3807,3.3807,3.3807,3.3807,3.3807,3.3807,3.3807,3.4129,3.4803,3.4907,3.5138,3.55,3.55,3.5808,0.0,0.0,0.0,0.0,0.0,0.0,1.594,0.0,1.669,1.7887,1.813,1.813,1.8179,1.8607,1.9146,1.9698,1.9798,1.9798,1.9798,1.9798,1.9798,1.9798,1.9798,1.9798,1.9798,1.9798,1.9798,1.9798,1.9798,1.9798,1.9798,1.9798,1.9798,1.9798,1.9798,1.9449,1.8661,1.7977,1.7459,1.7132,1.6427,1.6105,1.6075,1.6075,1.584,1.541,1.541,1.5654,1.6075,1.6075,1.5791,1.5459,1.5919,1.6095,1.6144,1.6553,1.6889,1.7153,1.7143,1.7338,1.7688,1.8421,1.8688,1.8847,1.9579,1.9798,1.9924,2.0553,2.1106,2.1619,2.2184,2.3296,2.4105,2.3553,2.4983,2.6484,2.651,2.7086,2.776,2.8359,2.8487,2.8701,2.9271,2.9406,2.9629,3.0208,3.033,3.0539,3.1131,3.119,3.119,3.119,3.1547,3.1969,3.2451,3.2905,3.3332,3.3748,3.3775,3.3793,3.3807,3.3807,3.3807,3.3807,3.3807,3.3923,3.42,3.454,3.4972,3.5493,3.55,3.6385,0.955,0.0,0.0,0.0,0.0,0.0,0.0,0.0,1.5395,1.6163,1.6312,1.6581,1.7458,1.8053,1.8606,1.9121,1.956,1.9798,1.9798,1.9798,1.9798,1.9798,1.9798,1.9798,1.9798,1.9798,1.9798,1.9798,1.9798,1.9798,1.9798,1.9798,1.9798,1.9798,1.9798,1.9202,1.7934,1.8221,1.7551,1.5909,1.6219,1.6113,1.5586,1.5586,1.5527,1.541,1.541,1.5478,1.5586,1.5586,1.5518,1.5459,1.5919,1.6095,1.6105,1.6232,1.6315,1.6377,1.6018,1.6311,1.6922,1.7649,1.8259,1.8847,1.9579,1.9798,2.0012,2.0991,2.1408,2.1707,2.2631,2.3161,2.3522,2.3966,2.4885,2.5837,2.6377,2.7086,2.7635,2.781,2.8213,2.8559,2.8709,2.9473,3.0102,3.0272,3.0679,3.1015,3.1171,3.119,3.119,3.119,3.131,3.1545,3.1968,3.2109,3.2533,3.3317,3.3361,3.3494,3.3793,3.3807,3.3807,3.3807,3.3807,3.3923,3.42,3.454,3.4879,3.5215,3.5417,3.6058,0.0,0.0,0.0,0.0,0.0,0.0,1.405,1.4445,1.4949,0.0,1.5986,1.6193,1.6882,1.7488,1.8041,1.8569,1.9133,1.9547,1.9773,1.9798,1.9798,1.9798,1.9798,1.9798,1.9798,1.9798,1.9798,1.9798,1.9798,1.9798,1.9798,1.9798,1.9798,1.9798,1.9798,1.9228,1.807,1.8178,1.7429,1.5864,1.5979,1.5816,1.541,1.541,1.541,1.541,1.541,1.541,1.541,1.541,1.541,1.5439,1.5693,1.5821,1.5821,1.5821,1.5821,1.5782,1.5498,1.569,1.6197,1.7246,1.7907,1.8447,1.9475,1.9974,2.0351,2.1242,2.182,2.2322,2.2945,2.3108,2.3215,2.3679,2.4394,2.5147,2.5864,2.6628,2.7229,2.7549,2.787,2.8116,2.8116,2.8717,2.9255,2.9518,3.0043,3.0539,3.0797,3.1035,3.119,3.119,3.119,3.137,3.1771,3.1807,3.2109,3.2856,3.2921,3.3105,3.3536,3.355,3.3638,3.3807,3.3807,3.3923,3.42,3.4401,3.4705,3.5105,3.5376,3.5923,0.0,0.0,0.0,0.0,0.0,0.0,1.4247,1.4502,1.4812,0.0,1.6194,1.6216,1.6293,1.6796,1.7343,1.7828,1.8473,1.9096,1.9723,1.9798,1.9798,1.9798,1.9798,1.9798,1.9798,1.9798,1.9798,1.9798,1.9798,1.9798,1.9798,1.9798,1.9798,1.9798,1.9798,1.9397,1.8581,1.8004,1.7274,1.6379,1.5806,1.5468,1.541,1.541,1.541,1.541,1.541,1.541,1.541,1.541,1.541,1.541,1.541,1.541,1.541,1.541,1.541,1.541,1.541,1.541,1.5642,1.7088,1.7512,1.7754,1.9375,2.0195,2.0736,2.1405,2.2334,2.3108,2.3108,2.3108,2.3138,2.3215,2.3767,2.4509,2.5231,2.5987,2.6695,2.7357,2.7534,2.76,2.76,2.7675,2.787,2.8415,2.8996,2.9607,3.023,3.076,3.1131,3.119,3.119,3.1351,3.1715,3.1734,3.1933,3.2383,3.2417,3.2632,3.309,3.3184,3.3361,3.3721,3.3793,3.3928,3.4159,3.4195,3.4492,3.507,3.532,3.5837,1.0298,0.0,0.0,0.0,0.0,0.0,1.321,1.3248,1.3454,0.0,1.4318,1.4491,1.4949,1.5498,1.5902,1.6005,1.7298,1.8642,1.9672,1.9798,1.9798,1.9798,1.9798,1.9798,1.9798,1.9798,1.9798,1.9798,1.9798,1.9798,1.9798,1.9798,1.9798,1.9798,1.9798,1.9176,1.7813,1.8259,1.7512,1.5613,1.6065,1.5979,1.541,1.541,1.541,1.541,1.541,1.541,1.541,1.541,1.541,1.541,1.541,1.541,1.541,1.541,1.541,1.541,1.541,1.541,1.5615,1.6863,1.7016,1.7147,1.9444,1.9969,2.0128,2.1686,2.2594,2.3108,2.3108,2.3108,2.3245,2.3914,2.4205,2.4509,2.5231,2.5987,2.6537,2.6695,2.7188,2.76,2.76,2.7993,2.8367,2.8487,2.8996,2.9607,3.023,3.0414,3.0658,3.1151,3.119,3.123,3.131,3.1329,3.1488,3.1915,3.195,3.2144,3.2616,3.2999,3.3243,3.3317,3.3652,3.3829,3.3876,3.4086,3.4401,3.4774,3.5043,3.5259,1.0598,0.0,0.0,1.2353,0.0,0.0,0.0,1.3348,1.3515,1.412,1.426,1.4329,1.4629,1.4923,1.5193,1.5476,1.6487,1.7446,1.8009,1.9091,1.9798,1.9798,1.9798,1.9798,1.9798,1.9798,1.9798,1.9798,1.9798,1.9798,1.9798,1.9798,1.9798,1.9798,1.9449,1.8912,1.8151,1.7797,1.7052,1.595,1.595,1.5748,1.541,1.541,1.541,1.541,1.541,1.541,1.541,1.541,1.541,1.541,1.541,1.541,1.541,1.541,1.541,1.541,1.541,1.541,1.5556,1.6533,1.6681,1.6835,1.8691,1.9738,2.0637,2.225,2.2895,2.3108,2.3108,2.3108,2.3198,2.3603,2.3708,2.3914,2.4681,2.5425,2.6068,2.6431,2.71,2.76,2.76,2.786,2.8042,2.8042,2.8567,2.9157,2.9761,3.0123,3.0518,3.1151,3.119,3.119,3.119,3.119,3.1291,3.1488,3.1507,3.1695,3.2127,3.2383,3.2711,3.3199,3.3611,3.3807,3.3807,3.3923,3.4165,3.4456,3.4898,3.5105,0.0,0.0,0.0,0.0,0.0,1.3041,0.0,0.0,0.0,1.4247,1.434,0.0,0.0,0.0,0.0,1.4926,0.0,0.0,1.6036,1.7936,1.9369,1.9443,1.9571,1.9698,1.9798,1.971,1.9698,1.9798,1.971,1.9698,1.9798,1.9798,1.9798,1.9798,1.9228,1.8847,1.8688,1.7385,1.6652,1.6492,1.5748,1.541,1.541,1.541,1.541,1.541,1.541,1.541,1.541,1.541,1.541,1.541,1.541,1.541,1.541,1.541,1.5469,1.5537,1.5537,1.5596,1.5763,1.6461,1.6953,1.7506,1.8545,2.0053,2.165,2.2777,2.3108,2.3108,2.3108,2.3108,2.3108,2.3108,2.3108,2.3305,2.4118,2.4879,2.5618,2.6363,2.71,2.76,2.76,2.76,2.765,2.776,2.8189,2.8756,2.9473,2.9995,3.0518,3.1151,3.119,3.119,3.119,3.119,3.119,3.119,3.119,3.1351,3.1678,3.1843,3.2332,3.3184,3.3611,3.3807,3.3807,3.3807,3.3915,3.4135,3.4745,3.5016,0.0,0.0,0.0,0.0,1.3105,0.0,1.2992,0.0,1.3017,1.3089,0.0,0.0,0.0,0.0,0.0,0.0,0.0,0.0,1.4796,1.6407,1.7749,1.8244,1.8771,1.9271,1.9761,1.9359,1.9284,1.9761,1.9346,1.9296,1.9773,1.9798,1.9798,1.9798,1.9721,1.9371,1.8715,1.7907,1.7146,1.6492,1.5748,1.541,1.541,1.541,1.541,1.541,1.541,1.541,1.541,1.541,1.541,1.541,1.541,1.541,1.541,1.541,1.5654,1.6016,1.6016,1.625,1.665,1.7128,1.8573,2.0219,2.0721,2.1812,2.2887,2.3053,2.3108,2.3108,2.3108,2.3108,2.3108,2.3108,2.3108,2.3305,2.4118,2.4879,2.5618,2.6363,2.71,2.76,2.76,2.76,2.7785,2.8319,2.8479,2.8919,3.0059,3.0251,3.0518,3.1151,3.119,3.119,3.119,3.119,3.119,3.119,3.119,3.123,3.1269,3.2021,3.2665,3.3199,3.3611,3.3807,3.3807,3.3807,3.3815,3.3868,3.4453,3.4753,0.0,0.0,0.0,0.0,0.0,0.0,1.2964,1.2905,1.2905,1.2905,0.0,0.0,0.0,0.0,0.0,0.0,1.3597,0.0,0.0,0.0,1.6243,1.7481,1.8179,1.8756,1.9271,1.8845,1.8894,1.9748,1.9296,1.9221,1.9773,1.9798,1.9798,1.9798,1.9385,1.9006,1.8688,1.755,1.6821,1.6492,1.5748,1.541,1.541,1.541,1.541,1.541,1.541,1.541,1.541,1.541,1.541,1.541,1.541,1.541,1.5439,1.5693,1.5938,1.6134,1.6357,1.6541,1.6821,1.7528,1.8533,1.9647,2.0838,2.1765,2.2506,2.2975,2.3108,2.3108,2.3108,2.3108,2.3108,2.3108,2.3108,2.3198,2.3543,2.4553,2.5481,2.5783,2.6811,2.76,2.76,2.76,2.77,2.7959,2.8286,2.8803,2.9673,3.0064,3.0518,3.1151,3.119,3.119,3.119,3.119,3.119,3.119,3.119,3.119,3.119,3.1787,3.2315,3.2777,3.3243,3.3564,3.3807,3.3807,3.3807,3.382,3.4225,3.4518,1.3094,0.0,0.0,0.0,1.3223,1.3398,1.3003,1.2993,1.3042,1.2925,1.2993,0.0,0.0,0.0,1.2905,1.2905,0.0,1.3396,0.0,1.3789,0.0,0.0,0.0,1.8102,1.8499,1.8196,1.843,1.951,1.907,1.907,1.9761,1.9798,1.9798,1.9798,1.9281,1.9006,1.9006,1.755,1.6782,1.6793,1.5864,1.541,1.541,1.541,1.541,1.541,1.541,1.541,1.541,1.541,1.541,1.541,1.541,1.541,1.5469,1.5938,1.6173,1.6309,1.6758,1.695,1.7241,1.8344,1.8901,1.9487,2.1204,2.1946,2.2353,2.2944,2.3108,2.3108,2.3108,2.3108,2.3108,2.3108,2.3108,2.3155,2.3395,2.4308,2.5147,2.537,2.6428,2.7306,2.7306,2.7473,2.7675,2.7835,2.8238,2.8779,2.954,3.0038,3.0518,3.1151,3.119,3.119,3.119,3.119,3.119,3.119,3.119,3.119,3.119,3.1584,3.1951,3.2316,3.2777,3.3229,3.3652,3.3652,3.3694,3.382,3.408,3.4465,0.0,1.4406,1.4085,1.4058,1.3782,1.3398,1.3003,1.3193,1.3369,1.2993,1.3203,1.3359,1.2983,1.2905,1.2905,1.2905,1.2929,0.0,0.0,0.0,0.0,0.0,0.0,0.0,0.0,1.7401,1.7865,1.8945,1.8519,1.8694,1.9748,1.9798,1.9798,1.9798,1.9773,1.9747,1.9747,1.8313,1.755,1.755,1.6083,1.541,1.541,1.541,1.541,1.541,1.541,1.541,1.541,1.541,1.541,1.541,1.541,1.541,1.5469,1.5938,1.6338,1.6746,1.7217,1.7627,1.822,1.9966,2.0525,2.0855,2.2531,2.3065,2.3078,2.3078,2.3108,2.3108,2.3108,2.3108,2.3108,2.3108,2.3108,2.3305,2.4089,2.4292,2.4538,2.5259,2.6,2.6537,2.6537,2.7126,2.781,2.8367,2.8487,2.8943,3.0123,3.0293,3.0518,3.1151,3.119,3.119,3.119,3.119,3.119,3.119,3.119,3.119,3.119,3.1584,3.1807,3.1825,3.2281,3.2745,3.3214,3.3214,3.3422,3.382,3.408,3.4665,1.4612,1.4678,1.4561,1.4561,1.4238,1.3782,1.3389,1.3408,1.3389,1.2993,1.3213,1.3379,1.2959,1.2905,1.2905,1.2905,1.2905,1.2905,0.0,0.0,0.0,0.0,0.0,0.0,0.0,0.0,1.7254,1.8324,1.8288,1.8681,1.9748,1.9798,1.9798,1.9798,1.9798,1.9798,1.9798,1.8821,1.8085,1.7578,1.6613,1.5864,1.541,1.541,1.541,1.541,1.541,1.541,1.541,1.541,1.541,1.541,1.541,1.541,1.5498,1.624,1.657,1.6804,1.7549,1.8275,1.9044,2.0236,2.0974,2.1678,2.275,2.3108,2.3108,2.3108,2.3108,2.3108,2.3108,2.3108,2.3108,2.3108,2.3108,2.3155,2.3454,2.3914,2.4379,2.4624,2.5646,2.651,2.651,2.7111,2.7675,2.7885,2.8222,2.8654,2.9058,2.9451,2.9951,3.0539,3.0601,3.0777,3.1171,3.119,3.119,3.119,3.119,3.119,3.119,3.1332,3.1545,3.1789,3.1968,3.2416,3.3199,3.3199,3.3695,3.4601,3.4686,3.4999,1.4932,1.501,1.4971,1.4852,1.457,1.4192,1.3643,1.3623,1.3613,1.3193,1.332,1.3467,1.335,1.3076,1.2954,1.3076,1.3003,1.2905,0.0,1.3079,0.0,0.0,0.0,0.0,0.0,0.0,1.6645,1.7776,1.7676,1.8052,1.9158,1.9422,1.9522,1.9522,1.971,1.9798,1.9798,1.9071,1.834,1.7578,1.6838,1.6122,1.541,1.541,1.541,1.541,1.541,1.541,1.541,1.541,1.541,1.541,1.541,1.541,1.5518,1.6375,1.6892,1.7298,1.8171,1.8821,1.9497,2.0687,2.1428,2.2032,2.2854,2.3108,2.3108,2.3108,2.3108,2.3108,2.3108,2.3108,2.3108,2.3108,2.3108,2.3108,2.3108,2.3738,2.4292,2.4292,2.5481,2.651,2.651,2.7111,2.76,2.76,2.7919,2.8262,2.8463,2.885,2.9316,2.993,3.0166,3.0539,3.1151,3.119,3.119,3.119,3.119,3.119,3.119,3.1332,3.1545,3.1789,3.1951,3.2433,3.3199,3.3199,3.3807,3.5004,3.5004,3.5275]}]]